<?xml version="1.0" encoding="UTF-8" standalone="no" ?>
<gpx xmlns="http://www.topografix.com/GPX/1/1" xmlns:xsi="http://www.w3.org/2001/XMLSchema-instance" xsi:schemaLocation="http://www.topografix.com/GPX/1/1 http://www.topografix.com/GPX/1/1/gpx.xsd" version="1.1" creator="VisuGPX - https://www.visugpx.com">
  <metadata>
    <name>Lance de mallisard</name>
    <desc><![CDATA[decente par couloir virgule]]></desc>
  </metadata>
  <trk>
    <name><![CDATA[Lance de Mallisard]]></name>
    <desc><![CDATA[avec hugo et seb. Magique]]></desc>
    <trkseg>
      <trkpt lat="45.35663" lon="5.91762">
        <ele>1073.4000244141</ele>
        <time>2012-01-11T08:07:13.000Z</time>
      </trkpt>
      <trkpt lat="45.35666" lon="5.9176">
        <ele>1073.8000488281</ele>
        <time>2012-01-11T08:07:17.000Z</time>
      </trkpt>
      <trkpt lat="45.35668" lon="5.91757">
        <ele>1074.8000488281</ele>
        <time>2012-01-11T08:07:23.000Z</time>
      </trkpt>
      <trkpt lat="45.35669" lon="5.9175">
        <ele>1075.8000488281</ele>
        <time>2012-01-11T08:07:29.000Z</time>
      </trkpt>
      <trkpt lat="45.35671" lon="5.91744">
        <ele>1076.8000488281</ele>
        <time>2012-01-11T08:07:34.000Z</time>
      </trkpt>
      <trkpt lat="45.35672" lon="5.91738">
        <ele>1076.1999511719</ele>
        <time>2012-01-11T08:07:39.000Z</time>
      </trkpt>
      <trkpt lat="45.35673" lon="5.91731">
        <ele>1078.1999511719</ele>
        <time>2012-01-11T08:07:46.000Z</time>
      </trkpt>
      <trkpt lat="45.35672" lon="5.91726">
        <ele>1083.4000244141</ele>
        <time>2012-01-11T08:07:54.000Z</time>
      </trkpt>
      <trkpt lat="45.35671" lon="5.91719">
        <ele>1088.8000488281</ele>
        <time>2012-01-11T08:08:03.000Z</time>
      </trkpt>
      <trkpt lat="45.35669" lon="5.91716">
        <ele>1090.5999755859</ele>
        <time>2012-01-11T08:08:08.000Z</time>
      </trkpt>
      <trkpt lat="45.35666" lon="5.91711">
        <ele>1091.5999755859</ele>
        <time>2012-01-11T08:08:14.000Z</time>
      </trkpt>
      <trkpt lat="45.35664" lon="5.91707">
        <ele>1091.1999511719</ele>
        <time>2012-01-11T08:08:19.000Z</time>
      </trkpt>
      <trkpt lat="45.35662" lon="5.91702">
        <ele>1091.1999511719</ele>
        <time>2012-01-11T08:08:25.000Z</time>
      </trkpt>
      <trkpt lat="45.3566" lon="5.91698">
        <ele>1091.1999511719</ele>
        <time>2012-01-11T08:08:30.000Z</time>
      </trkpt>
      <trkpt lat="45.35656" lon="5.91693">
        <ele>1092.5999755859</ele>
        <time>2012-01-11T08:08:36.000Z</time>
      </trkpt>
      <trkpt lat="45.35655" lon="5.91688">
        <ele>1093</ele>
        <time>2012-01-11T08:08:41.000Z</time>
      </trkpt>
      <trkpt lat="45.35653" lon="5.91685">
        <ele>1094.4000244141</ele>
        <time>2012-01-11T08:08:46.000Z</time>
      </trkpt>
      <trkpt lat="45.3565" lon="5.91681">
        <ele>1097.4000244141</ele>
        <time>2012-01-11T08:08:52.000Z</time>
      </trkpt>
      <trkpt lat="45.35647" lon="5.91681">
        <ele>1101.1999511719</ele>
        <time>2012-01-11T08:08:56.000Z</time>
      </trkpt>
      <trkpt lat="45.35645" lon="5.91679">
        <ele>1101.1999511719</ele>
        <time>2012-01-11T08:09:00.000Z</time>
      </trkpt>
      <trkpt lat="45.35643" lon="5.91678">
        <ele>1102.1999511719</ele>
        <time>2012-01-11T08:09:04.000Z</time>
      </trkpt>
      <trkpt lat="45.35642" lon="5.91675">
        <ele>1104.1999511719</ele>
        <time>2012-01-11T08:09:10.000Z</time>
      </trkpt>
      <trkpt lat="45.35642" lon="5.91671">
        <ele>1103.5999755859</ele>
        <time>2012-01-11T08:09:14.000Z</time>
      </trkpt>
      <trkpt lat="45.35642" lon="5.91666">
        <ele>1103.1999511719</ele>
        <time>2012-01-11T08:09:20.000Z</time>
      </trkpt>
      <trkpt lat="45.35642" lon="5.91661">
        <ele>1102.1999511719</ele>
        <time>2012-01-11T08:09:26.000Z</time>
      </trkpt>
      <trkpt lat="45.35642" lon="5.91655">
        <ele>1101.8000488281</ele>
        <time>2012-01-11T08:09:31.000Z</time>
      </trkpt>
      <trkpt lat="45.35644" lon="5.91648">
        <ele>1100.8000488281</ele>
        <time>2012-01-11T08:09:38.000Z</time>
      </trkpt>
      <trkpt lat="45.35645" lon="5.91643">
        <ele>1101.1999511719</ele>
        <time>2012-01-11T08:09:43.000Z</time>
      </trkpt>
      <trkpt lat="45.35645" lon="5.91638">
        <ele>1102.5999755859</ele>
        <time>2012-01-11T08:09:49.000Z</time>
      </trkpt>
      <trkpt lat="45.35646" lon="5.91629">
        <ele>1105</ele>
        <time>2012-01-11T08:09:58.000Z</time>
      </trkpt>
      <trkpt lat="45.35647" lon="5.91622">
        <ele>1107</ele>
        <time>2012-01-11T08:10:05.000Z</time>
      </trkpt>
      <trkpt lat="45.35648" lon="5.91616">
        <ele>1108</ele>
        <time>2012-01-11T08:10:12.000Z</time>
      </trkpt>
      <trkpt lat="45.3565" lon="5.91608">
        <ele>1109.8000488281</ele>
        <time>2012-01-11T08:10:20.000Z</time>
      </trkpt>
      <trkpt lat="45.35652" lon="5.91602">
        <ele>1111.8000488281</ele>
        <time>2012-01-11T08:10:28.000Z</time>
      </trkpt>
      <trkpt lat="45.35655" lon="5.91596">
        <ele>1113.8000488281</ele>
        <time>2012-01-11T08:10:36.000Z</time>
      </trkpt>
      <trkpt lat="45.35657" lon="5.9159">
        <ele>1115.5999755859</ele>
        <time>2012-01-11T08:10:43.000Z</time>
      </trkpt>
      <trkpt lat="45.35659" lon="5.91584">
        <ele>1116.5999755859</ele>
        <time>2012-01-11T08:10:51.000Z</time>
      </trkpt>
      <trkpt lat="45.35661" lon="5.9158">
        <ele>1118</ele>
        <time>2012-01-11T08:10:57.000Z</time>
      </trkpt>
      <trkpt lat="45.35663" lon="5.91575">
        <ele>1120</ele>
        <time>2012-01-11T08:11:03.000Z</time>
      </trkpt>
      <trkpt lat="45.35665" lon="5.91571">
        <ele>1119.4000244141</ele>
        <time>2012-01-11T08:11:08.000Z</time>
      </trkpt>
      <trkpt lat="45.35666" lon="5.91567">
        <ele>1120.4000244141</ele>
        <time>2012-01-11T08:11:14.000Z</time>
      </trkpt>
      <trkpt lat="45.35669" lon="5.91563">
        <ele>1121.4000244141</ele>
        <time>2012-01-11T08:11:20.000Z</time>
      </trkpt>
      <trkpt lat="45.3567" lon="5.91559">
        <ele>1121.4000244141</ele>
        <time>2012-01-11T08:11:25.000Z</time>
      </trkpt>
      <trkpt lat="45.35672" lon="5.91559">
        <ele>1121</ele>
        <time>2012-01-11T08:11:32.000Z</time>
      </trkpt>
      <trkpt lat="45.35672" lon="5.91559">
        <ele>1121</ele>
        <time>2012-01-11T08:11:45.000Z</time>
      </trkpt>
      <trkpt lat="45.35671" lon="5.9156">
        <ele>1122.4000244141</ele>
        <time>2012-01-11T08:11:54.000Z</time>
      </trkpt>
      <trkpt lat="45.3567" lon="5.91557">
        <ele>1124.1999511719</ele>
        <time>2012-01-11T08:12:06.000Z</time>
      </trkpt>
      <trkpt lat="45.3567" lon="5.91557">
        <ele>1123.8000488281</ele>
        <time>2012-01-11T08:12:12.000Z</time>
      </trkpt>
      <trkpt lat="45.3567" lon="5.91556">
        <ele>1121.4000244141</ele>
        <time>2012-01-11T08:12:18.000Z</time>
      </trkpt>
      <trkpt lat="45.35671" lon="5.91556">
        <ele>1121.8000488281</ele>
        <time>2012-01-11T08:12:34.000Z</time>
      </trkpt>
      <trkpt lat="45.35671" lon="5.91555">
        <ele>1125.8000488281</ele>
        <time>2012-01-11T08:12:50.000Z</time>
      </trkpt>
      <trkpt lat="45.3567" lon="5.91556">
        <ele>1125.8000488281</ele>
        <time>2012-01-11T08:12:54.000Z</time>
      </trkpt>
      <trkpt lat="45.3567" lon="5.91556">
        <ele>1124.8000488281</ele>
        <time>2012-01-11T08:13:06.000Z</time>
      </trkpt>
      <trkpt lat="45.35671" lon="5.91557">
        <ele>1126.8000488281</ele>
        <time>2012-01-11T08:13:12.000Z</time>
      </trkpt>
      <trkpt lat="45.35671" lon="5.91558">
        <ele>1124.8000488281</ele>
        <time>2012-01-11T08:13:27.000Z</time>
      </trkpt>
      <trkpt lat="45.3567" lon="5.91555">
        <ele>1127.1999511719</ele>
        <time>2012-01-11T08:13:36.000Z</time>
      </trkpt>
      <trkpt lat="45.3567" lon="5.91555">
        <ele>1125.8000488281</ele>
        <time>2012-01-11T08:13:45.000Z</time>
      </trkpt>
      <trkpt lat="45.35673" lon="5.91552">
        <ele>1126.1999511719</ele>
        <time>2012-01-11T08:13:55.000Z</time>
      </trkpt>
      <trkpt lat="45.35677" lon="5.91544">
        <ele>1127.5999755859</ele>
        <time>2012-01-11T08:14:04.000Z</time>
      </trkpt>
      <trkpt lat="45.3568" lon="5.91538">
        <ele>1128.5999755859</ele>
        <time>2012-01-11T08:14:11.000Z</time>
      </trkpt>
      <trkpt lat="45.35684" lon="5.91533">
        <ele>1128.5999755859</ele>
        <time>2012-01-11T08:14:18.000Z</time>
      </trkpt>
      <trkpt lat="45.35685" lon="5.91525">
        <ele>1129.1999511719</ele>
        <time>2012-01-11T08:14:24.000Z</time>
      </trkpt>
      <trkpt lat="45.35687" lon="5.91519">
        <ele>1129.1999511719</ele>
        <time>2012-01-11T08:14:29.000Z</time>
      </trkpt>
      <trkpt lat="45.3569" lon="5.91512">
        <ele>1129.5999755859</ele>
        <time>2012-01-11T08:14:35.000Z</time>
      </trkpt>
      <trkpt lat="45.35692" lon="5.91507">
        <ele>1130.5999755859</ele>
        <time>2012-01-11T08:14:40.000Z</time>
      </trkpt>
      <trkpt lat="45.35694" lon="5.915">
        <ele>1131.5999755859</ele>
        <time>2012-01-11T08:14:47.000Z</time>
      </trkpt>
      <trkpt lat="45.35696" lon="5.91495">
        <ele>1132.4000244141</ele>
        <time>2012-01-11T08:14:54.000Z</time>
      </trkpt>
      <trkpt lat="45.35697" lon="5.91492">
        <ele>1133</ele>
        <time>2012-01-11T08:14:59.000Z</time>
      </trkpt>
      <trkpt lat="45.357" lon="5.91485">
        <ele>1133.4000244141</ele>
        <time>2012-01-11T08:15:06.000Z</time>
      </trkpt>
      <trkpt lat="45.35701" lon="5.91478">
        <ele>1134.4000244141</ele>
        <time>2012-01-11T08:15:13.000Z</time>
      </trkpt>
      <trkpt lat="45.35703" lon="5.91473">
        <ele>1135.8000488281</ele>
        <time>2012-01-11T08:15:19.000Z</time>
      </trkpt>
      <trkpt lat="45.35704" lon="5.91467">
        <ele>1137.1999511719</ele>
        <time>2012-01-11T08:15:25.000Z</time>
      </trkpt>
      <trkpt lat="45.35705" lon="5.91457">
        <ele>1140.1999511719</ele>
        <time>2012-01-11T08:15:34.000Z</time>
      </trkpt>
      <trkpt lat="45.35707" lon="5.91451">
        <ele>1142.5999755859</ele>
        <time>2012-01-11T08:15:40.000Z</time>
      </trkpt>
      <trkpt lat="45.35709" lon="5.91448">
        <ele>1142</ele>
        <time>2012-01-11T08:15:46.000Z</time>
      </trkpt>
      <trkpt lat="45.35709" lon="5.91443">
        <ele>1143</ele>
        <time>2012-01-11T08:15:52.000Z</time>
      </trkpt>
      <trkpt lat="45.35711" lon="5.91436">
        <ele>1145.4000244141</ele>
        <time>2012-01-11T08:15:58.000Z</time>
      </trkpt>
      <trkpt lat="45.35713" lon="5.91431">
        <ele>1148.4000244141</ele>
        <time>2012-01-11T08:16:04.000Z</time>
      </trkpt>
      <trkpt lat="45.35714" lon="5.91428">
        <ele>1148.8000488281</ele>
        <time>2012-01-11T08:16:08.000Z</time>
      </trkpt>
      <trkpt lat="45.35716" lon="5.91422">
        <ele>1150.1999511719</ele>
        <time>2012-01-11T08:16:14.000Z</time>
      </trkpt>
      <trkpt lat="45.35717" lon="5.91413">
        <ele>1152.1999511719</ele>
        <time>2012-01-11T08:16:21.000Z</time>
      </trkpt>
      <trkpt lat="45.35718" lon="5.91407">
        <ele>1153.1999511719</ele>
        <time>2012-01-11T08:16:26.000Z</time>
      </trkpt>
      <trkpt lat="45.3572" lon="5.91402">
        <ele>1154.1999511719</ele>
        <time>2012-01-11T08:16:32.000Z</time>
      </trkpt>
      <trkpt lat="45.3572" lon="5.91396">
        <ele>1156.5999755859</ele>
        <time>2012-01-11T08:16:36.000Z</time>
      </trkpt>
      <trkpt lat="45.3572" lon="5.9139">
        <ele>1158.4000244141</ele>
        <time>2012-01-11T08:16:42.000Z</time>
      </trkpt>
      <trkpt lat="45.35721" lon="5.91386">
        <ele>1159.4000244141</ele>
        <time>2012-01-11T08:16:46.000Z</time>
      </trkpt>
      <trkpt lat="45.35721" lon="5.91379">
        <ele>1162.1999511719</ele>
        <time>2012-01-11T08:16:52.000Z</time>
      </trkpt>
      <trkpt lat="45.35722" lon="5.91372">
        <ele>1162.8000488281</ele>
        <time>2012-01-11T08:16:58.000Z</time>
      </trkpt>
      <trkpt lat="45.35722" lon="5.91362">
        <ele>1165.1999511719</ele>
        <time>2012-01-11T08:17:05.000Z</time>
      </trkpt>
      <trkpt lat="45.35723" lon="5.91356">
        <ele>1166.5999755859</ele>
        <time>2012-01-11T08:17:11.000Z</time>
      </trkpt>
      <trkpt lat="45.35724" lon="5.91347">
        <ele>1169.4000244141</ele>
        <time>2012-01-11T08:17:19.000Z</time>
      </trkpt>
      <trkpt lat="45.35726" lon="5.91339">
        <ele>1171</ele>
        <time>2012-01-11T08:17:27.000Z</time>
      </trkpt>
      <trkpt lat="45.35726" lon="5.9133">
        <ele>1172.4000244141</ele>
        <time>2012-01-11T08:17:34.000Z</time>
      </trkpt>
      <trkpt lat="45.35727" lon="5.91325">
        <ele>1173.4000244141</ele>
        <time>2012-01-11T08:17:39.000Z</time>
      </trkpt>
      <trkpt lat="45.35727" lon="5.91318">
        <ele>1174.1999511719</ele>
        <time>2012-01-11T08:17:47.000Z</time>
      </trkpt>
      <trkpt lat="45.35728" lon="5.91312">
        <ele>1176.1999511719</ele>
        <time>2012-01-11T08:17:54.000Z</time>
      </trkpt>
      <trkpt lat="45.35729" lon="5.91307">
        <ele>1176.5999755859</ele>
        <time>2012-01-11T08:18:01.000Z</time>
      </trkpt>
      <trkpt lat="45.35729" lon="5.91302">
        <ele>1177.1999511719</ele>
        <time>2012-01-11T08:18:06.000Z</time>
      </trkpt>
      <trkpt lat="45.3573" lon="5.91297">
        <ele>1178.5999755859</ele>
        <time>2012-01-11T08:18:11.000Z</time>
      </trkpt>
      <trkpt lat="45.3573" lon="5.91294">
        <ele>1179.5999755859</ele>
        <time>2012-01-11T08:18:15.000Z</time>
      </trkpt>
      <trkpt lat="45.35728" lon="5.91291">
        <ele>1179.5999755859</ele>
        <time>2012-01-11T08:18:20.000Z</time>
      </trkpt>
      <trkpt lat="45.35727" lon="5.91286">
        <ele>1180.5999755859</ele>
        <time>2012-01-11T08:18:25.000Z</time>
      </trkpt>
      <trkpt lat="45.35726" lon="5.91282">
        <ele>1180.5999755859</ele>
        <time>2012-01-11T08:18:29.000Z</time>
      </trkpt>
      <trkpt lat="45.35724" lon="5.91278">
        <ele>1181</ele>
        <time>2012-01-11T08:18:34.000Z</time>
      </trkpt>
      <trkpt lat="45.35723" lon="5.91273">
        <ele>1181.4000244141</ele>
        <time>2012-01-11T08:18:40.000Z</time>
      </trkpt>
      <trkpt lat="45.35722" lon="5.91268">
        <ele>1183</ele>
        <time>2012-01-11T08:18:47.000Z</time>
      </trkpt>
      <trkpt lat="45.35723" lon="5.91265">
        <ele>1185.4000244141</ele>
        <time>2012-01-11T08:18:51.000Z</time>
      </trkpt>
      <trkpt lat="45.35726" lon="5.91259">
        <ele>1186.8000488281</ele>
        <time>2012-01-11T08:18:58.000Z</time>
      </trkpt>
      <trkpt lat="45.35729" lon="5.91256">
        <ele>1187.1999511719</ele>
        <time>2012-01-11T08:19:04.000Z</time>
      </trkpt>
      <trkpt lat="45.3573" lon="5.91255">
        <ele>1187.1999511719</ele>
        <time>2012-01-11T08:19:13.000Z</time>
      </trkpt>
      <trkpt lat="45.35731" lon="5.91252">
        <ele>1188.1999511719</ele>
        <time>2012-01-11T08:19:17.000Z</time>
      </trkpt>
      <trkpt lat="45.35734" lon="5.9125">
        <ele>1188.1999511719</ele>
        <time>2012-01-11T08:19:23.000Z</time>
      </trkpt>
      <trkpt lat="45.35736" lon="5.91243">
        <ele>1190.1999511719</ele>
        <time>2012-01-11T08:19:31.000Z</time>
      </trkpt>
      <trkpt lat="45.35736" lon="5.91237">
        <ele>1191.5999755859</ele>
        <time>2012-01-11T08:19:38.000Z</time>
      </trkpt>
      <trkpt lat="45.35736" lon="5.91231">
        <ele>1192.5999755859</ele>
        <time>2012-01-11T08:19:45.000Z</time>
      </trkpt>
      <trkpt lat="45.35735" lon="5.91226">
        <ele>1193.5999755859</ele>
        <time>2012-01-11T08:19:52.000Z</time>
      </trkpt>
      <trkpt lat="45.35734" lon="5.91221">
        <ele>1193.5999755859</ele>
        <time>2012-01-11T08:19:56.000Z</time>
      </trkpt>
      <trkpt lat="45.35732" lon="5.91216">
        <ele>1194.4000244141</ele>
        <time>2012-01-11T08:20:01.000Z</time>
      </trkpt>
      <trkpt lat="45.35731" lon="5.91211">
        <ele>1195</ele>
        <time>2012-01-11T08:20:07.000Z</time>
      </trkpt>
      <trkpt lat="45.35731" lon="5.91206">
        <ele>1196.4000244141</ele>
        <time>2012-01-11T08:20:13.000Z</time>
      </trkpt>
      <trkpt lat="45.35731" lon="5.912">
        <ele>1199.1999511719</ele>
        <time>2012-01-11T08:20:19.000Z</time>
      </trkpt>
      <trkpt lat="45.35729" lon="5.91194">
        <ele>1199.8000488281</ele>
        <time>2012-01-11T08:20:25.000Z</time>
      </trkpt>
      <trkpt lat="45.35727" lon="5.91188">
        <ele>1201.5999755859</ele>
        <time>2012-01-11T08:20:32.000Z</time>
      </trkpt>
      <trkpt lat="45.35726" lon="5.91183">
        <ele>1203.1999511719</ele>
        <time>2012-01-11T08:20:37.000Z</time>
      </trkpt>
      <trkpt lat="45.35725" lon="5.91178">
        <ele>1203.5999755859</ele>
        <time>2012-01-11T08:20:42.000Z</time>
      </trkpt>
      <trkpt lat="45.35724" lon="5.91173">
        <ele>1205.5999755859</ele>
        <time>2012-01-11T08:20:48.000Z</time>
      </trkpt>
      <trkpt lat="45.35723" lon="5.91168">
        <ele>1206.4000244141</ele>
        <time>2012-01-11T08:20:53.000Z</time>
      </trkpt>
      <trkpt lat="45.35721" lon="5.91161">
        <ele>1208.4000244141</ele>
        <time>2012-01-11T08:21:00.000Z</time>
      </trkpt>
      <trkpt lat="45.3572" lon="5.91156">
        <ele>1209.4000244141</ele>
        <time>2012-01-11T08:21:06.000Z</time>
      </trkpt>
      <trkpt lat="45.35719" lon="5.91151">
        <ele>1210.8000488281</ele>
        <time>2012-01-11T08:21:11.000Z</time>
      </trkpt>
      <trkpt lat="45.35718" lon="5.91147">
        <ele>1212.1999511719</ele>
        <time>2012-01-11T08:21:16.000Z</time>
      </trkpt>
      <trkpt lat="45.35717" lon="5.91142">
        <ele>1212.8000488281</ele>
        <time>2012-01-11T08:21:22.000Z</time>
      </trkpt>
      <trkpt lat="45.35715" lon="5.91136">
        <ele>1214.1999511719</ele>
        <time>2012-01-11T08:21:28.000Z</time>
      </trkpt>
      <trkpt lat="45.35714" lon="5.9113">
        <ele>1215.5999755859</ele>
        <time>2012-01-11T08:21:34.000Z</time>
      </trkpt>
      <trkpt lat="45.35713" lon="5.91124">
        <ele>1216.1999511719</ele>
        <time>2012-01-11T08:21:40.000Z</time>
      </trkpt>
      <trkpt lat="45.35712" lon="5.91119">
        <ele>1216.5999755859</ele>
        <time>2012-01-11T08:21:46.000Z</time>
      </trkpt>
      <trkpt lat="45.35711" lon="5.91113">
        <ele>1217</ele>
        <time>2012-01-11T08:21:52.000Z</time>
      </trkpt>
      <trkpt lat="45.3571" lon="5.91108">
        <ele>1218</ele>
        <time>2012-01-11T08:21:58.000Z</time>
      </trkpt>
      <trkpt lat="45.35709" lon="5.91101">
        <ele>1220.4000244141</ele>
        <time>2012-01-11T08:22:05.000Z</time>
      </trkpt>
      <trkpt lat="45.35708" lon="5.91096">
        <ele>1221.8000488281</ele>
        <time>2012-01-11T08:22:11.000Z</time>
      </trkpt>
      <trkpt lat="45.35707" lon="5.91091">
        <ele>1223.4000244141</ele>
        <time>2012-01-11T08:22:17.000Z</time>
      </trkpt>
      <trkpt lat="45.35706" lon="5.91086">
        <ele>1224.1999511719</ele>
        <time>2012-01-11T08:22:23.000Z</time>
      </trkpt>
      <trkpt lat="45.35705" lon="5.91079">
        <ele>1226.1999511719</ele>
        <time>2012-01-11T08:22:29.000Z</time>
      </trkpt>
      <trkpt lat="45.35704" lon="5.91073">
        <ele>1227.5999755859</ele>
        <time>2012-01-11T08:22:35.000Z</time>
      </trkpt>
      <trkpt lat="45.35703" lon="5.91065">
        <ele>1230</ele>
        <time>2012-01-11T08:22:41.000Z</time>
      </trkpt>
      <trkpt lat="45.35703" lon="5.91056">
        <ele>1232</ele>
        <time>2012-01-11T08:22:47.000Z</time>
      </trkpt>
      <trkpt lat="45.35701" lon="5.91048">
        <ele>1234.4000244141</ele>
        <time>2012-01-11T08:22:54.000Z</time>
      </trkpt>
      <trkpt lat="45.35698" lon="5.9104">
        <ele>1236.1999511719</ele>
        <time>2012-01-11T08:23:01.000Z</time>
      </trkpt>
      <trkpt lat="45.35696" lon="5.91033">
        <ele>1237.1999511719</ele>
        <time>2012-01-11T08:23:08.000Z</time>
      </trkpt>
      <trkpt lat="45.35694" lon="5.91028">
        <ele>1238.1999511719</ele>
        <time>2012-01-11T08:23:13.000Z</time>
      </trkpt>
      <trkpt lat="45.35692" lon="5.91023">
        <ele>1238.5999755859</ele>
        <time>2012-01-11T08:23:19.000Z</time>
      </trkpt>
      <trkpt lat="45.3569" lon="5.91019">
        <ele>1239.5999755859</ele>
        <time>2012-01-11T08:23:24.000Z</time>
      </trkpt>
      <trkpt lat="45.35687" lon="5.91014">
        <ele>1241</ele>
        <time>2012-01-11T08:23:30.000Z</time>
      </trkpt>
      <trkpt lat="45.35685" lon="5.9101">
        <ele>1242.5999755859</ele>
        <time>2012-01-11T08:23:36.000Z</time>
      </trkpt>
      <trkpt lat="45.35682" lon="5.91004">
        <ele>1244</ele>
        <time>2012-01-11T08:23:43.000Z</time>
      </trkpt>
      <trkpt lat="45.35679" lon="5.91001">
        <ele>1244.4000244141</ele>
        <time>2012-01-11T08:23:46.000Z</time>
      </trkpt>
      <trkpt lat="45.35678" lon="5.90996">
        <ele>1245.4000244141</ele>
        <time>2012-01-11T08:23:51.000Z</time>
      </trkpt>
      <trkpt lat="45.35676" lon="5.9099">
        <ele>1246.8000488281</ele>
        <time>2012-01-11T08:23:56.000Z</time>
      </trkpt>
      <trkpt lat="45.35675" lon="5.90988">
        <ele>1247.4000244141</ele>
        <time>2012-01-11T08:24:02.000Z</time>
      </trkpt>
      <trkpt lat="45.35674" lon="5.90982">
        <ele>1249.1999511719</ele>
        <time>2012-01-11T08:24:09.000Z</time>
      </trkpt>
      <trkpt lat="45.35673" lon="5.90978">
        <ele>1250.8000488281</ele>
        <time>2012-01-11T08:24:13.000Z</time>
      </trkpt>
      <trkpt lat="45.35673" lon="5.90971">
        <ele>1252.1999511719</ele>
        <time>2012-01-11T08:24:19.000Z</time>
      </trkpt>
      <trkpt lat="45.35673" lon="5.90967">
        <ele>1252.5999755859</ele>
        <time>2012-01-11T08:24:24.000Z</time>
      </trkpt>
      <trkpt lat="45.35673" lon="5.90962">
        <ele>1254.5999755859</ele>
        <time>2012-01-11T08:24:28.000Z</time>
      </trkpt>
      <trkpt lat="45.35673" lon="5.90959">
        <ele>1257</ele>
        <time>2012-01-11T08:24:32.000Z</time>
      </trkpt>
      <trkpt lat="45.35674" lon="5.90954">
        <ele>1257</ele>
        <time>2012-01-11T08:24:38.000Z</time>
      </trkpt>
      <trkpt lat="45.35675" lon="5.90949">
        <ele>1258</ele>
        <time>2012-01-11T08:24:43.000Z</time>
      </trkpt>
      <trkpt lat="45.35676" lon="5.90944">
        <ele>1258.4000244141</ele>
        <time>2012-01-11T08:24:49.000Z</time>
      </trkpt>
      <trkpt lat="45.35677" lon="5.90938">
        <ele>1259.4000244141</ele>
        <time>2012-01-11T08:24:55.000Z</time>
      </trkpt>
      <trkpt lat="45.35678" lon="5.90932">
        <ele>1260.8000488281</ele>
        <time>2012-01-11T08:25:02.000Z</time>
      </trkpt>
      <trkpt lat="45.35679" lon="5.90926">
        <ele>1261.1999511719</ele>
        <time>2012-01-11T08:25:08.000Z</time>
      </trkpt>
      <trkpt lat="45.3568" lon="5.90921">
        <ele>1261.8000488281</ele>
        <time>2012-01-11T08:25:14.000Z</time>
      </trkpt>
      <trkpt lat="45.35682" lon="5.90914">
        <ele>1262.8000488281</ele>
        <time>2012-01-11T08:25:21.000Z</time>
      </trkpt>
      <trkpt lat="45.35683" lon="5.90908">
        <ele>1264.5999755859</ele>
        <time>2012-01-11T08:25:27.000Z</time>
      </trkpt>
      <trkpt lat="45.35684" lon="5.90904">
        <ele>1266</ele>
        <time>2012-01-11T08:25:32.000Z</time>
      </trkpt>
      <trkpt lat="45.35685" lon="5.90897">
        <ele>1267.5999755859</ele>
        <time>2012-01-11T08:25:39.000Z</time>
      </trkpt>
      <trkpt lat="45.35687" lon="5.90892">
        <ele>1269.4000244141</ele>
        <time>2012-01-11T08:25:45.000Z</time>
      </trkpt>
      <trkpt lat="45.35688" lon="5.90888">
        <ele>1270</ele>
        <time>2012-01-11T08:25:50.000Z</time>
      </trkpt>
      <trkpt lat="45.35689" lon="5.90882">
        <ele>1271.4000244141</ele>
        <time>2012-01-11T08:25:57.000Z</time>
      </trkpt>
      <trkpt lat="45.3569" lon="5.90877">
        <ele>1272.4000244141</ele>
        <time>2012-01-11T08:26:03.000Z</time>
      </trkpt>
      <trkpt lat="45.35691" lon="5.90874">
        <ele>1273.4000244141</ele>
        <time>2012-01-11T08:26:09.000Z</time>
      </trkpt>
      <trkpt lat="45.35692" lon="5.90874">
        <ele>1273.4000244141</ele>
        <time>2012-01-11T08:26:15.000Z</time>
      </trkpt>
      <trkpt lat="45.35693" lon="5.90873">
        <ele>1272.8000488281</ele>
        <time>2012-01-11T08:26:26.000Z</time>
      </trkpt>
      <trkpt lat="45.35695" lon="5.90872">
        <ele>1273.4000244141</ele>
        <time>2012-01-11T08:26:31.000Z</time>
      </trkpt>
      <trkpt lat="45.35694" lon="5.90873">
        <ele>1273.4000244141</ele>
        <time>2012-01-11T08:26:50.000Z</time>
      </trkpt>
      <trkpt lat="45.35694" lon="5.90873">
        <ele>1273.4000244141</ele>
        <time>2012-01-11T08:26:55.000Z</time>
      </trkpt>
      <trkpt lat="45.35694" lon="5.90873">
        <ele>1273.4000244141</ele>
        <time>2012-01-11T08:27:01.000Z</time>
      </trkpt>
      <trkpt lat="45.35694" lon="5.90873">
        <ele>1273.4000244141</ele>
        <time>2012-01-11T08:27:04.000Z</time>
      </trkpt>
      <trkpt lat="45.35694" lon="5.90873">
        <ele>1273.8000488281</ele>
        <time>2012-01-11T08:27:09.000Z</time>
      </trkpt>
      <trkpt lat="45.35694" lon="5.90873">
        <ele>1272.4000244141</ele>
        <time>2012-01-11T08:27:20.000Z</time>
      </trkpt>
      <trkpt lat="45.35694" lon="5.90873">
        <ele>1271.8000488281</ele>
        <time>2012-01-11T08:27:23.000Z</time>
      </trkpt>
      <trkpt lat="45.35694" lon="5.90873">
        <ele>1271.4000244141</ele>
        <time>2012-01-11T08:27:24.000Z</time>
      </trkpt>
      <trkpt lat="45.35694" lon="5.90874">
        <ele>1271</ele>
        <time>2012-01-11T08:27:27.000Z</time>
      </trkpt>
      <trkpt lat="45.35694" lon="5.90878">
        <ele>1270</ele>
        <time>2012-01-11T08:27:31.000Z</time>
      </trkpt>
      <trkpt lat="45.35692" lon="5.90877">
        <ele>1269</ele>
        <time>2012-01-11T08:27:38.000Z</time>
      </trkpt>
      <trkpt lat="45.35691" lon="5.90876">
        <ele>1270</ele>
        <time>2012-01-11T08:27:39.000Z</time>
      </trkpt>
      <trkpt lat="45.35693" lon="5.9087">
        <ele>1269.4000244141</ele>
        <time>2012-01-11T08:27:43.000Z</time>
      </trkpt>
      <trkpt lat="45.35694" lon="5.90871">
        <ele>1266.5999755859</ele>
        <time>2012-01-11T08:28:01.000Z</time>
      </trkpt>
      <trkpt lat="45.35694" lon="5.90872">
        <ele>1266.5999755859</ele>
        <time>2012-01-11T08:28:15.000Z</time>
      </trkpt>
      <trkpt lat="45.35694" lon="5.90873">
        <ele>1268.4000244141</ele>
        <time>2012-01-11T08:28:23.000Z</time>
      </trkpt>
      <trkpt lat="45.35693" lon="5.90873">
        <ele>1271</ele>
        <time>2012-01-11T08:28:33.000Z</time>
      </trkpt>
      <trkpt lat="45.35693" lon="5.90873">
        <ele>1271</ele>
        <time>2012-01-11T08:28:42.000Z</time>
      </trkpt>
      <trkpt lat="45.35694" lon="5.90873">
        <ele>1271.4000244141</ele>
        <time>2012-01-11T08:28:57.000Z</time>
      </trkpt>
      <trkpt lat="45.35694" lon="5.90872">
        <ele>1273.8000488281</ele>
        <time>2012-01-11T08:29:03.000Z</time>
      </trkpt>
      <trkpt lat="45.35694" lon="5.90873">
        <ele>1274.8000488281</ele>
        <time>2012-01-11T08:29:10.000Z</time>
      </trkpt>
      <trkpt lat="45.35695" lon="5.90873">
        <ele>1274.8000488281</ele>
        <time>2012-01-11T08:29:25.000Z</time>
      </trkpt>
      <trkpt lat="45.35694" lon="5.90872">
        <ele>1273.8000488281</ele>
        <time>2012-01-11T08:29:42.000Z</time>
      </trkpt>
      <trkpt lat="45.35698" lon="5.90871">
        <ele>1273.8000488281</ele>
        <time>2012-01-11T08:29:49.000Z</time>
      </trkpt>
      <trkpt lat="45.35701" lon="5.9087">
        <ele>1274.1999511719</ele>
        <time>2012-01-11T08:29:55.000Z</time>
      </trkpt>
      <trkpt lat="45.35704" lon="5.9087">
        <ele>1274.1999511719</ele>
        <time>2012-01-11T08:29:59.000Z</time>
      </trkpt>
      <trkpt lat="45.35708" lon="5.90869">
        <ele>1274.8000488281</ele>
        <time>2012-01-11T08:30:03.000Z</time>
      </trkpt>
      <trkpt lat="45.35712" lon="5.90869">
        <ele>1274.8000488281</ele>
        <time>2012-01-11T08:30:10.000Z</time>
      </trkpt>
      <trkpt lat="45.35716" lon="5.90868">
        <ele>1275.8000488281</ele>
        <time>2012-01-11T08:30:15.000Z</time>
      </trkpt>
      <trkpt lat="45.35719" lon="5.90868">
        <ele>1276.5999755859</ele>
        <time>2012-01-11T08:30:20.000Z</time>
      </trkpt>
      <trkpt lat="45.35722" lon="5.90867">
        <ele>1277.1999511719</ele>
        <time>2012-01-11T08:30:24.000Z</time>
      </trkpt>
      <trkpt lat="45.35726" lon="5.90867">
        <ele>1278.1999511719</ele>
        <time>2012-01-11T08:30:29.000Z</time>
      </trkpt>
      <trkpt lat="45.3573" lon="5.90866">
        <ele>1279</ele>
        <time>2012-01-11T08:30:33.000Z</time>
      </trkpt>
      <trkpt lat="45.35732" lon="5.90868">
        <ele>1281.4000244141</ele>
        <time>2012-01-11T08:30:39.000Z</time>
      </trkpt>
      <trkpt lat="45.35735" lon="5.90869">
        <ele>1282</ele>
        <time>2012-01-11T08:30:44.000Z</time>
      </trkpt>
      <trkpt lat="45.35738" lon="5.9087">
        <ele>1283.4000244141</ele>
        <time>2012-01-11T08:30:49.000Z</time>
      </trkpt>
      <trkpt lat="45.3574" lon="5.90872">
        <ele>1284.4000244141</ele>
        <time>2012-01-11T08:30:54.000Z</time>
      </trkpt>
      <trkpt lat="45.35744" lon="5.90872">
        <ele>1285.4000244141</ele>
        <time>2012-01-11T08:30:59.000Z</time>
      </trkpt>
      <trkpt lat="45.35748" lon="5.90873">
        <ele>1286.1999511719</ele>
        <time>2012-01-11T08:31:05.000Z</time>
      </trkpt>
      <trkpt lat="45.35751" lon="5.90874">
        <ele>1287.8000488281</ele>
        <time>2012-01-11T08:31:10.000Z</time>
      </trkpt>
      <trkpt lat="45.35755" lon="5.90875">
        <ele>1287.8000488281</ele>
        <time>2012-01-11T08:31:16.000Z</time>
      </trkpt>
      <trkpt lat="45.3576" lon="5.90878">
        <ele>1288.5999755859</ele>
        <time>2012-01-11T08:31:22.000Z</time>
      </trkpt>
      <trkpt lat="45.35765" lon="5.90881">
        <ele>1289.5999755859</ele>
        <time>2012-01-11T08:31:28.000Z</time>
      </trkpt>
      <trkpt lat="45.35769" lon="5.90884">
        <ele>1290.5999755859</ele>
        <time>2012-01-11T08:31:35.000Z</time>
      </trkpt>
      <trkpt lat="45.35773" lon="5.90883">
        <ele>1291</ele>
        <time>2012-01-11T08:31:41.000Z</time>
      </trkpt>
      <trkpt lat="45.35775" lon="5.90883">
        <ele>1292</ele>
        <time>2012-01-11T08:31:45.000Z</time>
      </trkpt>
      <trkpt lat="45.35777" lon="5.90884">
        <ele>1293</ele>
        <time>2012-01-11T08:31:49.000Z</time>
      </trkpt>
      <trkpt lat="45.3578" lon="5.90884">
        <ele>1294</ele>
        <time>2012-01-11T08:31:54.000Z</time>
      </trkpt>
      <trkpt lat="45.35785" lon="5.90886">
        <ele>1295</ele>
        <time>2012-01-11T08:32:00.000Z</time>
      </trkpt>
      <trkpt lat="45.35787" lon="5.90888">
        <ele>1294.4000244141</ele>
        <time>2012-01-11T08:32:04.000Z</time>
      </trkpt>
      <trkpt lat="45.35792" lon="5.9089">
        <ele>1294.4000244141</ele>
        <time>2012-01-11T08:32:08.000Z</time>
      </trkpt>
      <trkpt lat="45.35796" lon="5.90893">
        <ele>1295</ele>
        <time>2012-01-11T08:32:12.000Z</time>
      </trkpt>
      <trkpt lat="45.358" lon="5.90896">
        <ele>1295</ele>
        <time>2012-01-11T08:32:17.000Z</time>
      </trkpt>
      <trkpt lat="45.35804" lon="5.90898">
        <ele>1295.8000488281</ele>
        <time>2012-01-11T08:32:23.000Z</time>
      </trkpt>
      <trkpt lat="45.35807" lon="5.90897">
        <ele>1296.4000244141</ele>
        <time>2012-01-11T08:32:27.000Z</time>
      </trkpt>
      <trkpt lat="45.35808" lon="5.90895">
        <ele>1297.4000244141</ele>
        <time>2012-01-11T08:32:31.000Z</time>
      </trkpt>
      <trkpt lat="45.35809" lon="5.90893">
        <ele>1297.8000488281</ele>
        <time>2012-01-11T08:32:37.000Z</time>
      </trkpt>
      <trkpt lat="45.35809" lon="5.9089">
        <ele>1298.1999511719</ele>
        <time>2012-01-11T08:32:41.000Z</time>
      </trkpt>
      <trkpt lat="45.35808" lon="5.90886">
        <ele>1299.1999511719</ele>
        <time>2012-01-11T08:32:45.000Z</time>
      </trkpt>
      <trkpt lat="45.35807" lon="5.90882">
        <ele>1299.8000488281</ele>
        <time>2012-01-11T08:32:50.000Z</time>
      </trkpt>
      <trkpt lat="45.35806" lon="5.90878">
        <ele>1299.8000488281</ele>
        <time>2012-01-11T08:32:54.000Z</time>
      </trkpt>
      <trkpt lat="45.35806" lon="5.90875">
        <ele>1299.8000488281</ele>
        <time>2012-01-11T08:32:58.000Z</time>
      </trkpt>
      <trkpt lat="45.35805" lon="5.90872">
        <ele>1300.1999511719</ele>
        <time>2012-01-11T08:33:02.000Z</time>
      </trkpt>
      <trkpt lat="45.35804" lon="5.90868">
        <ele>1300.8000488281</ele>
        <time>2012-01-11T08:33:06.000Z</time>
      </trkpt>
      <trkpt lat="45.35804" lon="5.90866">
        <ele>1300.8000488281</ele>
        <time>2012-01-11T08:33:10.000Z</time>
      </trkpt>
      <trkpt lat="45.35804" lon="5.90861">
        <ele>1302.1999511719</ele>
        <time>2012-01-11T08:33:15.000Z</time>
      </trkpt>
      <trkpt lat="45.35805" lon="5.90856">
        <ele>1303.5999755859</ele>
        <time>2012-01-11T08:33:19.000Z</time>
      </trkpt>
      <trkpt lat="45.35804" lon="5.90851">
        <ele>1305.5999755859</ele>
        <time>2012-01-11T08:33:25.000Z</time>
      </trkpt>
      <trkpt lat="45.35803" lon="5.90846">
        <ele>1308</ele>
        <time>2012-01-11T08:33:32.000Z</time>
      </trkpt>
      <trkpt lat="45.35803" lon="5.90842">
        <ele>1308.4000244141</ele>
        <time>2012-01-11T08:33:39.000Z</time>
      </trkpt>
      <trkpt lat="45.35803" lon="5.90839">
        <ele>1308.8000488281</ele>
        <time>2012-01-11T08:33:43.000Z</time>
      </trkpt>
      <trkpt lat="45.35803" lon="5.90834">
        <ele>1309.4000244141</ele>
        <time>2012-01-11T08:33:49.000Z</time>
      </trkpt>
      <trkpt lat="45.35804" lon="5.90829">
        <ele>1310.8000488281</ele>
        <time>2012-01-11T08:33:55.000Z</time>
      </trkpt>
      <trkpt lat="45.35804" lon="5.90825">
        <ele>1311.8000488281</ele>
        <time>2012-01-11T08:34:00.000Z</time>
      </trkpt>
      <trkpt lat="45.35803" lon="5.9082">
        <ele>1313.5999755859</ele>
        <time>2012-01-11T08:34:06.000Z</time>
      </trkpt>
      <trkpt lat="45.35804" lon="5.90817">
        <ele>1314.5999755859</ele>
        <time>2012-01-11T08:34:10.000Z</time>
      </trkpt>
      <trkpt lat="45.35804" lon="5.90812">
        <ele>1317</ele>
        <time>2012-01-11T08:34:17.000Z</time>
      </trkpt>
      <trkpt lat="45.35805" lon="5.90809">
        <ele>1317.5999755859</ele>
        <time>2012-01-11T08:34:22.000Z</time>
      </trkpt>
      <trkpt lat="45.35804" lon="5.90804">
        <ele>1319.4000244141</ele>
        <time>2012-01-11T08:34:29.000Z</time>
      </trkpt>
      <trkpt lat="45.35803" lon="5.908">
        <ele>1320.4000244141</ele>
        <time>2012-01-11T08:34:36.000Z</time>
      </trkpt>
      <trkpt lat="45.35803" lon="5.90798">
        <ele>1320.8000488281</ele>
        <time>2012-01-11T08:34:41.000Z</time>
      </trkpt>
      <trkpt lat="45.35804" lon="5.90795">
        <ele>1321.4000244141</ele>
        <time>2012-01-11T08:34:46.000Z</time>
      </trkpt>
      <trkpt lat="45.35806" lon="5.90792">
        <ele>1322.4000244141</ele>
        <time>2012-01-11T08:34:51.000Z</time>
      </trkpt>
      <trkpt lat="45.35807" lon="5.9079">
        <ele>1323.8000488281</ele>
        <time>2012-01-11T08:34:56.000Z</time>
      </trkpt>
      <trkpt lat="45.35808" lon="5.90787">
        <ele>1325.1999511719</ele>
        <time>2012-01-11T08:35:03.000Z</time>
      </trkpt>
      <trkpt lat="45.35808" lon="5.90782">
        <ele>1325.5999755859</ele>
        <time>2012-01-11T08:35:11.000Z</time>
      </trkpt>
      <trkpt lat="45.35807" lon="5.9078">
        <ele>1326.1999511719</ele>
        <time>2012-01-11T08:35:16.000Z</time>
      </trkpt>
      <trkpt lat="45.35805" lon="5.90778">
        <ele>1328</ele>
        <time>2012-01-11T08:35:20.000Z</time>
      </trkpt>
      <trkpt lat="45.35804" lon="5.90776">
        <ele>1329</ele>
        <time>2012-01-11T08:35:24.000Z</time>
      </trkpt>
      <trkpt lat="45.35802" lon="5.90774">
        <ele>1329.5999755859</ele>
        <time>2012-01-11T08:35:28.000Z</time>
      </trkpt>
      <trkpt lat="45.358" lon="5.9077">
        <ele>1330.5999755859</ele>
        <time>2012-01-11T08:35:34.000Z</time>
      </trkpt>
      <trkpt lat="45.35797" lon="5.90768">
        <ele>1329.5999755859</ele>
        <time>2012-01-11T08:35:38.000Z</time>
      </trkpt>
      <trkpt lat="45.35792" lon="5.90766">
        <ele>1329.5999755859</ele>
        <time>2012-01-11T08:35:43.000Z</time>
      </trkpt>
      <trkpt lat="45.35788" lon="5.90762">
        <ele>1329.5999755859</ele>
        <time>2012-01-11T08:35:48.000Z</time>
      </trkpt>
      <trkpt lat="45.35786" lon="5.9076">
        <ele>1329</ele>
        <time>2012-01-11T08:35:50.000Z</time>
      </trkpt>
      <trkpt lat="45.35782" lon="5.90758">
        <ele>1329</ele>
        <time>2012-01-11T08:35:54.000Z</time>
      </trkpt>
      <trkpt lat="45.3578" lon="5.90757">
        <ele>1328.5999755859</ele>
        <time>2012-01-11T08:35:58.000Z</time>
      </trkpt>
      <trkpt lat="45.35776" lon="5.90753">
        <ele>1330.5999755859</ele>
        <time>2012-01-11T08:36:03.000Z</time>
      </trkpt>
      <trkpt lat="45.35771" lon="5.90748">
        <ele>1332</ele>
        <time>2012-01-11T08:36:09.000Z</time>
      </trkpt>
      <trkpt lat="45.35769" lon="5.90744">
        <ele>1333</ele>
        <time>2012-01-11T08:36:14.000Z</time>
      </trkpt>
      <trkpt lat="45.35767" lon="5.90742">
        <ele>1334.4000244141</ele>
        <time>2012-01-11T08:36:18.000Z</time>
      </trkpt>
      <trkpt lat="45.35766" lon="5.90739">
        <ele>1336.8000488281</ele>
        <time>2012-01-11T08:36:22.000Z</time>
      </trkpt>
      <trkpt lat="45.35765" lon="5.90736">
        <ele>1336.8000488281</ele>
        <time>2012-01-11T08:36:25.000Z</time>
      </trkpt>
      <trkpt lat="45.35763" lon="5.90733">
        <ele>1339.1999511719</ele>
        <time>2012-01-11T08:36:31.000Z</time>
      </trkpt>
      <trkpt lat="45.3576" lon="5.90729">
        <ele>1341.5999755859</ele>
        <time>2012-01-11T08:36:36.000Z</time>
      </trkpt>
      <trkpt lat="45.35759" lon="5.90725">
        <ele>1343.4000244141</ele>
        <time>2012-01-11T08:36:42.000Z</time>
      </trkpt>
      <trkpt lat="45.35757" lon="5.90721">
        <ele>1345</ele>
        <time>2012-01-11T08:36:47.000Z</time>
      </trkpt>
      <trkpt lat="45.35755" lon="5.90718">
        <ele>1345.4000244141</ele>
        <time>2012-01-11T08:36:51.000Z</time>
      </trkpt>
      <trkpt lat="45.35752" lon="5.90714">
        <ele>1346.8000488281</ele>
        <time>2012-01-11T08:36:56.000Z</time>
      </trkpt>
      <trkpt lat="45.35749" lon="5.9071">
        <ele>1346.8000488281</ele>
        <time>2012-01-11T08:37:02.000Z</time>
      </trkpt>
      <trkpt lat="45.35746" lon="5.90708">
        <ele>1348.1999511719</ele>
        <time>2012-01-11T08:37:15.000Z</time>
      </trkpt>
      <trkpt lat="45.35743" lon="5.90702">
        <ele>1348.8000488281</ele>
        <time>2012-01-11T08:37:22.000Z</time>
      </trkpt>
      <trkpt lat="45.35739" lon="5.90696">
        <ele>1348.1999511719</ele>
        <time>2012-01-11T08:37:28.000Z</time>
      </trkpt>
      <trkpt lat="45.35735" lon="5.90689">
        <ele>1348.1999511719</ele>
        <time>2012-01-11T08:37:35.000Z</time>
      </trkpt>
      <trkpt lat="45.35733" lon="5.90685">
        <ele>1348.1999511719</ele>
        <time>2012-01-11T08:37:40.000Z</time>
      </trkpt>
      <trkpt lat="45.35733" lon="5.90678">
        <ele>1350.5999755859</ele>
        <time>2012-01-11T08:37:46.000Z</time>
      </trkpt>
      <trkpt lat="45.35734" lon="5.90673">
        <ele>1352.5999755859</ele>
        <time>2012-01-11T08:37:51.000Z</time>
      </trkpt>
      <trkpt lat="45.35732" lon="5.9067">
        <ele>1354</ele>
        <time>2012-01-11T08:37:57.000Z</time>
      </trkpt>
      <trkpt lat="45.35729" lon="5.90668">
        <ele>1355.4000244141</ele>
        <time>2012-01-11T08:38:03.000Z</time>
      </trkpt>
      <trkpt lat="45.35727" lon="5.90664">
        <ele>1357</ele>
        <time>2012-01-11T08:38:08.000Z</time>
      </trkpt>
      <trkpt lat="45.35727" lon="5.9066">
        <ele>1359.8000488281</ele>
        <time>2012-01-11T08:38:15.000Z</time>
      </trkpt>
      <trkpt lat="45.35726" lon="5.9066">
        <ele>1360.4000244141</ele>
        <time>2012-01-11T08:38:22.000Z</time>
      </trkpt>
      <trkpt lat="45.35726" lon="5.90655">
        <ele>1360.8000488281</ele>
        <time>2012-01-11T08:38:47.000Z</time>
      </trkpt>
      <trkpt lat="45.35723" lon="5.90649">
        <ele>1360.4000244141</ele>
        <time>2012-01-11T08:38:53.000Z</time>
      </trkpt>
      <trkpt lat="45.35721" lon="5.90642">
        <ele>1360.4000244141</ele>
        <time>2012-01-11T08:38:59.000Z</time>
      </trkpt>
      <trkpt lat="45.35721" lon="5.90638">
        <ele>1360.4000244141</ele>
        <time>2012-01-11T08:39:03.000Z</time>
      </trkpt>
      <trkpt lat="45.3572" lon="5.90634">
        <ele>1360.8000488281</ele>
        <time>2012-01-11T08:39:07.000Z</time>
      </trkpt>
      <trkpt lat="45.35719" lon="5.9063">
        <ele>1362.1999511719</ele>
        <time>2012-01-11T08:39:11.000Z</time>
      </trkpt>
      <trkpt lat="45.35717" lon="5.90625">
        <ele>1363.1999511719</ele>
        <time>2012-01-11T08:39:17.000Z</time>
      </trkpt>
      <trkpt lat="45.35715" lon="5.90619">
        <ele>1363.1999511719</ele>
        <time>2012-01-11T08:39:23.000Z</time>
      </trkpt>
      <trkpt lat="45.35712" lon="5.90614">
        <ele>1365.1999511719</ele>
        <time>2012-01-11T08:39:30.000Z</time>
      </trkpt>
      <trkpt lat="45.35711" lon="5.90611">
        <ele>1365.5999755859</ele>
        <time>2012-01-11T08:39:34.000Z</time>
      </trkpt>
      <trkpt lat="45.35709" lon="5.90606">
        <ele>1366</ele>
        <time>2012-01-11T08:39:40.000Z</time>
      </trkpt>
      <trkpt lat="45.35707" lon="5.90603">
        <ele>1365.5999755859</ele>
        <time>2012-01-11T08:39:45.000Z</time>
      </trkpt>
      <trkpt lat="45.35703" lon="5.90599">
        <ele>1366</ele>
        <time>2012-01-11T08:39:50.000Z</time>
      </trkpt>
      <trkpt lat="45.357" lon="5.90597">
        <ele>1367.5999755859</ele>
        <time>2012-01-11T08:39:56.000Z</time>
      </trkpt>
      <trkpt lat="45.35698" lon="5.90595">
        <ele>1368.4000244141</ele>
        <time>2012-01-11T08:40:00.000Z</time>
      </trkpt>
      <trkpt lat="45.35698" lon="5.90595">
        <ele>1369.4000244141</ele>
        <time>2012-01-11T08:40:01.000Z</time>
      </trkpt>
      <trkpt lat="45.35694" lon="5.90593">
        <ele>1369.4000244141</ele>
        <time>2012-01-11T08:40:06.000Z</time>
      </trkpt>
      <trkpt lat="45.35691" lon="5.9059">
        <ele>1370.4000244141</ele>
        <time>2012-01-11T08:40:12.000Z</time>
      </trkpt>
      <trkpt lat="45.35689" lon="5.90587">
        <ele>1372.4000244141</ele>
        <time>2012-01-11T08:40:16.000Z</time>
      </trkpt>
      <trkpt lat="45.35686" lon="5.90584">
        <ele>1373.1999511719</ele>
        <time>2012-01-11T08:40:21.000Z</time>
      </trkpt>
      <trkpt lat="45.35684" lon="5.90582">
        <ele>1373.8000488281</ele>
        <time>2012-01-11T08:40:25.000Z</time>
      </trkpt>
      <trkpt lat="45.35682" lon="5.90578">
        <ele>1373.8000488281</ele>
        <time>2012-01-11T08:40:31.000Z</time>
      </trkpt>
      <trkpt lat="45.35679" lon="5.90573">
        <ele>1374.8000488281</ele>
        <time>2012-01-11T08:40:36.000Z</time>
      </trkpt>
      <trkpt lat="45.35678" lon="5.90568">
        <ele>1375.1999511719</ele>
        <time>2012-01-11T08:40:40.000Z</time>
      </trkpt>
      <trkpt lat="45.35675" lon="5.90563">
        <ele>1376.1999511719</ele>
        <time>2012-01-11T08:40:45.000Z</time>
      </trkpt>
      <trkpt lat="45.35672" lon="5.9056">
        <ele>1376.5999755859</ele>
        <time>2012-01-11T08:40:51.000Z</time>
      </trkpt>
      <trkpt lat="45.35669" lon="5.90556">
        <ele>1377.1999511719</ele>
        <time>2012-01-11T08:40:56.000Z</time>
      </trkpt>
      <trkpt lat="45.35667" lon="5.9055">
        <ele>1377.5999755859</ele>
        <time>2012-01-11T08:41:02.000Z</time>
      </trkpt>
      <trkpt lat="45.35667" lon="5.90545">
        <ele>1378.5999755859</ele>
        <time>2012-01-11T08:41:09.000Z</time>
      </trkpt>
      <trkpt lat="45.35665" lon="5.90542">
        <ele>1379.5999755859</ele>
        <time>2012-01-11T08:41:13.000Z</time>
      </trkpt>
      <trkpt lat="45.35664" lon="5.90538">
        <ele>1381</ele>
        <time>2012-01-11T08:41:18.000Z</time>
      </trkpt>
      <trkpt lat="45.35663" lon="5.90533">
        <ele>1382</ele>
        <time>2012-01-11T08:41:22.000Z</time>
      </trkpt>
      <trkpt lat="45.35662" lon="5.90529">
        <ele>1383.8000488281</ele>
        <time>2012-01-11T08:41:27.000Z</time>
      </trkpt>
      <trkpt lat="45.35661" lon="5.90522">
        <ele>1384.4000244141</ele>
        <time>2012-01-11T08:41:32.000Z</time>
      </trkpt>
      <trkpt lat="45.35659" lon="5.90519">
        <ele>1387.1999511719</ele>
        <time>2012-01-11T08:41:38.000Z</time>
      </trkpt>
      <trkpt lat="45.35656" lon="5.9052">
        <ele>1389.5999755859</ele>
        <time>2012-01-11T08:41:44.000Z</time>
      </trkpt>
      <trkpt lat="45.35655" lon="5.90515">
        <ele>1390.1999511719</ele>
        <time>2012-01-11T08:41:48.000Z</time>
      </trkpt>
      <trkpt lat="45.35654" lon="5.9051">
        <ele>1390.1999511719</ele>
        <time>2012-01-11T08:41:53.000Z</time>
      </trkpt>
      <trkpt lat="45.35651" lon="5.90502">
        <ele>1390.5999755859</ele>
        <time>2012-01-11T08:42:01.000Z</time>
      </trkpt>
      <trkpt lat="45.35652" lon="5.90498">
        <ele>1390.5999755859</ele>
        <time>2012-01-11T08:42:07.000Z</time>
      </trkpt>
      <trkpt lat="45.3565" lon="5.9049">
        <ele>1390.5999755859</ele>
        <time>2012-01-11T08:42:14.000Z</time>
      </trkpt>
      <trkpt lat="45.35649" lon="5.90484">
        <ele>1391</ele>
        <time>2012-01-11T08:42:21.000Z</time>
      </trkpt>
      <trkpt lat="45.35648" lon="5.90477">
        <ele>1390.5999755859</ele>
        <time>2012-01-11T08:42:27.000Z</time>
      </trkpt>
      <trkpt lat="45.35647" lon="5.9047">
        <ele>1393</ele>
        <time>2012-01-11T08:42:33.000Z</time>
      </trkpt>
      <trkpt lat="45.35647" lon="5.90467">
        <ele>1396.8000488281</ele>
        <time>2012-01-11T08:42:38.000Z</time>
      </trkpt>
      <trkpt lat="45.35643" lon="5.9046">
        <ele>1400.1999511719</ele>
        <time>2012-01-11T08:42:44.000Z</time>
      </trkpt>
      <trkpt lat="45.35642" lon="5.90454">
        <ele>1400.5999755859</ele>
        <time>2012-01-11T08:42:50.000Z</time>
      </trkpt>
      <trkpt lat="45.3564" lon="5.90454">
        <ele>1402.1999511719</ele>
        <time>2012-01-11T08:42:54.000Z</time>
      </trkpt>
      <trkpt lat="45.3564" lon="5.90449">
        <ele>1401.5999755859</ele>
        <time>2012-01-11T08:42:59.000Z</time>
      </trkpt>
      <trkpt lat="45.35638" lon="5.90444">
        <ele>1402.1999511719</ele>
        <time>2012-01-11T08:43:04.000Z</time>
      </trkpt>
      <trkpt lat="45.35637" lon="5.90442">
        <ele>1403</ele>
        <time>2012-01-11T08:43:08.000Z</time>
      </trkpt>
      <trkpt lat="45.35633" lon="5.90436">
        <ele>1403</ele>
        <time>2012-01-11T08:43:14.000Z</time>
      </trkpt>
      <trkpt lat="45.35631" lon="5.9043">
        <ele>1403.5999755859</ele>
        <time>2012-01-11T08:43:19.000Z</time>
      </trkpt>
      <trkpt lat="45.35629" lon="5.90425">
        <ele>1403.5999755859</ele>
        <time>2012-01-11T08:43:24.000Z</time>
      </trkpt>
      <trkpt lat="45.35627" lon="5.90423">
        <ele>1404</ele>
        <time>2012-01-11T08:43:27.000Z</time>
      </trkpt>
      <trkpt lat="45.35625" lon="5.90419">
        <ele>1405.4000244141</ele>
        <time>2012-01-11T08:43:33.000Z</time>
      </trkpt>
      <trkpt lat="45.35624" lon="5.90419">
        <ele>1406</ele>
        <time>2012-01-11T08:43:35.000Z</time>
      </trkpt>
      <trkpt lat="45.35622" lon="5.90414">
        <ele>1404.5999755859</ele>
        <time>2012-01-11T08:43:40.000Z</time>
      </trkpt>
      <trkpt lat="45.35618" lon="5.9041">
        <ele>1403.5999755859</ele>
        <time>2012-01-11T08:43:45.000Z</time>
      </trkpt>
      <trkpt lat="45.35614" lon="5.90406">
        <ele>1404.5999755859</ele>
        <time>2012-01-11T08:43:50.000Z</time>
      </trkpt>
      <trkpt lat="45.3561" lon="5.90403">
        <ele>1407.8000488281</ele>
        <time>2012-01-11T08:43:56.000Z</time>
      </trkpt>
      <trkpt lat="45.35604" lon="5.904">
        <ele>1411.1999511719</ele>
        <time>2012-01-11T08:44:03.000Z</time>
      </trkpt>
      <trkpt lat="45.35603" lon="5.90396">
        <ele>1411.1999511719</ele>
        <time>2012-01-11T08:44:08.000Z</time>
      </trkpt>
      <trkpt lat="45.35601" lon="5.90394">
        <ele>1411.1999511719</ele>
        <time>2012-01-11T08:44:12.000Z</time>
      </trkpt>
      <trkpt lat="45.35599" lon="5.90392">
        <ele>1411.8000488281</ele>
        <time>2012-01-11T08:44:16.000Z</time>
      </trkpt>
      <trkpt lat="45.35597" lon="5.90388">
        <ele>1414.1999511719</ele>
        <time>2012-01-11T08:44:23.000Z</time>
      </trkpt>
      <trkpt lat="45.35595" lon="5.90387">
        <ele>1417.5999755859</ele>
        <time>2012-01-11T08:44:28.000Z</time>
      </trkpt>
      <trkpt lat="45.35591" lon="5.90384">
        <ele>1417.5999755859</ele>
        <time>2012-01-11T08:44:34.000Z</time>
      </trkpt>
      <trkpt lat="45.35589" lon="5.90381">
        <ele>1419.4000244141</ele>
        <time>2012-01-11T08:44:41.000Z</time>
      </trkpt>
      <trkpt lat="45.35587" lon="5.9038">
        <ele>1420.4000244141</ele>
        <time>2012-01-11T08:44:46.000Z</time>
      </trkpt>
      <trkpt lat="45.35584" lon="5.90377">
        <ele>1419</ele>
        <time>2012-01-11T08:44:51.000Z</time>
      </trkpt>
      <trkpt lat="45.35581" lon="5.90373">
        <ele>1417</ele>
        <time>2012-01-11T08:44:55.000Z</time>
      </trkpt>
      <trkpt lat="45.35577" lon="5.9037">
        <ele>1415</ele>
        <time>2012-01-11T08:44:59.000Z</time>
      </trkpt>
      <trkpt lat="45.35575" lon="5.90366">
        <ele>1414.1999511719</ele>
        <time>2012-01-11T08:45:03.000Z</time>
      </trkpt>
      <trkpt lat="45.3557" lon="5.90363">
        <ele>1416.5999755859</ele>
        <time>2012-01-11T08:45:09.000Z</time>
      </trkpt>
      <trkpt lat="45.35567" lon="5.90361">
        <ele>1418.4000244141</ele>
        <time>2012-01-11T08:45:16.000Z</time>
      </trkpt>
      <trkpt lat="45.35564" lon="5.90359">
        <ele>1420.4000244141</ele>
        <time>2012-01-11T08:45:23.000Z</time>
      </trkpt>
      <trkpt lat="45.35562" lon="5.90358">
        <ele>1422.4000244141</ele>
        <time>2012-01-11T08:45:28.000Z</time>
      </trkpt>
      <trkpt lat="45.35558" lon="5.90357">
        <ele>1424.8000488281</ele>
        <time>2012-01-11T08:45:37.000Z</time>
      </trkpt>
      <trkpt lat="45.35555" lon="5.90355">
        <ele>1424.8000488281</ele>
        <time>2012-01-11T08:45:42.000Z</time>
      </trkpt>
      <trkpt lat="45.35549" lon="5.90352">
        <ele>1425.5999755859</ele>
        <time>2012-01-11T08:45:48.000Z</time>
      </trkpt>
      <trkpt lat="45.35546" lon="5.90351">
        <ele>1425.5999755859</ele>
        <time>2012-01-11T08:45:54.000Z</time>
      </trkpt>
      <trkpt lat="45.35544" lon="5.90348">
        <ele>1425.5999755859</ele>
        <time>2012-01-11T08:45:59.000Z</time>
      </trkpt>
      <trkpt lat="45.35543" lon="5.90346">
        <ele>1426.5999755859</ele>
        <time>2012-01-11T08:46:03.000Z</time>
      </trkpt>
      <trkpt lat="45.35541" lon="5.90344">
        <ele>1427.5999755859</ele>
        <time>2012-01-11T08:46:07.000Z</time>
      </trkpt>
      <trkpt lat="45.35538" lon="5.90344">
        <ele>1427.5999755859</ele>
        <time>2012-01-11T08:46:12.000Z</time>
      </trkpt>
      <trkpt lat="45.35539" lon="5.90341">
        <ele>1426.5999755859</ele>
        <time>2012-01-11T08:46:33.000Z</time>
      </trkpt>
      <trkpt lat="45.35539" lon="5.90341">
        <ele>1427.1999511719</ele>
        <time>2012-01-11T08:46:39.000Z</time>
      </trkpt>
      <trkpt lat="45.35535" lon="5.90343">
        <ele>1426.1999511719</ele>
        <time>2012-01-11T08:46:48.000Z</time>
      </trkpt>
      <trkpt lat="45.35532" lon="5.90343">
        <ele>1428.5999755859</ele>
        <time>2012-01-11T08:46:54.000Z</time>
      </trkpt>
      <trkpt lat="45.3553" lon="5.90342">
        <ele>1428.5999755859</ele>
        <time>2012-01-11T08:46:58.000Z</time>
      </trkpt>
      <trkpt lat="45.35528" lon="5.90342">
        <ele>1430</ele>
        <time>2012-01-11T08:47:03.000Z</time>
      </trkpt>
      <trkpt lat="45.35525" lon="5.90341">
        <ele>1431</ele>
        <time>2012-01-11T08:47:07.000Z</time>
      </trkpt>
      <trkpt lat="45.35521" lon="5.9034">
        <ele>1431</ele>
        <time>2012-01-11T08:47:12.000Z</time>
      </trkpt>
      <trkpt lat="45.35519" lon="5.90337">
        <ele>1432.8000488281</ele>
        <time>2012-01-11T08:47:17.000Z</time>
      </trkpt>
      <trkpt lat="45.35519" lon="5.90333">
        <ele>1434.4000244141</ele>
        <time>2012-01-11T08:47:22.000Z</time>
      </trkpt>
      <trkpt lat="45.3552" lon="5.90331">
        <ele>1435.8000488281</ele>
        <time>2012-01-11T08:47:28.000Z</time>
      </trkpt>
      <trkpt lat="45.3552" lon="5.90332">
        <ele>1438.5999755859</ele>
        <time>2012-01-11T08:47:34.000Z</time>
      </trkpt>
      <trkpt lat="45.3552" lon="5.90332">
        <ele>1439.1999511719</ele>
        <time>2012-01-11T08:47:35.000Z</time>
      </trkpt>
      <trkpt lat="45.35516" lon="5.90328">
        <ele>1440</ele>
        <time>2012-01-11T08:47:46.000Z</time>
      </trkpt>
      <trkpt lat="45.35516" lon="5.90325">
        <ele>1442</ele>
        <time>2012-01-11T08:47:49.000Z</time>
      </trkpt>
      <trkpt lat="45.35517" lon="5.90318">
        <ele>1445.4000244141</ele>
        <time>2012-01-11T08:47:55.000Z</time>
      </trkpt>
      <trkpt lat="45.3552" lon="5.90314">
        <ele>1450.1999511719</ele>
        <time>2012-01-11T08:48:03.000Z</time>
      </trkpt>
      <trkpt lat="45.35521" lon="5.90309">
        <ele>1454.5999755859</ele>
        <time>2012-01-11T08:48:10.000Z</time>
      </trkpt>
      <trkpt lat="45.35522" lon="5.90306">
        <ele>1454.5999755859</ele>
        <time>2012-01-11T08:48:15.000Z</time>
      </trkpt>
      <trkpt lat="45.35521" lon="5.90305">
        <ele>1453.5999755859</ele>
        <time>2012-01-11T08:48:21.000Z</time>
      </trkpt>
      <trkpt lat="45.35519" lon="5.90301">
        <ele>1453</ele>
        <time>2012-01-11T08:48:27.000Z</time>
      </trkpt>
      <trkpt lat="45.35517" lon="5.90298">
        <ele>1453.5999755859</ele>
        <time>2012-01-11T08:48:33.000Z</time>
      </trkpt>
      <trkpt lat="45.35518" lon="5.90295">
        <ele>1456</ele>
        <time>2012-01-11T08:48:39.000Z</time>
      </trkpt>
      <trkpt lat="45.35514" lon="5.9029">
        <ele>1455.4000244141</ele>
        <time>2012-01-11T08:48:48.000Z</time>
      </trkpt>
      <trkpt lat="45.35511" lon="5.90288">
        <ele>1457</ele>
        <time>2012-01-11T08:48:54.000Z</time>
      </trkpt>
      <trkpt lat="45.35508" lon="5.90287">
        <ele>1454.5999755859</ele>
        <time>2012-01-11T08:48:59.000Z</time>
      </trkpt>
      <trkpt lat="45.35505" lon="5.90286">
        <ele>1453.5999755859</ele>
        <time>2012-01-11T08:49:05.000Z</time>
      </trkpt>
      <trkpt lat="45.35502" lon="5.90285">
        <ele>1453</ele>
        <time>2012-01-11T08:49:11.000Z</time>
      </trkpt>
      <trkpt lat="45.35498" lon="5.90286">
        <ele>1453.5999755859</ele>
        <time>2012-01-11T08:49:16.000Z</time>
      </trkpt>
      <trkpt lat="45.35495" lon="5.90287">
        <ele>1455</ele>
        <time>2012-01-11T08:49:20.000Z</time>
      </trkpt>
      <trkpt lat="45.35492" lon="5.90287">
        <ele>1454</ele>
        <time>2012-01-11T08:49:24.000Z</time>
      </trkpt>
      <trkpt lat="45.3549" lon="5.90287">
        <ele>1453.5999755859</ele>
        <time>2012-01-11T08:49:27.000Z</time>
      </trkpt>
      <trkpt lat="45.35488" lon="5.90288">
        <ele>1454</ele>
        <time>2012-01-11T08:49:32.000Z</time>
      </trkpt>
      <trkpt lat="45.35485" lon="5.90292">
        <ele>1457.4000244141</ele>
        <time>2012-01-11T08:49:40.000Z</time>
      </trkpt>
      <trkpt lat="45.35483" lon="5.90294">
        <ele>1457.4000244141</ele>
        <time>2012-01-11T08:49:44.000Z</time>
      </trkpt>
      <trkpt lat="45.3548" lon="5.90293">
        <ele>1458.4000244141</ele>
        <time>2012-01-11T08:49:49.000Z</time>
      </trkpt>
      <trkpt lat="45.35477" lon="5.90294">
        <ele>1457.8000488281</ele>
        <time>2012-01-11T08:49:53.000Z</time>
      </trkpt>
      <trkpt lat="45.35475" lon="5.90293">
        <ele>1456.4000244141</ele>
        <time>2012-01-11T08:49:59.000Z</time>
      </trkpt>
      <trkpt lat="45.35473" lon="5.90291">
        <ele>1457.4000244141</ele>
        <time>2012-01-11T08:50:04.000Z</time>
      </trkpt>
      <trkpt lat="45.35472" lon="5.90285">
        <ele>1458.4000244141</ele>
        <time>2012-01-11T08:50:10.000Z</time>
      </trkpt>
      <trkpt lat="45.35472" lon="5.9028">
        <ele>1459.4000244141</ele>
        <time>2012-01-11T08:50:17.000Z</time>
      </trkpt>
      <trkpt lat="45.35473" lon="5.90276">
        <ele>1460.1999511719</ele>
        <time>2012-01-11T08:50:23.000Z</time>
      </trkpt>
      <trkpt lat="45.35473" lon="5.90272">
        <ele>1460.8000488281</ele>
        <time>2012-01-11T08:50:29.000Z</time>
      </trkpt>
      <trkpt lat="45.35473" lon="5.90268">
        <ele>1462.1999511719</ele>
        <time>2012-01-11T08:50:35.000Z</time>
      </trkpt>
      <trkpt lat="45.35473" lon="5.90263">
        <ele>1464.1999511719</ele>
        <time>2012-01-11T08:50:42.000Z</time>
      </trkpt>
      <trkpt lat="45.35473" lon="5.90259">
        <ele>1465</ele>
        <time>2012-01-11T08:50:46.000Z</time>
      </trkpt>
      <trkpt lat="45.35472" lon="5.90253">
        <ele>1467</ele>
        <time>2012-01-11T08:50:52.000Z</time>
      </trkpt>
      <trkpt lat="45.35472" lon="5.90249">
        <ele>1468</ele>
        <time>2012-01-11T08:50:59.000Z</time>
      </trkpt>
      <trkpt lat="45.35472" lon="5.90244">
        <ele>1468.4000244141</ele>
        <time>2012-01-11T08:51:05.000Z</time>
      </trkpt>
      <trkpt lat="45.35472" lon="5.90241">
        <ele>1469</ele>
        <time>2012-01-11T08:51:10.000Z</time>
      </trkpt>
      <trkpt lat="45.35472" lon="5.90235">
        <ele>1469.8000488281</ele>
        <time>2012-01-11T08:51:15.000Z</time>
      </trkpt>
      <trkpt lat="45.35472" lon="5.90228">
        <ele>1472.1999511719</ele>
        <time>2012-01-11T08:51:22.000Z</time>
      </trkpt>
      <trkpt lat="45.35473" lon="5.90222">
        <ele>1473.8000488281</ele>
        <time>2012-01-11T08:51:28.000Z</time>
      </trkpt>
      <trkpt lat="45.35473" lon="5.90218">
        <ele>1475.1999511719</ele>
        <time>2012-01-11T08:51:34.000Z</time>
      </trkpt>
      <trkpt lat="45.35473" lon="5.90218">
        <ele>1476.1999511719</ele>
        <time>2012-01-11T08:51:44.000Z</time>
      </trkpt>
      <trkpt lat="45.35475" lon="5.90215">
        <ele>1474.5999755859</ele>
        <time>2012-01-11T08:51:55.000Z</time>
      </trkpt>
      <trkpt lat="45.35476" lon="5.90214">
        <ele>1474.5999755859</ele>
        <time>2012-01-11T08:52:24.000Z</time>
      </trkpt>
      <trkpt lat="45.35476" lon="5.90214">
        <ele>1475.1999511719</ele>
        <time>2012-01-11T08:52:33.000Z</time>
      </trkpt>
      <trkpt lat="45.35475" lon="5.90214">
        <ele>1474.5999755859</ele>
        <time>2012-01-11T08:52:58.000Z</time>
      </trkpt>
      <trkpt lat="45.35475" lon="5.90213">
        <ele>1474.1999511719</ele>
        <time>2012-01-11T08:53:04.000Z</time>
      </trkpt>
      <trkpt lat="45.35475" lon="5.90213">
        <ele>1473.8000488281</ele>
        <time>2012-01-11T08:53:12.000Z</time>
      </trkpt>
      <trkpt lat="45.35476" lon="5.90213">
        <ele>1473.1999511719</ele>
        <time>2012-01-11T08:53:23.000Z</time>
      </trkpt>
      <trkpt lat="45.35476" lon="5.90216">
        <ele>1472.1999511719</ele>
        <time>2012-01-11T08:53:32.000Z</time>
      </trkpt>
      <trkpt lat="45.35476" lon="5.90217">
        <ele>1471.4000244141</ele>
        <time>2012-01-11T08:53:37.000Z</time>
      </trkpt>
      <trkpt lat="45.35473" lon="5.90218">
        <ele>1470.8000488281</ele>
        <time>2012-01-11T08:53:43.000Z</time>
      </trkpt>
      <trkpt lat="45.35473" lon="5.90213">
        <ele>1471.4000244141</ele>
        <time>2012-01-11T08:53:48.000Z</time>
      </trkpt>
      <trkpt lat="45.35474" lon="5.90209">
        <ele>1472.1999511719</ele>
        <time>2012-01-11T08:53:56.000Z</time>
      </trkpt>
      <trkpt lat="45.35476" lon="5.90205">
        <ele>1472.1999511719</ele>
        <time>2012-01-11T08:54:32.000Z</time>
      </trkpt>
      <trkpt lat="45.35477" lon="5.90202">
        <ele>1470.8000488281</ele>
        <time>2012-01-11T08:54:39.000Z</time>
      </trkpt>
      <trkpt lat="45.3548" lon="5.90197">
        <ele>1470.8000488281</ele>
        <time>2012-01-11T08:54:44.000Z</time>
      </trkpt>
      <trkpt lat="45.35482" lon="5.90188">
        <ele>1473.1999511719</ele>
        <time>2012-01-11T08:54:52.000Z</time>
      </trkpt>
      <trkpt lat="45.35485" lon="5.9018">
        <ele>1474.1999511719</ele>
        <time>2012-01-11T08:54:59.000Z</time>
      </trkpt>
      <trkpt lat="45.35488" lon="5.90174">
        <ele>1476.5999755859</ele>
        <time>2012-01-11T08:55:06.000Z</time>
      </trkpt>
      <trkpt lat="45.35493" lon="5.9017">
        <ele>1477.1999511719</ele>
        <time>2012-01-11T08:55:13.000Z</time>
      </trkpt>
      <trkpt lat="45.35496" lon="5.90167">
        <ele>1478</ele>
        <time>2012-01-11T08:55:18.000Z</time>
      </trkpt>
      <trkpt lat="45.35499" lon="5.90164">
        <ele>1479</ele>
        <time>2012-01-11T08:55:24.000Z</time>
      </trkpt>
      <trkpt lat="45.35503" lon="5.90161">
        <ele>1480.4000244141</ele>
        <time>2012-01-11T08:55:30.000Z</time>
      </trkpt>
      <trkpt lat="45.35507" lon="5.90161">
        <ele>1480.4000244141</ele>
        <time>2012-01-11T08:55:35.000Z</time>
      </trkpt>
      <trkpt lat="45.35512" lon="5.90161">
        <ele>1482</ele>
        <time>2012-01-11T08:55:40.000Z</time>
      </trkpt>
      <trkpt lat="45.35517" lon="5.90162">
        <ele>1482.4000244141</ele>
        <time>2012-01-11T08:55:46.000Z</time>
      </trkpt>
      <trkpt lat="45.3552" lon="5.90164">
        <ele>1482.4000244141</ele>
        <time>2012-01-11T08:55:51.000Z</time>
      </trkpt>
      <trkpt lat="45.35524" lon="5.90164">
        <ele>1483.8000488281</ele>
        <time>2012-01-11T08:55:57.000Z</time>
      </trkpt>
      <trkpt lat="45.35528" lon="5.90165">
        <ele>1484.4000244141</ele>
        <time>2012-01-11T08:56:03.000Z</time>
      </trkpt>
      <trkpt lat="45.35532" lon="5.90165">
        <ele>1485.1999511719</ele>
        <time>2012-01-11T08:56:09.000Z</time>
      </trkpt>
      <trkpt lat="45.35535" lon="5.90165">
        <ele>1485.8000488281</ele>
        <time>2012-01-11T08:56:13.000Z</time>
      </trkpt>
      <trkpt lat="45.35538" lon="5.90165">
        <ele>1486.8000488281</ele>
        <time>2012-01-11T08:56:19.000Z</time>
      </trkpt>
      <trkpt lat="45.35541" lon="5.90165">
        <ele>1488.1999511719</ele>
        <time>2012-01-11T08:56:23.000Z</time>
      </trkpt>
      <trkpt lat="45.35544" lon="5.90165">
        <ele>1489.1999511719</ele>
        <time>2012-01-11T08:56:29.000Z</time>
      </trkpt>
      <trkpt lat="45.35547" lon="5.90164">
        <ele>1490</ele>
        <time>2012-01-11T08:56:33.000Z</time>
      </trkpt>
      <trkpt lat="45.35549" lon="5.90165">
        <ele>1490</ele>
        <time>2012-01-11T08:56:37.000Z</time>
      </trkpt>
      <trkpt lat="45.35551" lon="5.90165">
        <ele>1491</ele>
        <time>2012-01-11T08:56:41.000Z</time>
      </trkpt>
      <trkpt lat="45.35556" lon="5.90166">
        <ele>1493</ele>
        <time>2012-01-11T08:56:51.000Z</time>
      </trkpt>
      <trkpt lat="45.35561" lon="5.90165">
        <ele>1494.4000244141</ele>
        <time>2012-01-11T08:56:59.000Z</time>
      </trkpt>
      <trkpt lat="45.35563" lon="5.90163">
        <ele>1495.8000488281</ele>
        <time>2012-01-11T08:57:04.000Z</time>
      </trkpt>
      <trkpt lat="45.35566" lon="5.90164">
        <ele>1497.8000488281</ele>
        <time>2012-01-11T08:57:10.000Z</time>
      </trkpt>
      <trkpt lat="45.3557" lon="5.90164">
        <ele>1496.8000488281</ele>
        <time>2012-01-11T08:57:16.000Z</time>
      </trkpt>
      <trkpt lat="45.35575" lon="5.90164">
        <ele>1496.8000488281</ele>
        <time>2012-01-11T08:57:22.000Z</time>
      </trkpt>
      <trkpt lat="45.35579" lon="5.90161">
        <ele>1497.8000488281</ele>
        <time>2012-01-11T08:57:32.000Z</time>
      </trkpt>
      <trkpt lat="45.35582" lon="5.90164">
        <ele>1496.8000488281</ele>
        <time>2012-01-11T08:57:37.000Z</time>
      </trkpt>
      <trkpt lat="45.35585" lon="5.90164">
        <ele>1498.8000488281</ele>
        <time>2012-01-11T08:57:43.000Z</time>
      </trkpt>
      <trkpt lat="45.35587" lon="5.90162">
        <ele>1499.5999755859</ele>
        <time>2012-01-11T08:57:47.000Z</time>
      </trkpt>
      <trkpt lat="45.35591" lon="5.90162">
        <ele>1499.5999755859</ele>
        <time>2012-01-11T08:57:51.000Z</time>
      </trkpt>
      <trkpt lat="45.35593" lon="5.90161">
        <ele>1502</ele>
        <time>2012-01-11T08:57:55.000Z</time>
      </trkpt>
      <trkpt lat="45.35595" lon="5.90161">
        <ele>1504</ele>
        <time>2012-01-11T08:58:00.000Z</time>
      </trkpt>
      <trkpt lat="45.35597" lon="5.90163">
        <ele>1505.4000244141</ele>
        <time>2012-01-11T08:58:05.000Z</time>
      </trkpt>
      <trkpt lat="45.356" lon="5.90163">
        <ele>1506</ele>
        <time>2012-01-11T08:58:09.000Z</time>
      </trkpt>
      <trkpt lat="45.35602" lon="5.90163">
        <ele>1507.4000244141</ele>
        <time>2012-01-11T08:58:13.000Z</time>
      </trkpt>
      <trkpt lat="45.35604" lon="5.90163">
        <ele>1509.4000244141</ele>
        <time>2012-01-11T08:58:19.000Z</time>
      </trkpt>
      <trkpt lat="45.35607" lon="5.90162">
        <ele>1511.1999511719</ele>
        <time>2012-01-11T08:58:24.000Z</time>
      </trkpt>
      <trkpt lat="45.35609" lon="5.90162">
        <ele>1512.1999511719</ele>
        <time>2012-01-11T08:58:30.000Z</time>
      </trkpt>
      <trkpt lat="45.35613" lon="5.90163">
        <ele>1513.1999511719</ele>
        <time>2012-01-11T08:58:35.000Z</time>
      </trkpt>
      <trkpt lat="45.35613" lon="5.90163">
        <ele>1513.5999755859</ele>
        <time>2012-01-11T08:58:36.000Z</time>
      </trkpt>
      <trkpt lat="45.35618" lon="5.90157">
        <ele>1514.5999755859</ele>
        <time>2012-01-11T08:58:43.000Z</time>
      </trkpt>
      <trkpt lat="45.35621" lon="5.90156">
        <ele>1514.5999755859</ele>
        <time>2012-01-11T08:58:49.000Z</time>
      </trkpt>
      <trkpt lat="45.35623" lon="5.90156">
        <ele>1515.5999755859</ele>
        <time>2012-01-11T08:58:53.000Z</time>
      </trkpt>
      <trkpt lat="45.35626" lon="5.90156">
        <ele>1516.5999755859</ele>
        <time>2012-01-11T08:58:59.000Z</time>
      </trkpt>
      <trkpt lat="45.35629" lon="5.90156">
        <ele>1518.4000244141</ele>
        <time>2012-01-11T08:59:04.000Z</time>
      </trkpt>
      <trkpt lat="45.35632" lon="5.90156">
        <ele>1519.4000244141</ele>
        <time>2012-01-11T08:59:12.000Z</time>
      </trkpt>
      <trkpt lat="45.35636" lon="5.90158">
        <ele>1519.8000488281</ele>
        <time>2012-01-11T08:59:19.000Z</time>
      </trkpt>
      <trkpt lat="45.35639" lon="5.90158">
        <ele>1520.8000488281</ele>
        <time>2012-01-11T08:59:25.000Z</time>
      </trkpt>
      <trkpt lat="45.35643" lon="5.90159">
        <ele>1521.8000488281</ele>
        <time>2012-01-11T08:59:31.000Z</time>
      </trkpt>
      <trkpt lat="45.35645" lon="5.90161">
        <ele>1522.1999511719</ele>
        <time>2012-01-11T08:59:36.000Z</time>
      </trkpt>
      <trkpt lat="45.35648" lon="5.9016">
        <ele>1522.1999511719</ele>
        <time>2012-01-11T08:59:41.000Z</time>
      </trkpt>
      <trkpt lat="45.35652" lon="5.90157">
        <ele>1523.1999511719</ele>
        <time>2012-01-11T08:59:46.000Z</time>
      </trkpt>
      <trkpt lat="45.35655" lon="5.90156">
        <ele>1525.1999511719</ele>
        <time>2012-01-11T08:59:51.000Z</time>
      </trkpt>
      <trkpt lat="45.35657" lon="5.90156">
        <ele>1527</ele>
        <time>2012-01-11T08:59:56.000Z</time>
      </trkpt>
      <trkpt lat="45.35659" lon="5.90157">
        <ele>1528.5999755859</ele>
        <time>2012-01-11T09:00:00.000Z</time>
      </trkpt>
      <trkpt lat="45.3566" lon="5.90158">
        <ele>1529</ele>
        <time>2012-01-11T09:00:06.000Z</time>
      </trkpt>
      <trkpt lat="45.35663" lon="5.90156">
        <ele>1529.4000244141</ele>
        <time>2012-01-11T09:00:14.000Z</time>
      </trkpt>
      <trkpt lat="45.35665" lon="5.90155">
        <ele>1530.4000244141</ele>
        <time>2012-01-11T09:00:19.000Z</time>
      </trkpt>
      <trkpt lat="45.35668" lon="5.90153">
        <ele>1531</ele>
        <time>2012-01-11T09:00:24.000Z</time>
      </trkpt>
      <trkpt lat="45.3567" lon="5.90154">
        <ele>1532.4000244141</ele>
        <time>2012-01-11T09:00:31.000Z</time>
      </trkpt>
      <trkpt lat="45.35675" lon="5.90154">
        <ele>1534.4000244141</ele>
        <time>2012-01-11T09:00:44.000Z</time>
      </trkpt>
      <trkpt lat="45.35675" lon="5.90152">
        <ele>1540.5999755859</ele>
        <time>2012-01-11T09:00:57.000Z</time>
      </trkpt>
      <trkpt lat="45.35674" lon="5.90148">
        <ele>1543.4000244141</ele>
        <time>2012-01-11T09:01:07.000Z</time>
      </trkpt>
      <trkpt lat="45.35672" lon="5.90143">
        <ele>1543</ele>
        <time>2012-01-11T09:01:15.000Z</time>
      </trkpt>
      <trkpt lat="45.3567" lon="5.90141">
        <ele>1540</ele>
        <time>2012-01-11T09:01:21.000Z</time>
      </trkpt>
      <trkpt lat="45.3567" lon="5.90138">
        <ele>1540</ele>
        <time>2012-01-11T09:01:29.000Z</time>
      </trkpt>
      <trkpt lat="45.35669" lon="5.90134">
        <ele>1539.5999755859</ele>
        <time>2012-01-11T09:01:35.000Z</time>
      </trkpt>
      <trkpt lat="45.35668" lon="5.90131">
        <ele>1539.1999511719</ele>
        <time>2012-01-11T09:01:40.000Z</time>
      </trkpt>
      <trkpt lat="45.35667" lon="5.90128">
        <ele>1538.5999755859</ele>
        <time>2012-01-11T09:01:45.000Z</time>
      </trkpt>
      <trkpt lat="45.35666" lon="5.90126">
        <ele>1538.5999755859</ele>
        <time>2012-01-11T09:01:50.000Z</time>
      </trkpt>
      <trkpt lat="45.35664" lon="5.90123">
        <ele>1541.5999755859</ele>
        <time>2012-01-11T09:01:58.000Z</time>
      </trkpt>
      <trkpt lat="45.35664" lon="5.9012">
        <ele>1542</ele>
        <time>2012-01-11T09:02:04.000Z</time>
      </trkpt>
      <trkpt lat="45.35662" lon="5.90117">
        <ele>1543.4000244141</ele>
        <time>2012-01-11T09:02:09.000Z</time>
      </trkpt>
      <trkpt lat="45.3566" lon="5.90114">
        <ele>1543.4000244141</ele>
        <time>2012-01-11T09:02:15.000Z</time>
      </trkpt>
      <trkpt lat="45.35659" lon="5.90111">
        <ele>1544.8000488281</ele>
        <time>2012-01-11T09:02:20.000Z</time>
      </trkpt>
      <trkpt lat="45.35658" lon="5.90105">
        <ele>1545.4000244141</ele>
        <time>2012-01-11T09:02:29.000Z</time>
      </trkpt>
      <trkpt lat="45.35655" lon="5.90102">
        <ele>1546.4000244141</ele>
        <time>2012-01-11T09:02:34.000Z</time>
      </trkpt>
      <trkpt lat="45.35653" lon="5.90098">
        <ele>1547.8000488281</ele>
        <time>2012-01-11T09:02:42.000Z</time>
      </trkpt>
      <trkpt lat="45.3565" lon="5.90094">
        <ele>1548.8000488281</ele>
        <time>2012-01-11T09:02:49.000Z</time>
      </trkpt>
      <trkpt lat="45.35649" lon="5.90091">
        <ele>1551.5999755859</ele>
        <time>2012-01-11T09:02:56.000Z</time>
      </trkpt>
      <trkpt lat="45.35647" lon="5.90088">
        <ele>1552.5999755859</ele>
        <time>2012-01-11T09:03:01.000Z</time>
      </trkpt>
      <trkpt lat="45.35645" lon="5.90085">
        <ele>1552</ele>
        <time>2012-01-11T09:03:05.000Z</time>
      </trkpt>
      <trkpt lat="45.35642" lon="5.90081">
        <ele>1552.5999755859</ele>
        <time>2012-01-11T09:03:11.000Z</time>
      </trkpt>
      <trkpt lat="45.35641" lon="5.90077">
        <ele>1553.5999755859</ele>
        <time>2012-01-11T09:03:16.000Z</time>
      </trkpt>
      <trkpt lat="45.35639" lon="5.90073">
        <ele>1554</ele>
        <time>2012-01-11T09:03:21.000Z</time>
      </trkpt>
      <trkpt lat="45.35637" lon="5.9007">
        <ele>1553.5999755859</ele>
        <time>2012-01-11T09:03:26.000Z</time>
      </trkpt>
      <trkpt lat="45.35636" lon="5.90066">
        <ele>1555</ele>
        <time>2012-01-11T09:03:30.000Z</time>
      </trkpt>
      <trkpt lat="45.35633" lon="5.90063">
        <ele>1555</ele>
        <time>2012-01-11T09:03:35.000Z</time>
      </trkpt>
      <trkpt lat="45.3563" lon="5.90059">
        <ele>1555.4000244141</ele>
        <time>2012-01-11T09:03:41.000Z</time>
      </trkpt>
      <trkpt lat="45.35628" lon="5.90054">
        <ele>1556.4000244141</ele>
        <time>2012-01-11T09:03:46.000Z</time>
      </trkpt>
      <trkpt lat="45.35627" lon="5.90051">
        <ele>1557.4000244141</ele>
        <time>2012-01-11T09:03:50.000Z</time>
      </trkpt>
      <trkpt lat="45.35625" lon="5.90046">
        <ele>1559.1999511719</ele>
        <time>2012-01-11T09:03:55.000Z</time>
      </trkpt>
      <trkpt lat="45.35623" lon="5.90041">
        <ele>1561.5999755859</ele>
        <time>2012-01-11T09:04:01.000Z</time>
      </trkpt>
      <trkpt lat="45.35621" lon="5.90036">
        <ele>1562.5999755859</ele>
        <time>2012-01-11T09:04:07.000Z</time>
      </trkpt>
      <trkpt lat="45.35621" lon="5.90034">
        <ele>1563.5999755859</ele>
        <time>2012-01-11T09:04:10.000Z</time>
      </trkpt>
      <trkpt lat="45.3562" lon="5.9003">
        <ele>1565.5999755859</ele>
        <time>2012-01-11T09:04:15.000Z</time>
      </trkpt>
      <trkpt lat="45.3562" lon="5.90023">
        <ele>1567.4000244141</ele>
        <time>2012-01-11T09:04:19.000Z</time>
      </trkpt>
      <trkpt lat="45.35619" lon="5.9002">
        <ele>1567</ele>
        <time>2012-01-11T09:04:23.000Z</time>
      </trkpt>
      <trkpt lat="45.35618" lon="5.90016">
        <ele>1568</ele>
        <time>2012-01-11T09:04:29.000Z</time>
      </trkpt>
      <trkpt lat="45.35618" lon="5.90012">
        <ele>1568</ele>
        <time>2012-01-11T09:04:32.000Z</time>
      </trkpt>
      <trkpt lat="45.35617" lon="5.90007">
        <ele>1568</ele>
        <time>2012-01-11T09:04:36.000Z</time>
      </trkpt>
      <trkpt lat="45.35617" lon="5.90003">
        <ele>1568</ele>
        <time>2012-01-11T09:04:41.000Z</time>
      </trkpt>
      <trkpt lat="45.35615" lon="5.9">
        <ele>1569</ele>
        <time>2012-01-11T09:04:46.000Z</time>
      </trkpt>
      <trkpt lat="45.35615" lon="5.89996">
        <ele>1569.8000488281</ele>
        <time>2012-01-11T09:04:51.000Z</time>
      </trkpt>
      <trkpt lat="45.35615" lon="5.89989">
        <ele>1570.4000244141</ele>
        <time>2012-01-11T09:04:57.000Z</time>
      </trkpt>
      <trkpt lat="45.35614" lon="5.89985">
        <ele>1570.8000488281</ele>
        <time>2012-01-11T09:05:02.000Z</time>
      </trkpt>
      <trkpt lat="45.35613" lon="5.89982">
        <ele>1572.1999511719</ele>
        <time>2012-01-11T09:05:08.000Z</time>
      </trkpt>
      <trkpt lat="45.35613" lon="5.89978">
        <ele>1573.8000488281</ele>
        <time>2012-01-11T09:05:14.000Z</time>
      </trkpt>
      <trkpt lat="45.35614" lon="5.89976">
        <ele>1574.5999755859</ele>
        <time>2012-01-11T09:05:19.000Z</time>
      </trkpt>
      <trkpt lat="45.35615" lon="5.89973">
        <ele>1575.1999511719</ele>
        <time>2012-01-11T09:05:24.000Z</time>
      </trkpt>
      <trkpt lat="45.35617" lon="5.89969">
        <ele>1575.5999755859</ele>
        <time>2012-01-11T09:05:31.000Z</time>
      </trkpt>
      <trkpt lat="45.35619" lon="5.89968">
        <ele>1578.5999755859</ele>
        <time>2012-01-11T09:05:36.000Z</time>
      </trkpt>
      <trkpt lat="45.3562" lon="5.89965">
        <ele>1581.8000488281</ele>
        <time>2012-01-11T09:05:45.000Z</time>
      </trkpt>
      <trkpt lat="45.3562" lon="5.89963">
        <ele>1583.8000488281</ele>
        <time>2012-01-11T09:05:51.000Z</time>
      </trkpt>
      <trkpt lat="45.3562" lon="5.89961">
        <ele>1585.1999511719</ele>
        <time>2012-01-11T09:05:57.000Z</time>
      </trkpt>
      <trkpt lat="45.35619" lon="5.89961">
        <ele>1584.8000488281</ele>
        <time>2012-01-11T09:06:18.000Z</time>
      </trkpt>
      <trkpt lat="45.35618" lon="5.89958">
        <ele>1585.1999511719</ele>
        <time>2012-01-11T09:06:30.000Z</time>
      </trkpt>
      <trkpt lat="45.35618" lon="5.89955">
        <ele>1585.8000488281</ele>
        <time>2012-01-11T09:06:34.000Z</time>
      </trkpt>
      <trkpt lat="45.35619" lon="5.89954">
        <ele>1588.1999511719</ele>
        <time>2012-01-11T09:06:40.000Z</time>
      </trkpt>
      <trkpt lat="45.35621" lon="5.89952">
        <ele>1591</ele>
        <time>2012-01-11T09:06:48.000Z</time>
      </trkpt>
      <trkpt lat="45.35622" lon="5.89949">
        <ele>1591.4000244141</ele>
        <time>2012-01-11T09:06:53.000Z</time>
      </trkpt>
      <trkpt lat="45.35625" lon="5.89947">
        <ele>1591.4000244141</ele>
        <time>2012-01-11T09:06:59.000Z</time>
      </trkpt>
      <trkpt lat="45.35625" lon="5.89947">
        <ele>1594</ele>
        <time>2012-01-11T09:07:07.000Z</time>
      </trkpt>
      <trkpt lat="45.35626" lon="5.89944">
        <ele>1594</ele>
        <time>2012-01-11T09:07:11.000Z</time>
      </trkpt>
      <trkpt lat="45.35625" lon="5.89939">
        <ele>1594</ele>
        <time>2012-01-11T09:07:16.000Z</time>
      </trkpt>
      <trkpt lat="45.35625" lon="5.89934">
        <ele>1595.8000488281</ele>
        <time>2012-01-11T09:07:25.000Z</time>
      </trkpt>
      <trkpt lat="45.35626" lon="5.8993">
        <ele>1595.4000244141</ele>
        <time>2012-01-11T09:07:31.000Z</time>
      </trkpt>
      <trkpt lat="45.35627" lon="5.89929">
        <ele>1597.1999511719</ele>
        <time>2012-01-11T09:07:46.000Z</time>
      </trkpt>
      <trkpt lat="45.35628" lon="5.89926">
        <ele>1599.1999511719</ele>
        <time>2012-01-11T09:07:53.000Z</time>
      </trkpt>
      <trkpt lat="45.35629" lon="5.89923">
        <ele>1599.1999511719</ele>
        <time>2012-01-11T09:07:58.000Z</time>
      </trkpt>
      <trkpt lat="45.35629" lon="5.89922">
        <ele>1599.5999755859</ele>
        <time>2012-01-11T09:08:03.000Z</time>
      </trkpt>
      <trkpt lat="45.35631" lon="5.89916">
        <ele>1601.1999511719</ele>
        <time>2012-01-11T09:08:12.000Z</time>
      </trkpt>
      <trkpt lat="45.35632" lon="5.89912">
        <ele>1603.5999755859</ele>
        <time>2012-01-11T09:08:20.000Z</time>
      </trkpt>
      <trkpt lat="45.35632" lon="5.8991">
        <ele>1605.4000244141</ele>
        <time>2012-01-11T09:08:25.000Z</time>
      </trkpt>
      <trkpt lat="45.35633" lon="5.89906">
        <ele>1608.4000244141</ele>
        <time>2012-01-11T09:08:32.000Z</time>
      </trkpt>
      <trkpt lat="45.35634" lon="5.899">
        <ele>1606.4000244141</ele>
        <time>2012-01-11T09:08:39.000Z</time>
      </trkpt>
      <trkpt lat="45.35637" lon="5.89893">
        <ele>1603</ele>
        <time>2012-01-11T09:08:44.000Z</time>
      </trkpt>
      <trkpt lat="45.35636" lon="5.89887">
        <ele>1602.5999755859</ele>
        <time>2012-01-11T09:08:49.000Z</time>
      </trkpt>
      <trkpt lat="45.35635" lon="5.89884">
        <ele>1604</ele>
        <time>2012-01-11T09:08:53.000Z</time>
      </trkpt>
      <trkpt lat="45.35634" lon="5.8988">
        <ele>1604.4000244141</ele>
        <time>2012-01-11T09:08:57.000Z</time>
      </trkpt>
      <trkpt lat="45.35632" lon="5.8988">
        <ele>1605.4000244141</ele>
        <time>2012-01-11T09:09:03.000Z</time>
      </trkpt>
      <trkpt lat="45.35631" lon="5.89877">
        <ele>1606</ele>
        <time>2012-01-11T09:09:08.000Z</time>
      </trkpt>
      <trkpt lat="45.3563" lon="5.89875">
        <ele>1606.8000488281</ele>
        <time>2012-01-11T09:09:12.000Z</time>
      </trkpt>
      <trkpt lat="45.3563" lon="5.8987">
        <ele>1606.8000488281</ele>
        <time>2012-01-11T09:09:18.000Z</time>
      </trkpt>
      <trkpt lat="45.35629" lon="5.89865">
        <ele>1607.8000488281</ele>
        <time>2012-01-11T09:09:24.000Z</time>
      </trkpt>
      <trkpt lat="45.35629" lon="5.89861">
        <ele>1608.8000488281</ele>
        <time>2012-01-11T09:09:29.000Z</time>
      </trkpt>
      <trkpt lat="45.35629" lon="5.89858">
        <ele>1609.1999511719</ele>
        <time>2012-01-11T09:09:33.000Z</time>
      </trkpt>
      <trkpt lat="45.35629" lon="5.89854">
        <ele>1610.8000488281</ele>
        <time>2012-01-11T09:09:37.000Z</time>
      </trkpt>
      <trkpt lat="45.35628" lon="5.89851">
        <ele>1612.1999511719</ele>
        <time>2012-01-11T09:09:42.000Z</time>
      </trkpt>
      <trkpt lat="45.35627" lon="5.89847">
        <ele>1614</ele>
        <time>2012-01-11T09:09:47.000Z</time>
      </trkpt>
      <trkpt lat="45.35625" lon="5.89842">
        <ele>1615</ele>
        <time>2012-01-11T09:09:53.000Z</time>
      </trkpt>
      <trkpt lat="45.35626" lon="5.89839">
        <ele>1615.5999755859</ele>
        <time>2012-01-11T09:09:57.000Z</time>
      </trkpt>
      <trkpt lat="45.35628" lon="5.89839">
        <ele>1617.4000244141</ele>
        <time>2012-01-11T09:10:02.000Z</time>
      </trkpt>
      <trkpt lat="45.35631" lon="5.8984">
        <ele>1618.8000488281</ele>
        <time>2012-01-11T09:10:06.000Z</time>
      </trkpt>
      <trkpt lat="45.35631" lon="5.89839">
        <ele>1619.4000244141</ele>
        <time>2012-01-11T09:10:10.000Z</time>
      </trkpt>
      <trkpt lat="45.35631" lon="5.89837">
        <ele>1621.4000244141</ele>
        <time>2012-01-11T09:10:17.000Z</time>
      </trkpt>
      <trkpt lat="45.35631" lon="5.89834">
        <ele>1621.4000244141</ele>
        <time>2012-01-11T09:10:22.000Z</time>
      </trkpt>
      <trkpt lat="45.35631" lon="5.89829">
        <ele>1621.4000244141</ele>
        <time>2012-01-11T09:10:32.000Z</time>
      </trkpt>
      <trkpt lat="45.35631" lon="5.89827">
        <ele>1622.1999511719</ele>
        <time>2012-01-11T09:10:37.000Z</time>
      </trkpt>
      <trkpt lat="45.3563" lon="5.89823">
        <ele>1623.1999511719</ele>
        <time>2012-01-11T09:10:43.000Z</time>
      </trkpt>
      <trkpt lat="45.3563" lon="5.89822">
        <ele>1622.1999511719</ele>
        <time>2012-01-11T09:10:48.000Z</time>
      </trkpt>
      <trkpt lat="45.35629" lon="5.89818">
        <ele>1622.8000488281</ele>
        <time>2012-01-11T09:11:04.000Z</time>
      </trkpt>
      <trkpt lat="45.35628" lon="5.89818">
        <ele>1622.8000488281</ele>
        <time>2012-01-11T09:11:09.000Z</time>
      </trkpt>
      <trkpt lat="45.35626" lon="5.89814">
        <ele>1623.8000488281</ele>
        <time>2012-01-11T09:11:15.000Z</time>
      </trkpt>
      <trkpt lat="45.35625" lon="5.89811">
        <ele>1625.1999511719</ele>
        <time>2012-01-11T09:11:21.000Z</time>
      </trkpt>
      <trkpt lat="45.35623" lon="5.89807">
        <ele>1626.5999755859</ele>
        <time>2012-01-11T09:11:25.000Z</time>
      </trkpt>
      <trkpt lat="45.35623" lon="5.89805">
        <ele>1627.5999755859</ele>
        <time>2012-01-11T09:11:29.000Z</time>
      </trkpt>
      <trkpt lat="45.35622" lon="5.89802">
        <ele>1629.4000244141</ele>
        <time>2012-01-11T09:11:35.000Z</time>
      </trkpt>
      <trkpt lat="45.35622" lon="5.89798">
        <ele>1630.4000244141</ele>
        <time>2012-01-11T09:11:42.000Z</time>
      </trkpt>
      <trkpt lat="45.35622" lon="5.89798">
        <ele>1631.4000244141</ele>
        <time>2012-01-11T09:11:48.000Z</time>
      </trkpt>
      <trkpt lat="45.35621" lon="5.89794">
        <ele>1632.8000488281</ele>
        <time>2012-01-11T09:11:54.000Z</time>
      </trkpt>
      <trkpt lat="45.3562" lon="5.89791">
        <ele>1633.8000488281</ele>
        <time>2012-01-11T09:11:59.000Z</time>
      </trkpt>
      <trkpt lat="45.3562" lon="5.89788">
        <ele>1634.8000488281</ele>
        <time>2012-01-11T09:12:05.000Z</time>
      </trkpt>
      <trkpt lat="45.3562" lon="5.89786">
        <ele>1636.5999755859</ele>
        <time>2012-01-11T09:12:17.000Z</time>
      </trkpt>
      <trkpt lat="45.35619" lon="5.89781">
        <ele>1637.5999755859</ele>
        <time>2012-01-11T09:12:25.000Z</time>
      </trkpt>
      <trkpt lat="45.35619" lon="5.89777">
        <ele>1639</ele>
        <time>2012-01-11T09:12:30.000Z</time>
      </trkpt>
      <trkpt lat="45.35618" lon="5.89773">
        <ele>1640.5999755859</ele>
        <time>2012-01-11T09:12:35.000Z</time>
      </trkpt>
      <trkpt lat="45.35618" lon="5.89767">
        <ele>1641.4000244141</ele>
        <time>2012-01-11T09:12:41.000Z</time>
      </trkpt>
      <trkpt lat="45.35617" lon="5.89763">
        <ele>1642</ele>
        <time>2012-01-11T09:12:46.000Z</time>
      </trkpt>
      <trkpt lat="45.35616" lon="5.89759">
        <ele>1643</ele>
        <time>2012-01-11T09:12:51.000Z</time>
      </trkpt>
      <trkpt lat="45.35616" lon="5.89754">
        <ele>1644.8000488281</ele>
        <time>2012-01-11T09:12:57.000Z</time>
      </trkpt>
      <trkpt lat="45.35615" lon="5.8975">
        <ele>1645.4000244141</ele>
        <time>2012-01-11T09:13:02.000Z</time>
      </trkpt>
      <trkpt lat="45.35614" lon="5.89746">
        <ele>1646.1999511719</ele>
        <time>2012-01-11T09:13:08.000Z</time>
      </trkpt>
      <trkpt lat="45.35613" lon="5.89741">
        <ele>1647.8000488281</ele>
        <time>2012-01-11T09:13:15.000Z</time>
      </trkpt>
      <trkpt lat="45.35613" lon="5.89738">
        <ele>1647.8000488281</ele>
        <time>2012-01-11T09:13:20.000Z</time>
      </trkpt>
      <trkpt lat="45.35611" lon="5.89733">
        <ele>1646.1999511719</ele>
        <time>2012-01-11T09:13:34.000Z</time>
      </trkpt>
      <trkpt lat="45.3561" lon="5.8973">
        <ele>1646.8000488281</ele>
        <time>2012-01-11T09:13:36.000Z</time>
      </trkpt>
      <trkpt lat="45.35609" lon="5.89721">
        <ele>1648.5999755859</ele>
        <time>2012-01-11T09:13:42.000Z</time>
      </trkpt>
      <trkpt lat="45.35609" lon="5.89718">
        <ele>1649.1999511719</ele>
        <time>2012-01-11T09:13:46.000Z</time>
      </trkpt>
      <trkpt lat="45.35605" lon="5.89714">
        <ele>1655.4000244141</ele>
        <time>2012-01-11T09:13:56.000Z</time>
      </trkpt>
      <trkpt lat="45.35607" lon="5.89714">
        <ele>1656</ele>
        <time>2012-01-11T09:14:08.000Z</time>
      </trkpt>
      <trkpt lat="45.35608" lon="5.89717">
        <ele>1656</ele>
        <time>2012-01-11T09:14:20.000Z</time>
      </trkpt>
      <trkpt lat="45.35609" lon="5.89715">
        <ele>1656</ele>
        <time>2012-01-11T09:14:59.000Z</time>
      </trkpt>
      <trkpt lat="45.35609" lon="5.89712">
        <ele>1656.4000244141</ele>
        <time>2012-01-11T09:15:03.000Z</time>
      </trkpt>
      <trkpt lat="45.35608" lon="5.8971">
        <ele>1656.8000488281</ele>
        <time>2012-01-11T09:15:09.000Z</time>
      </trkpt>
      <trkpt lat="45.35607" lon="5.89708">
        <ele>1657.4000244141</ele>
        <time>2012-01-11T09:15:15.000Z</time>
      </trkpt>
      <trkpt lat="45.35608" lon="5.89706">
        <ele>1658.8000488281</ele>
        <time>2012-01-11T09:15:20.000Z</time>
      </trkpt>
      <trkpt lat="45.35608" lon="5.89705">
        <ele>1661.1999511719</ele>
        <time>2012-01-11T09:15:49.000Z</time>
      </trkpt>
      <trkpt lat="45.35608" lon="5.89701">
        <ele>1662.1999511719</ele>
        <time>2012-01-11T09:16:00.000Z</time>
      </trkpt>
      <trkpt lat="45.35606" lon="5.89695">
        <ele>1664.5999755859</ele>
        <time>2012-01-11T09:16:08.000Z</time>
      </trkpt>
      <trkpt lat="45.35607" lon="5.89695">
        <ele>1665</ele>
        <time>2012-01-11T09:16:14.000Z</time>
      </trkpt>
      <trkpt lat="45.35609" lon="5.89694">
        <ele>1664</ele>
        <time>2012-01-11T09:16:21.000Z</time>
      </trkpt>
      <trkpt lat="45.35614" lon="5.89694">
        <ele>1663.5999755859</ele>
        <time>2012-01-11T09:17:07.000Z</time>
      </trkpt>
      <trkpt lat="45.35622" lon="5.89688">
        <ele>1649.1999511719</ele>
        <time>2012-01-11T09:18:04.000Z</time>
      </trkpt>
      <trkpt lat="45.35622" lon="5.8969">
        <ele>1651.5999755859</ele>
        <time>2012-01-11T09:18:24.000Z</time>
      </trkpt>
      <trkpt lat="45.35615" lon="5.89692">
        <ele>1656.8000488281</ele>
        <time>2012-01-11T09:20:11.000Z</time>
      </trkpt>
      <trkpt lat="45.35611" lon="5.89695">
        <ele>1659.8000488281</ele>
        <time>2012-01-11T09:23:35.000Z</time>
      </trkpt>
      <trkpt lat="45.35612" lon="5.89695">
        <ele>1660.8000488281</ele>
        <time>2012-01-11T09:23:46.000Z</time>
      </trkpt>
      <trkpt lat="45.35613" lon="5.89693">
        <ele>1661.5999755859</ele>
        <time>2012-01-11T09:23:50.000Z</time>
      </trkpt>
      <trkpt lat="45.35613" lon="5.8969">
        <ele>1663.1999511719</ele>
        <time>2012-01-11T09:23:55.000Z</time>
      </trkpt>
      <trkpt lat="45.35613" lon="5.89687">
        <ele>1665</ele>
        <time>2012-01-11T09:23:59.000Z</time>
      </trkpt>
      <trkpt lat="45.35613" lon="5.89685">
        <ele>1666</ele>
        <time>2012-01-11T09:24:03.000Z</time>
      </trkpt>
      <trkpt lat="45.35613" lon="5.89682">
        <ele>1667.4000244141</ele>
        <time>2012-01-11T09:24:08.000Z</time>
      </trkpt>
      <trkpt lat="45.35613" lon="5.89679">
        <ele>1669.8000488281</ele>
        <time>2012-01-11T09:24:15.000Z</time>
      </trkpt>
      <trkpt lat="45.35613" lon="5.89676">
        <ele>1671.8000488281</ele>
        <time>2012-01-11T09:24:20.000Z</time>
      </trkpt>
      <trkpt lat="45.35612" lon="5.89672">
        <ele>1674.1999511719</ele>
        <time>2012-01-11T09:24:26.000Z</time>
      </trkpt>
      <trkpt lat="45.35612" lon="5.89669">
        <ele>1675.5999755859</ele>
        <time>2012-01-11T09:24:31.000Z</time>
      </trkpt>
      <trkpt lat="45.35611" lon="5.89667">
        <ele>1677</ele>
        <time>2012-01-11T09:24:35.000Z</time>
      </trkpt>
      <trkpt lat="45.35611" lon="5.89663">
        <ele>1678</ele>
        <time>2012-01-11T09:24:42.000Z</time>
      </trkpt>
      <trkpt lat="45.35611" lon="5.8966">
        <ele>1678</ele>
        <time>2012-01-11T09:24:47.000Z</time>
      </trkpt>
      <trkpt lat="45.3561" lon="5.89654">
        <ele>1679</ele>
        <time>2012-01-11T09:24:55.000Z</time>
      </trkpt>
      <trkpt lat="45.35612" lon="5.89652">
        <ele>1679.4000244141</ele>
        <time>2012-01-11T09:25:02.000Z</time>
      </trkpt>
      <trkpt lat="45.35614" lon="5.89652">
        <ele>1679.4000244141</ele>
        <time>2012-01-11T09:25:06.000Z</time>
      </trkpt>
      <trkpt lat="45.35618" lon="5.89653">
        <ele>1679.4000244141</ele>
        <time>2012-01-11T09:25:10.000Z</time>
      </trkpt>
      <trkpt lat="45.35621" lon="5.89653">
        <ele>1679.4000244141</ele>
        <time>2012-01-11T09:25:14.000Z</time>
      </trkpt>
      <trkpt lat="45.35622" lon="5.89653">
        <ele>1680</ele>
        <time>2012-01-11T09:25:19.000Z</time>
      </trkpt>
      <trkpt lat="45.35622" lon="5.89652">
        <ele>1681</ele>
        <time>2012-01-11T09:25:25.000Z</time>
      </trkpt>
      <trkpt lat="45.35621" lon="5.89651">
        <ele>1681.4000244141</ele>
        <time>2012-01-11T09:25:35.000Z</time>
      </trkpt>
      <trkpt lat="45.35619" lon="5.89647">
        <ele>1681.8000488281</ele>
        <time>2012-01-11T09:25:43.000Z</time>
      </trkpt>
      <trkpt lat="45.35619" lon="5.89644">
        <ele>1682.8000488281</ele>
        <time>2012-01-11T09:25:49.000Z</time>
      </trkpt>
      <trkpt lat="45.35622" lon="5.89644">
        <ele>1682.4000244141</ele>
        <time>2012-01-11T09:25:55.000Z</time>
      </trkpt>
      <trkpt lat="45.35625" lon="5.89647">
        <ele>1682.4000244141</ele>
        <time>2012-01-11T09:25:59.000Z</time>
      </trkpt>
      <trkpt lat="45.35627" lon="5.8965">
        <ele>1682.4000244141</ele>
        <time>2012-01-11T09:26:03.000Z</time>
      </trkpt>
      <trkpt lat="45.3563" lon="5.89654">
        <ele>1683.4000244141</ele>
        <time>2012-01-11T09:26:08.000Z</time>
      </trkpt>
      <trkpt lat="45.35632" lon="5.89655">
        <ele>1683.8000488281</ele>
        <time>2012-01-11T09:26:11.000Z</time>
      </trkpt>
      <trkpt lat="45.35632" lon="5.89657">
        <ele>1684.8000488281</ele>
        <time>2012-01-11T09:26:16.000Z</time>
      </trkpt>
      <trkpt lat="45.35636" lon="5.8966">
        <ele>1686.1999511719</ele>
        <time>2012-01-11T09:26:24.000Z</time>
      </trkpt>
      <trkpt lat="45.35638" lon="5.89659">
        <ele>1686.1999511719</ele>
        <time>2012-01-11T09:26:29.000Z</time>
      </trkpt>
      <trkpt lat="45.35637" lon="5.89658">
        <ele>1688.1999511719</ele>
        <time>2012-01-11T09:26:43.000Z</time>
      </trkpt>
      <trkpt lat="45.35637" lon="5.89655">
        <ele>1689</ele>
        <time>2012-01-11T09:26:47.000Z</time>
      </trkpt>
      <trkpt lat="45.35637" lon="5.89652">
        <ele>1690</ele>
        <time>2012-01-11T09:26:53.000Z</time>
      </trkpt>
      <trkpt lat="45.35638" lon="5.89653">
        <ele>1690</ele>
        <time>2012-01-11T09:26:59.000Z</time>
      </trkpt>
      <trkpt lat="45.35641" lon="5.89655">
        <ele>1691</ele>
        <time>2012-01-11T09:27:07.000Z</time>
      </trkpt>
      <trkpt lat="45.35641" lon="5.89656">
        <ele>1692</ele>
        <time>2012-01-11T09:27:14.000Z</time>
      </trkpt>
      <trkpt lat="45.35643" lon="5.89658">
        <ele>1694.4000244141</ele>
        <time>2012-01-11T09:27:22.000Z</time>
      </trkpt>
      <trkpt lat="45.35646" lon="5.89659">
        <ele>1695.8000488281</ele>
        <time>2012-01-11T09:27:28.000Z</time>
      </trkpt>
      <trkpt lat="45.35649" lon="5.89661">
        <ele>1696.1999511719</ele>
        <time>2012-01-11T09:27:31.000Z</time>
      </trkpt>
      <trkpt lat="45.35651" lon="5.89663">
        <ele>1695.8000488281</ele>
        <time>2012-01-11T09:27:36.000Z</time>
      </trkpt>
      <trkpt lat="45.35651" lon="5.89663">
        <ele>1695.4000244141</ele>
        <time>2012-01-11T09:27:42.000Z</time>
      </trkpt>
      <trkpt lat="45.3565" lon="5.89658">
        <ele>1695.4000244141</ele>
        <time>2012-01-11T09:27:47.000Z</time>
      </trkpt>
      <trkpt lat="45.3565" lon="5.89653">
        <ele>1694.8000488281</ele>
        <time>2012-01-11T09:27:51.000Z</time>
      </trkpt>
      <trkpt lat="45.35647" lon="5.89648">
        <ele>1695.8000488281</ele>
        <time>2012-01-11T09:27:56.000Z</time>
      </trkpt>
      <trkpt lat="45.35644" lon="5.89642">
        <ele>1695.8000488281</ele>
        <time>2012-01-11T09:28:02.000Z</time>
      </trkpt>
      <trkpt lat="45.35643" lon="5.8964">
        <ele>1696.1999511719</ele>
        <time>2012-01-11T09:28:08.000Z</time>
      </trkpt>
      <trkpt lat="45.35641" lon="5.89636">
        <ele>1698.1999511719</ele>
        <time>2012-01-11T09:28:14.000Z</time>
      </trkpt>
      <trkpt lat="45.35641" lon="5.89632">
        <ele>1699.5999755859</ele>
        <time>2012-01-11T09:28:18.000Z</time>
      </trkpt>
      <trkpt lat="45.35643" lon="5.89631">
        <ele>1700.5999755859</ele>
        <time>2012-01-11T09:28:24.000Z</time>
      </trkpt>
      <trkpt lat="45.35645" lon="5.8963">
        <ele>1701</ele>
        <time>2012-01-11T09:28:33.000Z</time>
      </trkpt>
      <trkpt lat="45.35651" lon="5.89631">
        <ele>1700.5999755859</ele>
        <time>2012-01-11T09:28:52.000Z</time>
      </trkpt>
      <trkpt lat="45.35652" lon="5.89628">
        <ele>1702</ele>
        <time>2012-01-11T09:29:02.000Z</time>
      </trkpt>
      <trkpt lat="45.35652" lon="5.89625">
        <ele>1702.5999755859</ele>
        <time>2012-01-11T09:29:07.000Z</time>
      </trkpt>
      <trkpt lat="45.35651" lon="5.89622">
        <ele>1703</ele>
        <time>2012-01-11T09:29:12.000Z</time>
      </trkpt>
      <trkpt lat="45.35651" lon="5.8962">
        <ele>1703.4000244141</ele>
        <time>2012-01-11T09:29:17.000Z</time>
      </trkpt>
      <trkpt lat="45.35651" lon="5.89615">
        <ele>1705.4000244141</ele>
        <time>2012-01-11T09:29:31.000Z</time>
      </trkpt>
      <trkpt lat="45.35649" lon="5.89611">
        <ele>1708.4000244141</ele>
        <time>2012-01-11T09:29:40.000Z</time>
      </trkpt>
      <trkpt lat="45.35648" lon="5.89608">
        <ele>1709.8000488281</ele>
        <time>2012-01-11T09:29:44.000Z</time>
      </trkpt>
      <trkpt lat="45.35647" lon="5.89603">
        <ele>1710.8000488281</ele>
        <time>2012-01-11T09:29:49.000Z</time>
      </trkpt>
      <trkpt lat="45.35645" lon="5.89598">
        <ele>1710.8000488281</ele>
        <time>2012-01-11T09:29:57.000Z</time>
      </trkpt>
      <trkpt lat="45.35646" lon="5.89599">
        <ele>1712.5999755859</ele>
        <time>2012-01-11T09:30:01.000Z</time>
      </trkpt>
      <trkpt lat="45.35648" lon="5.89603">
        <ele>1718.8000488281</ele>
        <time>2012-01-11T09:30:09.000Z</time>
      </trkpt>
      <trkpt lat="45.35646" lon="5.89602">
        <ele>1720.8000488281</ele>
        <time>2012-01-11T09:30:13.000Z</time>
      </trkpt>
      <trkpt lat="45.35645" lon="5.89599">
        <ele>1719.4000244141</ele>
        <time>2012-01-11T09:30:18.000Z</time>
      </trkpt>
      <trkpt lat="45.35643" lon="5.89599">
        <ele>1724.5999755859</ele>
        <time>2012-01-11T09:30:27.000Z</time>
      </trkpt>
      <trkpt lat="45.35641" lon="5.89596">
        <ele>1726</ele>
        <time>2012-01-11T09:30:32.000Z</time>
      </trkpt>
      <trkpt lat="45.35639" lon="5.89594">
        <ele>1728.4000244141</ele>
        <time>2012-01-11T09:30:40.000Z</time>
      </trkpt>
      <trkpt lat="45.35638" lon="5.89593">
        <ele>1732.4000244141</ele>
        <time>2012-01-11T09:30:45.000Z</time>
      </trkpt>
      <trkpt lat="45.35638" lon="5.89597">
        <ele>1738.1999511719</ele>
        <time>2012-01-11T09:31:10.000Z</time>
      </trkpt>
      <trkpt lat="45.35642" lon="5.89594">
        <ele>1740.5999755859</ele>
        <time>2012-01-11T09:31:21.000Z</time>
      </trkpt>
      <trkpt lat="45.35643" lon="5.89596">
        <ele>1743</ele>
        <time>2012-01-11T09:31:25.000Z</time>
      </trkpt>
      <trkpt lat="45.35641" lon="5.89595">
        <ele>1744.8000488281</ele>
        <time>2012-01-11T09:31:32.000Z</time>
      </trkpt>
      <trkpt lat="45.35638" lon="5.89593">
        <ele>1745.4000244141</ele>
        <time>2012-01-11T09:31:41.000Z</time>
      </trkpt>
      <trkpt lat="45.35641" lon="5.89591">
        <ele>1744.8000488281</ele>
        <time>2012-01-11T09:31:49.000Z</time>
      </trkpt>
      <trkpt lat="45.35644" lon="5.8959">
        <ele>1744.8000488281</ele>
        <time>2012-01-11T09:31:53.000Z</time>
      </trkpt>
      <trkpt lat="45.35646" lon="5.89592">
        <ele>1744.8000488281</ele>
        <time>2012-01-11T09:31:59.000Z</time>
      </trkpt>
      <trkpt lat="45.35646" lon="5.89593">
        <ele>1746.1999511719</ele>
        <time>2012-01-11T09:32:07.000Z</time>
      </trkpt>
      <trkpt lat="45.3565" lon="5.89596">
        <ele>1750.1999511719</ele>
        <time>2012-01-11T09:32:12.000Z</time>
      </trkpt>
      <trkpt lat="45.35654" lon="5.89598">
        <ele>1753.4000244141</ele>
        <time>2012-01-11T09:32:20.000Z</time>
      </trkpt>
      <trkpt lat="45.35658" lon="5.89599">
        <ele>1755</ele>
        <time>2012-01-11T09:32:25.000Z</time>
      </trkpt>
      <trkpt lat="45.3566" lon="5.896">
        <ele>1757.4000244141</ele>
        <time>2012-01-11T09:32:29.000Z</time>
      </trkpt>
      <trkpt lat="45.35662" lon="5.89598">
        <ele>1755.8000488281</ele>
        <time>2012-01-11T09:32:34.000Z</time>
      </trkpt>
      <trkpt lat="45.35663" lon="5.896">
        <ele>1758.8000488281</ele>
        <time>2012-01-11T09:32:39.000Z</time>
      </trkpt>
      <trkpt lat="45.35663" lon="5.89598">
        <ele>1755.8000488281</ele>
        <time>2012-01-11T09:32:44.000Z</time>
      </trkpt>
      <trkpt lat="45.35663" lon="5.89593">
        <ele>1749.1999511719</ele>
        <time>2012-01-11T09:32:56.000Z</time>
      </trkpt>
      <trkpt lat="45.35663" lon="5.89592">
        <ele>1745.8000488281</ele>
        <time>2012-01-11T09:33:06.000Z</time>
      </trkpt>
      <trkpt lat="45.35663" lon="5.89592">
        <ele>1746.1999511719</ele>
        <time>2012-01-11T09:33:12.000Z</time>
      </trkpt>
      <trkpt lat="45.35661" lon="5.8959">
        <ele>1747.1999511719</ele>
        <time>2012-01-11T09:33:21.000Z</time>
      </trkpt>
      <trkpt lat="45.35658" lon="5.89587">
        <ele>1754</ele>
        <time>2012-01-11T09:33:28.000Z</time>
      </trkpt>
      <trkpt lat="45.35657" lon="5.89586">
        <ele>1756.4000244141</ele>
        <time>2012-01-11T09:33:32.000Z</time>
      </trkpt>
      <trkpt lat="45.35658" lon="5.89582">
        <ele>1755.8000488281</ele>
        <time>2012-01-11T09:33:38.000Z</time>
      </trkpt>
      <trkpt lat="45.35661" lon="5.89582">
        <ele>1755.8000488281</ele>
        <time>2012-01-11T09:33:47.000Z</time>
      </trkpt>
      <trkpt lat="45.35664" lon="5.89584">
        <ele>1755.8000488281</ele>
        <time>2012-01-11T09:33:52.000Z</time>
      </trkpt>
      <trkpt lat="45.35666" lon="5.89583">
        <ele>1756.4000244141</ele>
        <time>2012-01-11T09:33:55.000Z</time>
      </trkpt>
      <trkpt lat="45.35665" lon="5.89581">
        <ele>1756.4000244141</ele>
        <time>2012-01-11T09:34:02.000Z</time>
      </trkpt>
      <trkpt lat="45.35664" lon="5.89575">
        <ele>1755</ele>
        <time>2012-01-11T09:34:08.000Z</time>
      </trkpt>
      <trkpt lat="45.35662" lon="5.8957">
        <ele>1754</ele>
        <time>2012-01-11T09:34:13.000Z</time>
      </trkpt>
      <trkpt lat="45.35657" lon="5.89564">
        <ele>1757.4000244141</ele>
        <time>2012-01-11T09:34:30.000Z</time>
      </trkpt>
      <trkpt lat="45.35657" lon="5.89565">
        <ele>1759.8000488281</ele>
        <time>2012-01-11T09:34:35.000Z</time>
      </trkpt>
      <trkpt lat="45.35661" lon="5.89564">
        <ele>1756.8000488281</ele>
        <time>2012-01-11T09:34:40.000Z</time>
      </trkpt>
      <trkpt lat="45.35665" lon="5.89564">
        <ele>1757.8000488281</ele>
        <time>2012-01-11T09:34:46.000Z</time>
      </trkpt>
      <trkpt lat="45.35667" lon="5.89566">
        <ele>1761.1999511719</ele>
        <time>2012-01-11T09:34:55.000Z</time>
      </trkpt>
      <trkpt lat="45.35669" lon="5.89569">
        <ele>1768.4000244141</ele>
        <time>2012-01-11T09:35:14.000Z</time>
      </trkpt>
      <trkpt lat="45.35668" lon="5.89568">
        <ele>1770.8000488281</ele>
        <time>2012-01-11T09:35:20.000Z</time>
      </trkpt>
      <trkpt lat="45.3567" lon="5.89571">
        <ele>1774.1999511719</ele>
        <time>2012-01-11T09:35:24.000Z</time>
      </trkpt>
      <trkpt lat="45.35673" lon="5.89574">
        <ele>1775.1999511719</ele>
        <time>2012-01-11T09:35:30.000Z</time>
      </trkpt>
      <trkpt lat="45.35674" lon="5.89579">
        <ele>1777.5999755859</ele>
        <time>2012-01-11T09:35:35.000Z</time>
      </trkpt>
      <trkpt lat="45.35675" lon="5.89581">
        <ele>1780.8000488281</ele>
        <time>2012-01-11T09:35:38.000Z</time>
      </trkpt>
      <trkpt lat="45.35677" lon="5.89586">
        <ele>1786.5999755859</ele>
        <time>2012-01-11T09:35:43.000Z</time>
      </trkpt>
      <trkpt lat="45.35679" lon="5.89587">
        <ele>1786.1999511719</ele>
        <time>2012-01-11T09:35:47.000Z</time>
      </trkpt>
      <trkpt lat="45.3568" lon="5.89583">
        <ele>1781.8000488281</ele>
        <time>2012-01-11T09:36:08.000Z</time>
      </trkpt>
      <trkpt lat="45.35684" lon="5.89589">
        <ele>1787.5999755859</ele>
        <time>2012-01-11T09:36:17.000Z</time>
      </trkpt>
      <trkpt lat="45.35685" lon="5.89588">
        <ele>1785.1999511719</ele>
        <time>2012-01-11T09:36:18.000Z</time>
      </trkpt>
      <trkpt lat="45.35691" lon="5.8958">
        <ele>1765.4000244141</ele>
        <time>2012-01-11T09:36:27.000Z</time>
      </trkpt>
      <trkpt lat="45.35698" lon="5.89581">
        <ele>1758.8000488281</ele>
        <time>2012-01-11T09:36:39.000Z</time>
      </trkpt>
      <trkpt lat="45.35697" lon="5.89579">
        <ele>1758.8000488281</ele>
        <time>2012-01-11T09:36:47.000Z</time>
      </trkpt>
      <trkpt lat="45.35696" lon="5.89576">
        <ele>1759.1999511719</ele>
        <time>2012-01-11T09:36:52.000Z</time>
      </trkpt>
      <trkpt lat="45.35695" lon="5.89568">
        <ele>1760.5999755859</ele>
        <time>2012-01-11T09:37:04.000Z</time>
      </trkpt>
      <trkpt lat="45.35694" lon="5.89564">
        <ele>1762.5999755859</ele>
        <time>2012-01-11T09:37:09.000Z</time>
      </trkpt>
      <trkpt lat="45.35692" lon="5.8956">
        <ele>1766</ele>
        <time>2012-01-11T09:37:14.000Z</time>
      </trkpt>
      <trkpt lat="45.35688" lon="5.89552">
        <ele>1771.8000488281</ele>
        <time>2012-01-11T09:37:29.000Z</time>
      </trkpt>
      <trkpt lat="45.35686" lon="5.89551">
        <ele>1773.5999755859</ele>
        <time>2012-01-11T09:37:33.000Z</time>
      </trkpt>
      <trkpt lat="45.35684" lon="5.89549">
        <ele>1775.5999755859</ele>
        <time>2012-01-11T09:37:38.000Z</time>
      </trkpt>
      <trkpt lat="45.35683" lon="5.89551">
        <ele>1779</ele>
        <time>2012-01-11T09:37:48.000Z</time>
      </trkpt>
      <trkpt lat="45.35681" lon="5.89549">
        <ele>1781.8000488281</ele>
        <time>2012-01-11T09:37:58.000Z</time>
      </trkpt>
      <trkpt lat="45.35683" lon="5.8955">
        <ele>1783.8000488281</ele>
        <time>2012-01-11T09:38:03.000Z</time>
      </trkpt>
      <trkpt lat="45.35686" lon="5.89553">
        <ele>1787.5999755859</ele>
        <time>2012-01-11T09:38:08.000Z</time>
      </trkpt>
      <trkpt lat="45.35689" lon="5.89555">
        <ele>1790</ele>
        <time>2012-01-11T09:38:12.000Z</time>
      </trkpt>
      <trkpt lat="45.35691" lon="5.89551">
        <ele>1783.1999511719</ele>
        <time>2012-01-11T09:38:17.000Z</time>
      </trkpt>
      <trkpt lat="45.35694" lon="5.89556">
        <ele>1791</ele>
        <time>2012-01-11T09:38:41.000Z</time>
      </trkpt>
      <trkpt lat="45.35697" lon="5.89556">
        <ele>1787.1999511719</ele>
        <time>2012-01-11T09:38:46.000Z</time>
      </trkpt>
      <trkpt lat="45.35699" lon="5.89559">
        <ele>1785.1999511719</ele>
        <time>2012-01-11T09:38:50.000Z</time>
      </trkpt>
      <trkpt lat="45.357" lon="5.89561">
        <ele>1783.8000488281</ele>
        <time>2012-01-11T09:38:54.000Z</time>
      </trkpt>
      <trkpt lat="45.35702" lon="5.89562">
        <ele>1782.8000488281</ele>
        <time>2012-01-11T09:38:59.000Z</time>
      </trkpt>
      <trkpt lat="45.35705" lon="5.89564">
        <ele>1781.8000488281</ele>
        <time>2012-01-11T09:39:05.000Z</time>
      </trkpt>
      <trkpt lat="45.35706" lon="5.89566">
        <ele>1781.4000244141</ele>
        <time>2012-01-11T09:39:11.000Z</time>
      </trkpt>
      <trkpt lat="45.35707" lon="5.8957">
        <ele>1784.8000488281</ele>
        <time>2012-01-11T09:39:25.000Z</time>
      </trkpt>
      <trkpt lat="45.35707" lon="5.89569">
        <ele>1784.1999511719</ele>
        <time>2012-01-11T09:39:31.000Z</time>
      </trkpt>
      <trkpt lat="45.35707" lon="5.89567">
        <ele>1784.8000488281</ele>
        <time>2012-01-11T09:39:36.000Z</time>
      </trkpt>
      <trkpt lat="45.35706" lon="5.89564">
        <ele>1784.8000488281</ele>
        <time>2012-01-11T09:39:46.000Z</time>
      </trkpt>
      <trkpt lat="45.35705" lon="5.89559">
        <ele>1785.1999511719</ele>
        <time>2012-01-11T09:39:50.000Z</time>
      </trkpt>
      <trkpt lat="45.35706" lon="5.89552">
        <ele>1783.8000488281</ele>
        <time>2012-01-11T09:39:58.000Z</time>
      </trkpt>
      <trkpt lat="45.35705" lon="5.89546">
        <ele>1784.1999511719</ele>
        <time>2012-01-11T09:40:03.000Z</time>
      </trkpt>
      <trkpt lat="45.35706" lon="5.89543">
        <ele>1784.8000488281</ele>
        <time>2012-01-11T09:40:07.000Z</time>
      </trkpt>
      <trkpt lat="45.35712" lon="5.89552">
        <ele>1788</ele>
        <time>2012-01-11T09:40:25.000Z</time>
      </trkpt>
      <trkpt lat="45.35719" lon="5.89561">
        <ele>1789.5999755859</ele>
        <time>2012-01-11T09:40:42.000Z</time>
      </trkpt>
      <trkpt lat="45.3572" lon="5.89566">
        <ele>1790.4000244141</ele>
        <time>2012-01-11T09:40:48.000Z</time>
      </trkpt>
      <trkpt lat="45.35722" lon="5.89572">
        <ele>1791.4000244141</ele>
        <time>2012-01-11T09:40:55.000Z</time>
      </trkpt>
      <trkpt lat="45.35725" lon="5.89575">
        <ele>1791.4000244141</ele>
        <time>2012-01-11T09:40:59.000Z</time>
      </trkpt>
      <trkpt lat="45.35729" lon="5.89579">
        <ele>1790.4000244141</ele>
        <time>2012-01-11T09:41:04.000Z</time>
      </trkpt>
      <trkpt lat="45.3573" lon="5.89583">
        <ele>1792.4000244141</ele>
        <time>2012-01-11T09:41:08.000Z</time>
      </trkpt>
      <trkpt lat="45.35733" lon="5.89591">
        <ele>1793.4000244141</ele>
        <time>2012-01-11T09:41:20.000Z</time>
      </trkpt>
      <trkpt lat="45.35736" lon="5.89595">
        <ele>1792.8000488281</ele>
        <time>2012-01-11T09:41:25.000Z</time>
      </trkpt>
      <trkpt lat="45.35739" lon="5.89598">
        <ele>1793.8000488281</ele>
        <time>2012-01-11T09:41:31.000Z</time>
      </trkpt>
      <trkpt lat="45.35738" lon="5.89604">
        <ele>1794.8000488281</ele>
        <time>2012-01-11T09:41:35.000Z</time>
      </trkpt>
      <trkpt lat="45.3574" lon="5.8961">
        <ele>1795.1999511719</ele>
        <time>2012-01-11T09:41:40.000Z</time>
      </trkpt>
      <trkpt lat="45.35737" lon="5.8962">
        <ele>1796.8000488281</ele>
        <time>2012-01-11T09:41:46.000Z</time>
      </trkpt>
      <trkpt lat="45.35736" lon="5.89629">
        <ele>1798.5999755859</ele>
        <time>2012-01-11T09:41:52.000Z</time>
      </trkpt>
      <trkpt lat="45.35734" lon="5.89632">
        <ele>1799.5999755859</ele>
        <time>2012-01-11T09:41:54.000Z</time>
      </trkpt>
      <trkpt lat="45.35727" lon="5.89643">
        <ele>1802</ele>
        <time>2012-01-11T09:42:00.000Z</time>
      </trkpt>
      <trkpt lat="45.35727" lon="5.8965">
        <ele>1804.4000244141</ele>
        <time>2012-01-11T09:42:05.000Z</time>
      </trkpt>
      <trkpt lat="45.35721" lon="5.89659">
        <ele>1807.4000244141</ele>
        <time>2012-01-11T09:42:12.000Z</time>
      </trkpt>
      <trkpt lat="45.35726" lon="5.89662">
        <ele>1806.8000488281</ele>
        <time>2012-01-11T09:42:17.000Z</time>
      </trkpt>
      <trkpt lat="45.3573" lon="5.89663">
        <ele>1806.4000244141</ele>
        <time>2012-01-11T09:42:21.000Z</time>
      </trkpt>
      <trkpt lat="45.35733" lon="5.89666">
        <ele>1806.4000244141</ele>
        <time>2012-01-11T09:42:28.000Z</time>
      </trkpt>
      <trkpt lat="45.35735" lon="5.89669">
        <ele>1807.4000244141</ele>
        <time>2012-01-11T09:42:47.000Z</time>
      </trkpt>
      <trkpt lat="45.35736" lon="5.8967">
        <ele>1806.8000488281</ele>
        <time>2012-01-11T09:42:48.000Z</time>
      </trkpt>
      <trkpt lat="45.35741" lon="5.89675">
        <ele>1807.4000244141</ele>
        <time>2012-01-11T09:42:54.000Z</time>
      </trkpt>
      <trkpt lat="45.35742" lon="5.89677">
        <ele>1807.8000488281</ele>
        <time>2012-01-11T09:42:58.000Z</time>
      </trkpt>
      <trkpt lat="45.35743" lon="5.89682">
        <ele>1809.8000488281</ele>
        <time>2012-01-11T09:43:02.000Z</time>
      </trkpt>
      <trkpt lat="45.3574" lon="5.89687">
        <ele>1812.5999755859</ele>
        <time>2012-01-11T09:43:08.000Z</time>
      </trkpt>
      <trkpt lat="45.35742" lon="5.8969">
        <ele>1811.5999755859</ele>
        <time>2012-01-11T09:43:14.000Z</time>
      </trkpt>
      <trkpt lat="45.35742" lon="5.89695">
        <ele>1811.5999755859</ele>
        <time>2012-01-11T09:43:22.000Z</time>
      </trkpt>
      <trkpt lat="45.35742" lon="5.897">
        <ele>1812.1999511719</ele>
        <time>2012-01-11T09:43:27.000Z</time>
      </trkpt>
      <trkpt lat="45.35741" lon="5.89706">
        <ele>1813</ele>
        <time>2012-01-11T09:43:32.000Z</time>
      </trkpt>
      <trkpt lat="45.35741" lon="5.89716">
        <ele>1814.5999755859</ele>
        <time>2012-01-11T09:43:40.000Z</time>
      </trkpt>
      <trkpt lat="45.3574" lon="5.89725">
        <ele>1816</ele>
        <time>2012-01-11T09:43:47.000Z</time>
      </trkpt>
      <trkpt lat="45.35738" lon="5.89735">
        <ele>1817.8000488281</ele>
        <time>2012-01-11T09:43:55.000Z</time>
      </trkpt>
      <trkpt lat="45.35737" lon="5.8974">
        <ele>1818.4000244141</ele>
        <time>2012-01-11T09:43:59.000Z</time>
      </trkpt>
      <trkpt lat="45.35734" lon="5.89749">
        <ele>1817.8000488281</ele>
        <time>2012-01-11T09:44:06.000Z</time>
      </trkpt>
      <trkpt lat="45.35734" lon="5.89757">
        <ele>1819.4000244141</ele>
        <time>2012-01-11T09:44:11.000Z</time>
      </trkpt>
      <trkpt lat="45.35734" lon="5.89762">
        <ele>1819.4000244141</ele>
        <time>2012-01-11T09:44:16.000Z</time>
      </trkpt>
      <trkpt lat="45.35736" lon="5.89766">
        <ele>1818.8000488281</ele>
        <time>2012-01-11T09:44:21.000Z</time>
      </trkpt>
      <trkpt lat="45.35738" lon="5.89771">
        <ele>1818.4000244141</ele>
        <time>2012-01-11T09:44:26.000Z</time>
      </trkpt>
      <trkpt lat="45.35739" lon="5.89768">
        <ele>1814.5999755859</ele>
        <time>2012-01-11T09:44:33.000Z</time>
      </trkpt>
      <trkpt lat="45.35739" lon="5.89766">
        <ele>1813.5999755859</ele>
        <time>2012-01-11T09:44:43.000Z</time>
      </trkpt>
      <trkpt lat="45.3574" lon="5.89766">
        <ele>1812.1999511719</ele>
        <time>2012-01-11T09:45:05.000Z</time>
      </trkpt>
      <trkpt lat="45.35741" lon="5.89767">
        <ele>1812.1999511719</ele>
        <time>2012-01-11T09:45:19.000Z</time>
      </trkpt>
      <trkpt lat="45.35742" lon="5.89772">
        <ele>1813</ele>
        <time>2012-01-11T09:45:25.000Z</time>
      </trkpt>
      <trkpt lat="45.35746" lon="5.89776">
        <ele>1816</ele>
        <time>2012-01-11T09:45:32.000Z</time>
      </trkpt>
      <trkpt lat="45.35753" lon="5.89782">
        <ele>1817</ele>
        <time>2012-01-11T09:45:39.000Z</time>
      </trkpt>
      <trkpt lat="45.35754" lon="5.89783">
        <ele>1817.4000244141</ele>
        <time>2012-01-11T09:45:41.000Z</time>
      </trkpt>
      <trkpt lat="45.35758" lon="5.89788">
        <ele>1817.8000488281</ele>
        <time>2012-01-11T09:45:48.000Z</time>
      </trkpt>
      <trkpt lat="45.35761" lon="5.89791">
        <ele>1819.8000488281</ele>
        <time>2012-01-11T09:45:53.000Z</time>
      </trkpt>
      <trkpt lat="45.35767" lon="5.89795">
        <ele>1819.8000488281</ele>
        <time>2012-01-11T09:45:59.000Z</time>
      </trkpt>
      <trkpt lat="45.3577" lon="5.89798">
        <ele>1819.8000488281</ele>
        <time>2012-01-11T09:46:05.000Z</time>
      </trkpt>
      <trkpt lat="45.3577" lon="5.89799">
        <ele>1819.8000488281</ele>
        <time>2012-01-11T09:46:11.000Z</time>
      </trkpt>
      <trkpt lat="45.3577" lon="5.89799">
        <ele>1818.4000244141</ele>
        <time>2012-01-11T09:46:21.000Z</time>
      </trkpt>
      <trkpt lat="45.35772" lon="5.89797">
        <ele>1815</ele>
        <time>2012-01-11T09:46:41.000Z</time>
      </trkpt>
      <trkpt lat="45.35772" lon="5.89796">
        <ele>1815</ele>
        <time>2012-01-11T09:46:46.000Z</time>
      </trkpt>
      <trkpt lat="45.35772" lon="5.89796">
        <ele>1815</ele>
        <time>2012-01-11T09:47:02.000Z</time>
      </trkpt>
      <trkpt lat="45.35773" lon="5.89798">
        <ele>1814.5999755859</ele>
        <time>2012-01-11T09:47:24.000Z</time>
      </trkpt>
      <trkpt lat="45.35777" lon="5.89798">
        <ele>1814</ele>
        <time>2012-01-11T09:47:29.000Z</time>
      </trkpt>
      <trkpt lat="45.35778" lon="5.89798">
        <ele>1814</ele>
        <time>2012-01-11T09:47:36.000Z</time>
      </trkpt>
      <trkpt lat="45.3578" lon="5.89799">
        <ele>1814.5999755859</ele>
        <time>2012-01-11T09:47:44.000Z</time>
      </trkpt>
      <trkpt lat="45.35783" lon="5.89798">
        <ele>1814</ele>
        <time>2012-01-11T09:47:53.000Z</time>
      </trkpt>
      <trkpt lat="45.35783" lon="5.89797">
        <ele>1813.5999755859</ele>
        <time>2012-01-11T09:47:54.000Z</time>
      </trkpt>
      <trkpt lat="45.35787" lon="5.89794">
        <ele>1812.1999511719</ele>
        <time>2012-01-11T09:48:00.000Z</time>
      </trkpt>
      <trkpt lat="45.35788" lon="5.89791">
        <ele>1811.1999511719</ele>
        <time>2012-01-11T09:48:02.000Z</time>
      </trkpt>
      <trkpt lat="45.35793" lon="5.89779">
        <ele>1809.1999511719</ele>
        <time>2012-01-11T09:48:09.000Z</time>
      </trkpt>
      <trkpt lat="45.35795" lon="5.89774">
        <ele>1808.8000488281</ele>
        <time>2012-01-11T09:48:15.000Z</time>
      </trkpt>
      <trkpt lat="45.35795" lon="5.89772">
        <ele>1808.1999511719</ele>
        <time>2012-01-11T09:48:17.000Z</time>
      </trkpt>
      <trkpt lat="45.358" lon="5.89763">
        <ele>1805.4000244141</ele>
        <time>2012-01-11T09:48:22.000Z</time>
      </trkpt>
      <trkpt lat="45.35803" lon="5.89759">
        <ele>1805</ele>
        <time>2012-01-11T09:48:24.000Z</time>
      </trkpt>
      <trkpt lat="45.35804" lon="5.89754">
        <ele>1804.4000244141</ele>
        <time>2012-01-11T09:48:30.000Z</time>
      </trkpt>
      <trkpt lat="45.35805" lon="5.89752">
        <ele>1805</ele>
        <time>2012-01-11T09:48:36.000Z</time>
      </trkpt>
      <trkpt lat="45.35806" lon="5.89751">
        <ele>1806.4000244141</ele>
        <time>2012-01-11T09:48:53.000Z</time>
      </trkpt>
      <trkpt lat="45.35808" lon="5.89748">
        <ele>1806.8000488281</ele>
        <time>2012-01-11T09:48:57.000Z</time>
      </trkpt>
      <trkpt lat="45.35812" lon="5.89745">
        <ele>1808.1999511719</ele>
        <time>2012-01-11T09:49:01.000Z</time>
      </trkpt>
      <trkpt lat="45.35814" lon="5.89745">
        <ele>1809.1999511719</ele>
        <time>2012-01-11T09:49:05.000Z</time>
      </trkpt>
      <trkpt lat="45.35815" lon="5.89745">
        <ele>1809.1999511719</ele>
        <time>2012-01-11T09:49:10.000Z</time>
      </trkpt>
      <trkpt lat="45.35819" lon="5.89745">
        <ele>1810.5999755859</ele>
        <time>2012-01-11T09:49:15.000Z</time>
      </trkpt>
      <trkpt lat="45.35821" lon="5.89747">
        <ele>1811.1999511719</ele>
        <time>2012-01-11T09:49:20.000Z</time>
      </trkpt>
      <trkpt lat="45.35825" lon="5.89747">
        <ele>1813.5999755859</ele>
        <time>2012-01-11T09:49:26.000Z</time>
      </trkpt>
      <trkpt lat="45.35824" lon="5.89746">
        <ele>1815.4000244141</ele>
        <time>2012-01-11T09:49:30.000Z</time>
      </trkpt>
      <trkpt lat="45.35823" lon="5.89744">
        <ele>1817</ele>
        <time>2012-01-11T09:49:35.000Z</time>
      </trkpt>
      <trkpt lat="45.35821" lon="5.89742">
        <ele>1819.4000244141</ele>
        <time>2012-01-11T09:49:39.000Z</time>
      </trkpt>
      <trkpt lat="45.3582" lon="5.8974">
        <ele>1820.8000488281</ele>
        <time>2012-01-11T09:49:44.000Z</time>
      </trkpt>
      <trkpt lat="45.35821" lon="5.89738">
        <ele>1821.1999511719</ele>
        <time>2012-01-11T09:49:48.000Z</time>
      </trkpt>
      <trkpt lat="45.35825" lon="5.89736">
        <ele>1822.1999511719</ele>
        <time>2012-01-11T09:49:53.000Z</time>
      </trkpt>
      <trkpt lat="45.35825" lon="5.89737">
        <ele>1822.5999755859</ele>
        <time>2012-01-11T09:49:58.000Z</time>
      </trkpt>
      <trkpt lat="45.35825" lon="5.89736">
        <ele>1822.5999755859</ele>
        <time>2012-01-11T09:50:02.000Z</time>
      </trkpt>
      <trkpt lat="45.35825" lon="5.89737">
        <ele>1823.5999755859</ele>
        <time>2012-01-11T09:50:08.000Z</time>
      </trkpt>
      <trkpt lat="45.35824" lon="5.89737">
        <ele>1823.1999511719</ele>
        <time>2012-01-11T09:50:15.000Z</time>
      </trkpt>
      <trkpt lat="45.35823" lon="5.89735">
        <ele>1822.5999755859</ele>
        <time>2012-01-11T09:50:23.000Z</time>
      </trkpt>
      <trkpt lat="45.35821" lon="5.89733">
        <ele>1822.5999755859</ele>
        <time>2012-01-11T09:50:28.000Z</time>
      </trkpt>
      <trkpt lat="45.35821" lon="5.89735">
        <ele>1825.1999511719</ele>
        <time>2012-01-11T09:50:39.000Z</time>
      </trkpt>
      <trkpt lat="45.35819" lon="5.89735">
        <ele>1825.5999755859</ele>
        <time>2012-01-11T09:50:43.000Z</time>
      </trkpt>
      <trkpt lat="45.35818" lon="5.89735">
        <ele>1826</ele>
        <time>2012-01-11T09:50:50.000Z</time>
      </trkpt>
      <trkpt lat="45.35816" lon="5.89735">
        <ele>1825.5999755859</ele>
        <time>2012-01-11T09:51:00.000Z</time>
      </trkpt>
      <trkpt lat="45.35812" lon="5.89736">
        <ele>1824.1999511719</ele>
        <time>2012-01-11T09:51:06.000Z</time>
      </trkpt>
      <trkpt lat="45.35811" lon="5.89738">
        <ele>1823.5999755859</ele>
        <time>2012-01-11T09:51:10.000Z</time>
      </trkpt>
      <trkpt lat="45.3581" lon="5.89738">
        <ele>1822.5999755859</ele>
        <time>2012-01-11T09:51:18.000Z</time>
      </trkpt>
      <trkpt lat="45.35808" lon="5.89738">
        <ele>1822.1999511719</ele>
        <time>2012-01-11T09:51:22.000Z</time>
      </trkpt>
      <trkpt lat="45.35809" lon="5.89734">
        <ele>1821.8000488281</ele>
        <time>2012-01-11T09:51:26.000Z</time>
      </trkpt>
      <trkpt lat="45.35808" lon="5.89731">
        <ele>1821.8000488281</ele>
        <time>2012-01-11T09:51:31.000Z</time>
      </trkpt>
      <trkpt lat="45.35808" lon="5.8973">
        <ele>1822.1999511719</ele>
        <time>2012-01-11T09:51:38.000Z</time>
      </trkpt>
      <trkpt lat="45.35807" lon="5.89727">
        <ele>1822.1999511719</ele>
        <time>2012-01-11T09:51:47.000Z</time>
      </trkpt>
      <trkpt lat="45.35808" lon="5.89727">
        <ele>1823.1999511719</ele>
        <time>2012-01-11T09:51:54.000Z</time>
      </trkpt>
      <trkpt lat="45.35808" lon="5.89726">
        <ele>1823.1999511719</ele>
        <time>2012-01-11T09:51:56.000Z</time>
      </trkpt>
      <trkpt lat="45.35806" lon="5.89726">
        <ele>1823.5999755859</ele>
        <time>2012-01-11T09:52:00.000Z</time>
      </trkpt>
      <trkpt lat="45.35806" lon="5.89726">
        <ele>1824.1999511719</ele>
        <time>2012-01-11T09:52:04.000Z</time>
      </trkpt>
      <trkpt lat="45.35808" lon="5.89726">
        <ele>1824.5999755859</ele>
        <time>2012-01-11T09:52:14.000Z</time>
      </trkpt>
      <trkpt lat="45.35809" lon="5.89724">
        <ele>1825.1999511719</ele>
        <time>2012-01-11T09:52:18.000Z</time>
      </trkpt>
      <trkpt lat="45.3581" lon="5.89722">
        <ele>1826</ele>
        <time>2012-01-11T09:52:23.000Z</time>
      </trkpt>
      <trkpt lat="45.3581" lon="5.89718">
        <ele>1825.5999755859</ele>
        <time>2012-01-11T09:52:29.000Z</time>
      </trkpt>
      <trkpt lat="45.3581" lon="5.89716">
        <ele>1825.5999755859</ele>
        <time>2012-01-11T09:52:32.000Z</time>
      </trkpt>
      <trkpt lat="45.35811" lon="5.8971">
        <ele>1825.5999755859</ele>
        <time>2012-01-11T09:52:37.000Z</time>
      </trkpt>
      <trkpt lat="45.35812" lon="5.89704">
        <ele>1825.5999755859</ele>
        <time>2012-01-11T09:52:43.000Z</time>
      </trkpt>
      <trkpt lat="45.35813" lon="5.89699">
        <ele>1825.5999755859</ele>
        <time>2012-01-11T09:52:47.000Z</time>
      </trkpt>
      <trkpt lat="45.35814" lon="5.89695">
        <ele>1826</ele>
        <time>2012-01-11T09:52:51.000Z</time>
      </trkpt>
      <trkpt lat="45.35815" lon="5.89691">
        <ele>1827</ele>
        <time>2012-01-11T09:52:56.000Z</time>
      </trkpt>
      <trkpt lat="45.35815" lon="5.89689">
        <ele>1828</ele>
        <time>2012-01-11T09:53:01.000Z</time>
      </trkpt>
      <trkpt lat="45.35815" lon="5.89689">
        <ele>1829.4000244141</ele>
        <time>2012-01-11T09:53:07.000Z</time>
      </trkpt>
      <trkpt lat="45.35815" lon="5.8969">
        <ele>1830.4000244141</ele>
        <time>2012-01-11T09:53:13.000Z</time>
      </trkpt>
      <trkpt lat="45.35815" lon="5.89691">
        <ele>1831.8000488281</ele>
        <time>2012-01-11T09:53:22.000Z</time>
      </trkpt>
      <trkpt lat="45.35815" lon="5.89691">
        <ele>1833.1999511719</ele>
        <time>2012-01-11T09:53:29.000Z</time>
      </trkpt>
      <trkpt lat="45.35816" lon="5.89693">
        <ele>1833.8000488281</ele>
        <time>2012-01-11T09:53:33.000Z</time>
      </trkpt>
      <trkpt lat="45.35816" lon="5.89697">
        <ele>1834.8000488281</ele>
        <time>2012-01-11T09:53:46.000Z</time>
      </trkpt>
      <trkpt lat="45.3582" lon="5.89703">
        <ele>1835.5999755859</ele>
        <time>2012-01-11T09:53:51.000Z</time>
      </trkpt>
      <trkpt lat="45.35821" lon="5.89704">
        <ele>1835.5999755859</ele>
        <time>2012-01-11T09:53:56.000Z</time>
      </trkpt>
      <trkpt lat="45.35822" lon="5.89705">
        <ele>1836.1999511719</ele>
        <time>2012-01-11T09:54:03.000Z</time>
      </trkpt>
      <trkpt lat="45.35828" lon="5.89708">
        <ele>1836.1999511719</ele>
        <time>2012-01-11T09:54:07.000Z</time>
      </trkpt>
      <trkpt lat="45.35831" lon="5.89712">
        <ele>1835.5999755859</ele>
        <time>2012-01-11T09:54:10.000Z</time>
      </trkpt>
      <trkpt lat="45.35835" lon="5.89718">
        <ele>1837.1999511719</ele>
        <time>2012-01-11T09:54:17.000Z</time>
      </trkpt>
      <trkpt lat="45.35837" lon="5.89723">
        <ele>1839</ele>
        <time>2012-01-11T09:54:23.000Z</time>
      </trkpt>
      <trkpt lat="45.35839" lon="5.89729">
        <ele>1839.5999755859</ele>
        <time>2012-01-11T09:54:29.000Z</time>
      </trkpt>
      <trkpt lat="45.3584" lon="5.89733">
        <ele>1840</ele>
        <time>2012-01-11T09:54:35.000Z</time>
      </trkpt>
      <trkpt lat="45.3584" lon="5.89734">
        <ele>1841</ele>
        <time>2012-01-11T09:54:43.000Z</time>
      </trkpt>
      <trkpt lat="45.3584" lon="5.89734">
        <ele>1841</ele>
        <time>2012-01-11T09:54:55.000Z</time>
      </trkpt>
      <trkpt lat="45.35841" lon="5.89735">
        <ele>1840.4000244141</ele>
        <time>2012-01-11T09:55:01.000Z</time>
      </trkpt>
      <trkpt lat="45.35841" lon="5.89735">
        <ele>1840.4000244141</ele>
        <time>2012-01-11T09:55:10.000Z</time>
      </trkpt>
      <trkpt lat="45.35841" lon="5.89735">
        <ele>1839.5999755859</ele>
        <time>2012-01-11T09:55:17.000Z</time>
      </trkpt>
      <trkpt lat="45.35841" lon="5.89735">
        <ele>1840</ele>
        <time>2012-01-11T09:55:26.000Z</time>
      </trkpt>
      <trkpt lat="45.35841" lon="5.89734">
        <ele>1841</ele>
        <time>2012-01-11T09:55:34.000Z</time>
      </trkpt>
      <trkpt lat="45.35841" lon="5.89734">
        <ele>1840.4000244141</ele>
        <time>2012-01-11T09:55:56.000Z</time>
      </trkpt>
      <trkpt lat="45.35841" lon="5.89734">
        <ele>1842</ele>
        <time>2012-01-11T09:56:15.000Z</time>
      </trkpt>
      <trkpt lat="45.3584" lon="5.89733">
        <ele>1842.4000244141</ele>
        <time>2012-01-11T09:56:24.000Z</time>
      </trkpt>
      <trkpt lat="45.35841" lon="5.89735">
        <ele>1842</ele>
        <time>2012-01-11T09:56:47.000Z</time>
      </trkpt>
      <trkpt lat="45.3584" lon="5.89735">
        <ele>1841.4000244141</ele>
        <time>2012-01-11T09:56:57.000Z</time>
      </trkpt>
      <trkpt lat="45.35839" lon="5.89733">
        <ele>1842</ele>
        <time>2012-01-11T09:57:14.000Z</time>
      </trkpt>
      <trkpt lat="45.3584" lon="5.89734">
        <ele>1841.4000244141</ele>
        <time>2012-01-11T09:57:34.000Z</time>
      </trkpt>
      <trkpt lat="45.3584" lon="5.89734">
        <ele>1842</ele>
        <time>2012-01-11T09:57:43.000Z</time>
      </trkpt>
      <trkpt lat="45.3584" lon="5.89734">
        <ele>1841.4000244141</ele>
        <time>2012-01-11T09:58:00.000Z</time>
      </trkpt>
      <trkpt lat="45.3584" lon="5.89734">
        <ele>1841</ele>
        <time>2012-01-11T09:58:12.000Z</time>
      </trkpt>
      <trkpt lat="45.3584" lon="5.89734">
        <ele>1841</ele>
        <time>2012-01-11T09:58:38.000Z</time>
      </trkpt>
      <trkpt lat="45.3584" lon="5.89733">
        <ele>1841</ele>
        <time>2012-01-11T09:59:03.000Z</time>
      </trkpt>
      <trkpt lat="45.3584" lon="5.89733">
        <ele>1841.4000244141</ele>
        <time>2012-01-11T09:59:14.000Z</time>
      </trkpt>
      <trkpt lat="45.3584" lon="5.89732">
        <ele>1842.4000244141</ele>
        <time>2012-01-11T09:59:29.000Z</time>
      </trkpt>
      <trkpt lat="45.3584" lon="5.89733">
        <ele>1842.8000488281</ele>
        <time>2012-01-11T09:59:40.000Z</time>
      </trkpt>
      <trkpt lat="45.3584" lon="5.89733">
        <ele>1843.4000244141</ele>
        <time>2012-01-11T09:59:53.000Z</time>
      </trkpt>
      <trkpt lat="45.3584" lon="5.89734">
        <ele>1843.8000488281</ele>
        <time>2012-01-11T10:00:11.000Z</time>
      </trkpt>
      <trkpt lat="45.3584" lon="5.89733">
        <ele>1844.8000488281</ele>
        <time>2012-01-11T10:00:21.000Z</time>
      </trkpt>
      <trkpt lat="45.3584" lon="5.89733">
        <ele>1844.8000488281</ele>
        <time>2012-01-11T10:00:34.000Z</time>
      </trkpt>
      <trkpt lat="45.35841" lon="5.89734">
        <ele>1844.8000488281</ele>
        <time>2012-01-11T10:01:01.000Z</time>
      </trkpt>
      <trkpt lat="45.3584" lon="5.89734">
        <ele>1843.4000244141</ele>
        <time>2012-01-11T10:01:08.000Z</time>
      </trkpt>
      <trkpt lat="45.35841" lon="5.89734">
        <ele>1843.4000244141</ele>
        <time>2012-01-11T10:01:18.000Z</time>
      </trkpt>
      <trkpt lat="45.35842" lon="5.89734">
        <ele>1844.8000488281</ele>
        <time>2012-01-11T10:01:29.000Z</time>
      </trkpt>
      <trkpt lat="45.35843" lon="5.89735">
        <ele>1844.4000244141</ele>
        <time>2012-01-11T10:01:35.000Z</time>
      </trkpt>
      <trkpt lat="45.35842" lon="5.89734">
        <ele>1844.4000244141</ele>
        <time>2012-01-11T10:01:44.000Z</time>
      </trkpt>
      <trkpt lat="45.35842" lon="5.89734">
        <ele>1844.4000244141</ele>
        <time>2012-01-11T10:01:51.000Z</time>
      </trkpt>
      <trkpt lat="45.35842" lon="5.89733">
        <ele>1843.4000244141</ele>
        <time>2012-01-11T10:02:07.000Z</time>
      </trkpt>
      <trkpt lat="45.35841" lon="5.89734">
        <ele>1843.4000244141</ele>
        <time>2012-01-11T10:02:17.000Z</time>
      </trkpt>
      <trkpt lat="45.35841" lon="5.89735">
        <ele>1843.8000488281</ele>
        <time>2012-01-11T10:02:25.000Z</time>
      </trkpt>
      <trkpt lat="45.35842" lon="5.89735">
        <ele>1842.4000244141</ele>
        <time>2012-01-11T10:02:32.000Z</time>
      </trkpt>
      <trkpt lat="45.35842" lon="5.89735">
        <ele>1842</ele>
        <time>2012-01-11T10:02:37.000Z</time>
      </trkpt>
      <trkpt lat="45.35842" lon="5.89735">
        <ele>1842.4000244141</ele>
        <time>2012-01-11T10:02:41.000Z</time>
      </trkpt>
      <trkpt lat="45.35842" lon="5.89735">
        <ele>1842.4000244141</ele>
        <time>2012-01-11T10:02:42.000Z</time>
      </trkpt>
      <trkpt lat="45.35841" lon="5.89734">
        <ele>1844.4000244141</ele>
        <time>2012-01-11T10:06:01.000Z</time>
      </trkpt>
      <trkpt lat="45.35841" lon="5.89734">
        <ele>1844.4000244141</ele>
        <time>2012-01-11T10:06:02.000Z</time>
      </trkpt>
      <trkpt lat="45.35842" lon="5.89733">
        <ele>1842.8000488281</ele>
        <time>2012-01-11T10:06:06.000Z</time>
      </trkpt>
      <trkpt lat="45.35842" lon="5.89733">
        <ele>1842.8000488281</ele>
        <time>2012-01-11T10:06:09.000Z</time>
      </trkpt>
      <trkpt lat="45.35842" lon="5.89733">
        <ele>1843.4000244141</ele>
        <time>2012-01-11T10:06:10.000Z</time>
      </trkpt>
      <trkpt lat="45.35841" lon="5.89734">
        <ele>1843.4000244141</ele>
        <time>2012-01-11T10:06:13.000Z</time>
      </trkpt>
      <trkpt lat="45.35841" lon="5.89734">
        <ele>1842.8000488281</ele>
        <time>2012-01-11T10:06:21.000Z</time>
      </trkpt>
      <trkpt lat="45.35841" lon="5.89734">
        <ele>1842.4000244141</ele>
        <time>2012-01-11T10:06:28.000Z</time>
      </trkpt>
      <trkpt lat="45.35842" lon="5.89735">
        <ele>1841.4000244141</ele>
        <time>2012-01-11T10:06:44.000Z</time>
      </trkpt>
      <trkpt lat="45.35841" lon="5.89735">
        <ele>1841.4000244141</ele>
        <time>2012-01-11T10:07:04.000Z</time>
      </trkpt>
      <trkpt lat="45.35841" lon="5.89735">
        <ele>1841.4000244141</ele>
        <time>2012-01-11T10:07:15.000Z</time>
      </trkpt>
      <trkpt lat="45.35841" lon="5.89734">
        <ele>1841.4000244141</ele>
        <time>2012-01-11T10:07:20.000Z</time>
      </trkpt>
      <trkpt lat="45.35841" lon="5.89734">
        <ele>1841.4000244141</ele>
        <time>2012-01-11T10:07:27.000Z</time>
      </trkpt>
      <trkpt lat="45.35841" lon="5.89734">
        <ele>1842.4000244141</ele>
        <time>2012-01-11T10:07:37.000Z</time>
      </trkpt>
      <trkpt lat="45.35841" lon="5.89735">
        <ele>1842.8000488281</ele>
        <time>2012-01-11T10:07:54.000Z</time>
      </trkpt>
      <trkpt lat="45.35841" lon="5.89735">
        <ele>1842.8000488281</ele>
        <time>2012-01-11T10:08:16.000Z</time>
      </trkpt>
      <trkpt lat="45.35841" lon="5.89734">
        <ele>1842.8000488281</ele>
        <time>2012-01-11T10:08:29.000Z</time>
      </trkpt>
      <trkpt lat="45.35841" lon="5.89734">
        <ele>1843.4000244141</ele>
        <time>2012-01-11T10:08:47.000Z</time>
      </trkpt>
      <trkpt lat="45.3584" lon="5.89733">
        <ele>1843.4000244141</ele>
        <time>2012-01-11T10:08:59.000Z</time>
      </trkpt>
      <trkpt lat="45.3584" lon="5.89734">
        <ele>1842.8000488281</ele>
        <time>2012-01-11T10:09:09.000Z</time>
      </trkpt>
      <trkpt lat="45.35841" lon="5.89734">
        <ele>1842.4000244141</ele>
        <time>2012-01-11T10:09:44.000Z</time>
      </trkpt>
      <trkpt lat="45.35841" lon="5.89734">
        <ele>1842.4000244141</ele>
        <time>2012-01-11T10:09:56.000Z</time>
      </trkpt>
      <trkpt lat="45.35841" lon="5.89733">
        <ele>1842.8000488281</ele>
        <time>2012-01-11T10:10:06.000Z</time>
      </trkpt>
      <trkpt lat="45.35841" lon="5.89734">
        <ele>1842.8000488281</ele>
        <time>2012-01-11T10:10:13.000Z</time>
      </trkpt>
      <trkpt lat="45.35841" lon="5.89733">
        <ele>1843.4000244141</ele>
        <time>2012-01-11T10:10:38.000Z</time>
      </trkpt>
      <trkpt lat="45.35841" lon="5.89731">
        <ele>1842.8000488281</ele>
        <time>2012-01-11T10:11:06.000Z</time>
      </trkpt>
      <trkpt lat="45.3584" lon="5.8973">
        <ele>1842.8000488281</ele>
        <time>2012-01-11T10:11:38.000Z</time>
      </trkpt>
      <trkpt lat="45.3584" lon="5.8973">
        <ele>1843.4000244141</ele>
        <time>2012-01-11T10:11:51.000Z</time>
      </trkpt>
      <trkpt lat="45.35837" lon="5.89728">
        <ele>1842.8000488281</ele>
        <time>2012-01-11T10:12:22.000Z</time>
      </trkpt>
      <trkpt lat="45.3583" lon="5.89711">
        <ele>1840.4000244141</ele>
        <time>2012-01-11T10:12:27.000Z</time>
      </trkpt>
      <trkpt lat="45.35826" lon="5.89707">
        <ele>1839.5999755859</ele>
        <time>2012-01-11T10:12:32.000Z</time>
      </trkpt>
      <trkpt lat="45.35826" lon="5.89708">
        <ele>1839.5999755859</ele>
        <time>2012-01-11T10:12:38.000Z</time>
      </trkpt>
      <trkpt lat="45.35826" lon="5.89706">
        <ele>1840</ele>
        <time>2012-01-11T10:12:43.000Z</time>
      </trkpt>
      <trkpt lat="45.35824" lon="5.89704">
        <ele>1840.4000244141</ele>
        <time>2012-01-11T10:12:49.000Z</time>
      </trkpt>
      <trkpt lat="45.35823" lon="5.89702">
        <ele>1841</ele>
        <time>2012-01-11T10:12:56.000Z</time>
      </trkpt>
      <trkpt lat="45.35822" lon="5.89701">
        <ele>1841</ele>
        <time>2012-01-11T10:12:57.000Z</time>
      </trkpt>
      <trkpt lat="45.35813" lon="5.89692">
        <ele>1838.5999755859</ele>
        <time>2012-01-11T10:13:02.000Z</time>
      </trkpt>
      <trkpt lat="45.35809" lon="5.89682">
        <ele>1838.5999755859</ele>
        <time>2012-01-11T10:13:08.000Z</time>
      </trkpt>
      <trkpt lat="45.35805" lon="5.89674">
        <ele>1838.5999755859</ele>
        <time>2012-01-11T10:13:13.000Z</time>
      </trkpt>
      <trkpt lat="45.358" lon="5.89664">
        <ele>1838</ele>
        <time>2012-01-11T10:13:18.000Z</time>
      </trkpt>
      <trkpt lat="45.35799" lon="5.89662">
        <ele>1838</ele>
        <time>2012-01-11T10:13:19.000Z</time>
      </trkpt>
      <trkpt lat="45.35795" lon="5.89653">
        <ele>1838</ele>
        <time>2012-01-11T10:13:24.000Z</time>
      </trkpt>
      <trkpt lat="45.35794" lon="5.89651">
        <ele>1838</ele>
        <time>2012-01-11T10:13:26.000Z</time>
      </trkpt>
      <trkpt lat="45.3579" lon="5.89636">
        <ele>1836.1999511719</ele>
        <time>2012-01-11T10:13:31.000Z</time>
      </trkpt>
      <trkpt lat="45.35785" lon="5.89623">
        <ele>1835.1999511719</ele>
        <time>2012-01-11T10:13:35.000Z</time>
      </trkpt>
      <trkpt lat="45.35776" lon="5.89599">
        <ele>1832.8000488281</ele>
        <time>2012-01-11T10:13:39.000Z</time>
      </trkpt>
      <trkpt lat="45.35762" lon="5.89562">
        <ele>1827.5999755859</ele>
        <time>2012-01-11T10:13:44.000Z</time>
      </trkpt>
      <trkpt lat="45.35754" lon="5.89543">
        <ele>1824.1999511719</ele>
        <time>2012-01-11T10:13:46.000Z</time>
      </trkpt>
      <trkpt lat="45.35733" lon="5.89512">
        <ele>1820.8000488281</ele>
        <time>2012-01-11T10:13:50.000Z</time>
      </trkpt>
      <trkpt lat="45.35729" lon="5.89505">
        <ele>1820.1999511719</ele>
        <time>2012-01-11T10:13:51.000Z</time>
      </trkpt>
      <trkpt lat="45.35718" lon="5.89477">
        <ele>1817.4000244141</ele>
        <time>2012-01-11T10:13:55.000Z</time>
      </trkpt>
      <trkpt lat="45.35704" lon="5.89444">
        <ele>1815</ele>
        <time>2012-01-11T10:14:00.000Z</time>
      </trkpt>
      <trkpt lat="45.35685" lon="5.8941">
        <ele>1810.5999755859</ele>
        <time>2012-01-11T10:14:05.000Z</time>
      </trkpt>
      <trkpt lat="45.35668" lon="5.89391">
        <ele>1808.8000488281</ele>
        <time>2012-01-11T10:14:10.000Z</time>
      </trkpt>
      <trkpt lat="45.3565" lon="5.8937">
        <ele>1806.8000488281</ele>
        <time>2012-01-11T10:14:17.000Z</time>
      </trkpt>
      <trkpt lat="45.35646" lon="5.89367">
        <ele>1806.8000488281</ele>
        <time>2012-01-11T10:14:21.000Z</time>
      </trkpt>
      <trkpt lat="45.35646" lon="5.89367">
        <ele>1805.8000488281</ele>
        <time>2012-01-11T10:14:31.000Z</time>
      </trkpt>
      <trkpt lat="45.35646" lon="5.89368">
        <ele>1805.4000244141</ele>
        <time>2012-01-11T10:14:44.000Z</time>
      </trkpt>
      <trkpt lat="45.35645" lon="5.89366">
        <ele>1803.4000244141</ele>
        <time>2012-01-11T10:15:04.000Z</time>
      </trkpt>
      <trkpt lat="45.35637" lon="5.89349">
        <ele>1801</ele>
        <time>2012-01-11T10:15:08.000Z</time>
      </trkpt>
      <trkpt lat="45.35629" lon="5.89339">
        <ele>1800.1999511719</ele>
        <time>2012-01-11T10:15:10.000Z</time>
      </trkpt>
      <trkpt lat="45.35625" lon="5.89327">
        <ele>1796.8000488281</ele>
        <time>2012-01-11T10:15:12.000Z</time>
      </trkpt>
      <trkpt lat="45.35617" lon="5.89314">
        <ele>1794.8000488281</ele>
        <time>2012-01-11T10:15:14.000Z</time>
      </trkpt>
      <trkpt lat="45.35601" lon="5.89282">
        <ele>1790</ele>
        <time>2012-01-11T10:15:18.000Z</time>
      </trkpt>
      <trkpt lat="45.35589" lon="5.89249">
        <ele>1784.1999511719</ele>
        <time>2012-01-11T10:15:21.000Z</time>
      </trkpt>
      <trkpt lat="45.35585" lon="5.89237">
        <ele>1782.4000244141</ele>
        <time>2012-01-11T10:15:22.000Z</time>
      </trkpt>
      <trkpt lat="45.35554" lon="5.89176">
        <ele>1772.8000488281</ele>
        <time>2012-01-11T10:15:27.000Z</time>
      </trkpt>
      <trkpt lat="45.35534" lon="5.89146">
        <ele>1768.4000244141</ele>
        <time>2012-01-11T10:15:30.000Z</time>
      </trkpt>
      <trkpt lat="45.35528" lon="5.89137">
        <ele>1767</ele>
        <time>2012-01-11T10:15:31.000Z</time>
      </trkpt>
      <trkpt lat="45.35515" lon="5.8912">
        <ele>1764.5999755859</ele>
        <time>2012-01-11T10:15:33.000Z</time>
      </trkpt>
      <trkpt lat="45.35487" lon="5.89095">
        <ele>1760.5999755859</ele>
        <time>2012-01-11T10:15:37.000Z</time>
      </trkpt>
      <trkpt lat="45.35468" lon="5.89076">
        <ele>1756.8000488281</ele>
        <time>2012-01-11T10:15:40.000Z</time>
      </trkpt>
      <trkpt lat="45.35444" lon="5.89054">
        <ele>1749.5999755859</ele>
        <time>2012-01-11T10:15:43.000Z</time>
      </trkpt>
      <trkpt lat="45.35415" lon="5.89026">
        <ele>1748.1999511719</ele>
        <time>2012-01-11T10:15:47.000Z</time>
      </trkpt>
      <trkpt lat="45.35404" lon="5.89005">
        <ele>1747.8000488281</ele>
        <time>2012-01-11T10:15:50.000Z</time>
      </trkpt>
      <trkpt lat="45.35386" lon="5.88956">
        <ele>1744.4000244141</ele>
        <time>2012-01-11T10:15:57.000Z</time>
      </trkpt>
      <trkpt lat="45.35372" lon="5.8892">
        <ele>1742.4000244141</ele>
        <time>2012-01-11T10:16:03.000Z</time>
      </trkpt>
      <trkpt lat="45.35357" lon="5.88882">
        <ele>1740.5999755859</ele>
        <time>2012-01-11T10:16:09.000Z</time>
      </trkpt>
      <trkpt lat="45.35346" lon="5.88848">
        <ele>1738.5999755859</ele>
        <time>2012-01-11T10:16:14.000Z</time>
      </trkpt>
      <trkpt lat="45.35326" lon="5.88797">
        <ele>1735.5999755859</ele>
        <time>2012-01-11T10:16:22.000Z</time>
      </trkpt>
      <trkpt lat="45.35322" lon="5.88786">
        <ele>1735.5999755859</ele>
        <time>2012-01-11T10:16:24.000Z</time>
      </trkpt>
      <trkpt lat="45.35317" lon="5.88773">
        <ele>1734.8000488281</ele>
        <time>2012-01-11T10:16:27.000Z</time>
      </trkpt>
      <trkpt lat="45.35315" lon="5.88765">
        <ele>1734.8000488281</ele>
        <time>2012-01-11T10:16:30.000Z</time>
      </trkpt>
      <trkpt lat="45.35315" lon="5.88764">
        <ele>1734.1999511719</ele>
        <time>2012-01-11T10:16:38.000Z</time>
      </trkpt>
      <trkpt lat="45.35316" lon="5.88765">
        <ele>1733.8000488281</ele>
        <time>2012-01-11T10:16:45.000Z</time>
      </trkpt>
      <trkpt lat="45.35315" lon="5.88765">
        <ele>1733.1999511719</ele>
        <time>2012-01-11T10:16:50.000Z</time>
      </trkpt>
      <trkpt lat="45.35316" lon="5.88765">
        <ele>1735.1999511719</ele>
        <time>2012-01-11T10:17:00.000Z</time>
      </trkpt>
      <trkpt lat="45.35316" lon="5.88765">
        <ele>1735.5999755859</ele>
        <time>2012-01-11T10:17:07.000Z</time>
      </trkpt>
      <trkpt lat="45.35316" lon="5.88767">
        <ele>1734.8000488281</ele>
        <time>2012-01-11T10:17:16.000Z</time>
      </trkpt>
      <trkpt lat="45.35317" lon="5.88767">
        <ele>1735.1999511719</ele>
        <time>2012-01-11T10:17:26.000Z</time>
      </trkpt>
      <trkpt lat="45.35317" lon="5.88767">
        <ele>1734.8000488281</ele>
        <time>2012-01-11T10:17:36.000Z</time>
      </trkpt>
      <trkpt lat="45.35317" lon="5.88768">
        <ele>1734.8000488281</ele>
        <time>2012-01-11T10:17:43.000Z</time>
      </trkpt>
      <trkpt lat="45.35317" lon="5.88768">
        <ele>1734.1999511719</ele>
        <time>2012-01-11T10:17:51.000Z</time>
      </trkpt>
      <trkpt lat="45.35316" lon="5.88768">
        <ele>1735.1999511719</ele>
        <time>2012-01-11T10:18:01.000Z</time>
      </trkpt>
      <trkpt lat="45.35316" lon="5.88768">
        <ele>1735.5999755859</ele>
        <time>2012-01-11T10:18:08.000Z</time>
      </trkpt>
      <trkpt lat="45.35317" lon="5.88768">
        <ele>1734.8000488281</ele>
        <time>2012-01-11T10:18:16.000Z</time>
      </trkpt>
      <trkpt lat="45.35317" lon="5.88768">
        <ele>1734.1999511719</ele>
        <time>2012-01-11T10:18:21.000Z</time>
      </trkpt>
      <trkpt lat="45.35317" lon="5.88768">
        <ele>1734.1999511719</ele>
        <time>2012-01-11T10:18:26.000Z</time>
      </trkpt>
      <trkpt lat="45.35317" lon="5.88767">
        <ele>1734.1999511719</ele>
        <time>2012-01-11T10:18:35.000Z</time>
      </trkpt>
      <trkpt lat="45.35316" lon="5.88767">
        <ele>1733.1999511719</ele>
        <time>2012-01-11T10:18:43.000Z</time>
      </trkpt>
      <trkpt lat="45.35317" lon="5.88767">
        <ele>1731.8000488281</ele>
        <time>2012-01-11T10:18:51.000Z</time>
      </trkpt>
      <trkpt lat="45.35317" lon="5.88768">
        <ele>1729.4000244141</ele>
        <time>2012-01-11T10:19:13.000Z</time>
      </trkpt>
      <trkpt lat="45.35317" lon="5.88768">
        <ele>1729.4000244141</ele>
        <time>2012-01-11T10:19:23.000Z</time>
      </trkpt>
      <trkpt lat="45.35317" lon="5.88768">
        <ele>1730.4000244141</ele>
        <time>2012-01-11T10:19:30.000Z</time>
      </trkpt>
      <trkpt lat="45.35317" lon="5.88768">
        <ele>1731.8000488281</ele>
        <time>2012-01-11T10:19:36.000Z</time>
      </trkpt>
      <trkpt lat="45.35317" lon="5.88767">
        <ele>1733.1999511719</ele>
        <time>2012-01-11T10:19:44.000Z</time>
      </trkpt>
      <trkpt lat="45.35317" lon="5.88767">
        <ele>1734.1999511719</ele>
        <time>2012-01-11T10:19:56.000Z</time>
      </trkpt>
      <trkpt lat="45.35317" lon="5.88767">
        <ele>1734.1999511719</ele>
        <time>2012-01-11T10:20:02.000Z</time>
      </trkpt>
      <trkpt lat="45.35317" lon="5.88767">
        <ele>1734.1999511719</ele>
        <time>2012-01-11T10:20:09.000Z</time>
      </trkpt>
      <trkpt lat="45.35317" lon="5.88768">
        <ele>1734.1999511719</ele>
        <time>2012-01-11T10:20:16.000Z</time>
      </trkpt>
      <trkpt lat="45.35317" lon="5.88767">
        <ele>1734.1999511719</ele>
        <time>2012-01-11T10:20:39.000Z</time>
      </trkpt>
      <trkpt lat="45.35317" lon="5.88768">
        <ele>1733.8000488281</ele>
        <time>2012-01-11T10:20:49.000Z</time>
      </trkpt>
      <trkpt lat="45.35318" lon="5.88768">
        <ele>1733.8000488281</ele>
        <time>2012-01-11T10:20:56.000Z</time>
      </trkpt>
      <trkpt lat="45.35317" lon="5.88768">
        <ele>1734.1999511719</ele>
        <time>2012-01-11T10:21:02.000Z</time>
      </trkpt>
      <trkpt lat="45.35318" lon="5.88767">
        <ele>1733.1999511719</ele>
        <time>2012-01-11T10:21:09.000Z</time>
      </trkpt>
      <trkpt lat="45.35318" lon="5.88769">
        <ele>1732.4000244141</ele>
        <time>2012-01-11T10:21:18.000Z</time>
      </trkpt>
      <trkpt lat="45.35318" lon="5.88768">
        <ele>1732.4000244141</ele>
        <time>2012-01-11T10:21:26.000Z</time>
      </trkpt>
      <trkpt lat="45.35317" lon="5.88769">
        <ele>1732.4000244141</ele>
        <time>2012-01-11T10:21:46.000Z</time>
      </trkpt>
      <trkpt lat="45.35317" lon="5.88769">
        <ele>1733.1999511719</ele>
        <time>2012-01-11T10:21:54.000Z</time>
      </trkpt>
      <trkpt lat="45.35317" lon="5.88768">
        <ele>1733.8000488281</ele>
        <time>2012-01-11T10:22:00.000Z</time>
      </trkpt>
      <trkpt lat="45.35316" lon="5.88768">
        <ele>1734.1999511719</ele>
        <time>2012-01-11T10:22:07.000Z</time>
      </trkpt>
      <trkpt lat="45.35316" lon="5.88767">
        <ele>1733.8000488281</ele>
        <time>2012-01-11T10:22:16.000Z</time>
      </trkpt>
      <trkpt lat="45.35317" lon="5.88767">
        <ele>1732.4000244141</ele>
        <time>2012-01-11T10:22:30.000Z</time>
      </trkpt>
      <trkpt lat="45.35316" lon="5.88767">
        <ele>1732.8000488281</ele>
        <time>2012-01-11T10:22:37.000Z</time>
      </trkpt>
      <trkpt lat="45.35316" lon="5.88766">
        <ele>1732.8000488281</ele>
        <time>2012-01-11T10:22:44.000Z</time>
      </trkpt>
      <trkpt lat="45.35316" lon="5.88766">
        <ele>1732.4000244141</ele>
        <time>2012-01-11T10:23:02.000Z</time>
      </trkpt>
      <trkpt lat="45.35316" lon="5.88766">
        <ele>1732.4000244141</ele>
        <time>2012-01-11T10:23:14.000Z</time>
      </trkpt>
      <trkpt lat="45.35315" lon="5.88765">
        <ele>1732.4000244141</ele>
        <time>2012-01-11T10:23:25.000Z</time>
      </trkpt>
      <trkpt lat="45.35312" lon="5.88759">
        <ele>1732.4000244141</ele>
        <time>2012-01-11T10:23:35.000Z</time>
      </trkpt>
      <trkpt lat="45.35307" lon="5.8875">
        <ele>1732.4000244141</ele>
        <time>2012-01-11T10:23:42.000Z</time>
      </trkpt>
      <trkpt lat="45.35304" lon="5.88743">
        <ele>1732.4000244141</ele>
        <time>2012-01-11T10:23:46.000Z</time>
      </trkpt>
      <trkpt lat="45.35301" lon="5.88735">
        <ele>1732.4000244141</ele>
        <time>2012-01-11T10:23:52.000Z</time>
      </trkpt>
      <trkpt lat="45.35301" lon="5.88735">
        <ele>1732.8000488281</ele>
        <time>2012-01-11T10:24:00.000Z</time>
      </trkpt>
      <trkpt lat="45.35301" lon="5.88734">
        <ele>1733.1999511719</ele>
        <time>2012-01-11T10:24:05.000Z</time>
      </trkpt>
      <trkpt lat="45.35298" lon="5.88727">
        <ele>1733.8000488281</ele>
        <time>2012-01-11T10:24:10.000Z</time>
      </trkpt>
      <trkpt lat="45.35294" lon="5.88716">
        <ele>1733.1999511719</ele>
        <time>2012-01-11T10:24:16.000Z</time>
      </trkpt>
      <trkpt lat="45.35291" lon="5.88707">
        <ele>1732.4000244141</ele>
        <time>2012-01-11T10:24:21.000Z</time>
      </trkpt>
      <trkpt lat="45.35288" lon="5.88699">
        <ele>1731.8000488281</ele>
        <time>2012-01-11T10:24:27.000Z</time>
      </trkpt>
      <trkpt lat="45.35285" lon="5.88696">
        <ele>1731.8000488281</ele>
        <time>2012-01-11T10:24:31.000Z</time>
      </trkpt>
      <trkpt lat="45.35277" lon="5.88688">
        <ele>1732.4000244141</ele>
        <time>2012-01-11T10:24:37.000Z</time>
      </trkpt>
      <trkpt lat="45.35271" lon="5.8868">
        <ele>1731.8000488281</ele>
        <time>2012-01-11T10:24:42.000Z</time>
      </trkpt>
      <trkpt lat="45.35267" lon="5.88677">
        <ele>1731.4000244141</ele>
        <time>2012-01-11T10:24:45.000Z</time>
      </trkpt>
      <trkpt lat="45.35262" lon="5.8867">
        <ele>1731.4000244141</ele>
        <time>2012-01-11T10:24:50.000Z</time>
      </trkpt>
      <trkpt lat="45.35257" lon="5.88665">
        <ele>1730.8000488281</ele>
        <time>2012-01-11T10:24:54.000Z</time>
      </trkpt>
      <trkpt lat="45.35257" lon="5.88664">
        <ele>1730</ele>
        <time>2012-01-11T10:24:59.000Z</time>
      </trkpt>
      <trkpt lat="45.35252" lon="5.88657">
        <ele>1729.4000244141</ele>
        <time>2012-01-11T10:25:05.000Z</time>
      </trkpt>
      <trkpt lat="45.3525" lon="5.88653">
        <ele>1730</ele>
        <time>2012-01-11T10:25:07.000Z</time>
      </trkpt>
      <trkpt lat="45.35245" lon="5.88646">
        <ele>1730</ele>
        <time>2012-01-11T10:25:12.000Z</time>
      </trkpt>
      <trkpt lat="45.35241" lon="5.88637">
        <ele>1729.4000244141</ele>
        <time>2012-01-11T10:25:19.000Z</time>
      </trkpt>
      <trkpt lat="45.35241" lon="5.88635">
        <ele>1729.4000244141</ele>
        <time>2012-01-11T10:25:21.000Z</time>
      </trkpt>
      <trkpt lat="45.3524" lon="5.88632">
        <ele>1729</ele>
        <time>2012-01-11T10:25:28.000Z</time>
      </trkpt>
      <trkpt lat="45.35241" lon="5.88633">
        <ele>1728.4000244141</ele>
        <time>2012-01-11T10:25:39.000Z</time>
      </trkpt>
      <trkpt lat="45.35241" lon="5.88634">
        <ele>1728.4000244141</ele>
        <time>2012-01-11T10:25:45.000Z</time>
      </trkpt>
      <trkpt lat="45.35239" lon="5.88631">
        <ele>1729</ele>
        <time>2012-01-11T10:25:56.000Z</time>
      </trkpt>
      <trkpt lat="45.35236" lon="5.88621">
        <ele>1729</ele>
        <time>2012-01-11T10:26:03.000Z</time>
      </trkpt>
      <trkpt lat="45.35235" lon="5.88618">
        <ele>1729.4000244141</ele>
        <time>2012-01-11T10:26:08.000Z</time>
      </trkpt>
      <trkpt lat="45.35233" lon="5.88613">
        <ele>1729</ele>
        <time>2012-01-11T10:26:14.000Z</time>
      </trkpt>
      <trkpt lat="45.35229" lon="5.88605">
        <ele>1730</ele>
        <time>2012-01-11T10:26:19.000Z</time>
      </trkpt>
      <trkpt lat="45.35226" lon="5.886">
        <ele>1730</ele>
        <time>2012-01-11T10:26:23.000Z</time>
      </trkpt>
      <trkpt lat="45.35221" lon="5.88591">
        <ele>1730.4000244141</ele>
        <time>2012-01-11T10:26:30.000Z</time>
      </trkpt>
      <trkpt lat="45.35215" lon="5.88583">
        <ele>1731.4000244141</ele>
        <time>2012-01-11T10:26:37.000Z</time>
      </trkpt>
      <trkpt lat="45.3521" lon="5.88576">
        <ele>1731.8000488281</ele>
        <time>2012-01-11T10:26:44.000Z</time>
      </trkpt>
      <trkpt lat="45.35206" lon="5.88568">
        <ele>1732.4000244141</ele>
        <time>2012-01-11T10:26:52.000Z</time>
      </trkpt>
      <trkpt lat="45.35203" lon="5.88564">
        <ele>1732.4000244141</ele>
        <time>2012-01-11T10:26:59.000Z</time>
      </trkpt>
      <trkpt lat="45.352" lon="5.88558">
        <ele>1732.8000488281</ele>
        <time>2012-01-11T10:27:07.000Z</time>
      </trkpt>
      <trkpt lat="45.35195" lon="5.88552">
        <ele>1733.1999511719</ele>
        <time>2012-01-11T10:27:16.000Z</time>
      </trkpt>
      <trkpt lat="45.35193" lon="5.88548">
        <ele>1733.8000488281</ele>
        <time>2012-01-11T10:27:24.000Z</time>
      </trkpt>
      <trkpt lat="45.3519" lon="5.88544">
        <ele>1733.1999511719</ele>
        <time>2012-01-11T10:27:33.000Z</time>
      </trkpt>
      <trkpt lat="45.35186" lon="5.88537">
        <ele>1733.8000488281</ele>
        <time>2012-01-11T10:27:39.000Z</time>
      </trkpt>
      <trkpt lat="45.35183" lon="5.88532">
        <ele>1734.1999511719</ele>
        <time>2012-01-11T10:27:46.000Z</time>
      </trkpt>
      <trkpt lat="45.35182" lon="5.88526">
        <ele>1735.1999511719</ele>
        <time>2012-01-11T10:27:53.000Z</time>
      </trkpt>
      <trkpt lat="45.35181" lon="5.88524">
        <ele>1735.5999755859</ele>
        <time>2012-01-11T10:27:58.000Z</time>
      </trkpt>
      <trkpt lat="45.35179" lon="5.88517">
        <ele>1736.5999755859</ele>
        <time>2012-01-11T10:28:05.000Z</time>
      </trkpt>
      <trkpt lat="45.35178" lon="5.88512">
        <ele>1736.5999755859</ele>
        <time>2012-01-11T10:28:08.000Z</time>
      </trkpt>
      <trkpt lat="45.35177" lon="5.88508">
        <ele>1736.5999755859</ele>
        <time>2012-01-11T10:28:11.000Z</time>
      </trkpt>
      <trkpt lat="45.35175" lon="5.88501">
        <ele>1735.5999755859</ele>
        <time>2012-01-11T10:28:16.000Z</time>
      </trkpt>
      <trkpt lat="45.35172" lon="5.88494">
        <ele>1735.1999511719</ele>
        <time>2012-01-11T10:28:23.000Z</time>
      </trkpt>
      <trkpt lat="45.35171" lon="5.8849">
        <ele>1735.1999511719</ele>
        <time>2012-01-11T10:28:29.000Z</time>
      </trkpt>
      <trkpt lat="45.3517" lon="5.88484">
        <ele>1735.5999755859</ele>
        <time>2012-01-11T10:28:36.000Z</time>
      </trkpt>
      <trkpt lat="45.3517" lon="5.88478">
        <ele>1736.1999511719</ele>
        <time>2012-01-11T10:28:43.000Z</time>
      </trkpt>
      <trkpt lat="45.35169" lon="5.88471">
        <ele>1736.5999755859</ele>
        <time>2012-01-11T10:28:48.000Z</time>
      </trkpt>
      <trkpt lat="45.35168" lon="5.88465">
        <ele>1736.5999755859</ele>
        <time>2012-01-11T10:28:54.000Z</time>
      </trkpt>
      <trkpt lat="45.35167" lon="5.88457">
        <ele>1737.5999755859</ele>
        <time>2012-01-11T10:29:00.000Z</time>
      </trkpt>
      <trkpt lat="45.35164" lon="5.88451">
        <ele>1737.5999755859</ele>
        <time>2012-01-11T10:29:04.000Z</time>
      </trkpt>
      <trkpt lat="45.35162" lon="5.88448">
        <ele>1737.5999755859</ele>
        <time>2012-01-11T10:29:08.000Z</time>
      </trkpt>
      <trkpt lat="45.35158" lon="5.88442">
        <ele>1737.5999755859</ele>
        <time>2012-01-11T10:29:13.000Z</time>
      </trkpt>
      <trkpt lat="45.35156" lon="5.88436">
        <ele>1737.5999755859</ele>
        <time>2012-01-11T10:29:18.000Z</time>
      </trkpt>
      <trkpt lat="45.35154" lon="5.88424">
        <ele>1736.5999755859</ele>
        <time>2012-01-11T10:29:25.000Z</time>
      </trkpt>
      <trkpt lat="45.35153" lon="5.88415">
        <ele>1736.1999511719</ele>
        <time>2012-01-11T10:29:29.000Z</time>
      </trkpt>
      <trkpt lat="45.35151" lon="5.88408">
        <ele>1735.5999755859</ele>
        <time>2012-01-11T10:29:33.000Z</time>
      </trkpt>
      <trkpt lat="45.35146" lon="5.88398">
        <ele>1736.1999511719</ele>
        <time>2012-01-11T10:29:38.000Z</time>
      </trkpt>
      <trkpt lat="45.35146" lon="5.88397">
        <ele>1735.5999755859</ele>
        <time>2012-01-11T10:29:39.000Z</time>
      </trkpt>
      <trkpt lat="45.35144" lon="5.88386">
        <ele>1736.1999511719</ele>
        <time>2012-01-11T10:29:46.000Z</time>
      </trkpt>
      <trkpt lat="45.35143" lon="5.88378">
        <ele>1736.5999755859</ele>
        <time>2012-01-11T10:29:51.000Z</time>
      </trkpt>
      <trkpt lat="45.3514" lon="5.88375">
        <ele>1736.5999755859</ele>
        <time>2012-01-11T10:29:55.000Z</time>
      </trkpt>
      <trkpt lat="45.35135" lon="5.88372">
        <ele>1738.1999511719</ele>
        <time>2012-01-11T10:30:01.000Z</time>
      </trkpt>
      <trkpt lat="45.3513" lon="5.88365">
        <ele>1738.5999755859</ele>
        <time>2012-01-11T10:30:08.000Z</time>
      </trkpt>
      <trkpt lat="45.35126" lon="5.88357">
        <ele>1737.1999511719</ele>
        <time>2012-01-11T10:30:13.000Z</time>
      </trkpt>
      <trkpt lat="45.35123" lon="5.88348">
        <ele>1737.5999755859</ele>
        <time>2012-01-11T10:30:19.000Z</time>
      </trkpt>
      <trkpt lat="45.3512" lon="5.88339">
        <ele>1738.5999755859</ele>
        <time>2012-01-11T10:30:27.000Z</time>
      </trkpt>
      <trkpt lat="45.35116" lon="5.8833">
        <ele>1739</ele>
        <time>2012-01-11T10:30:34.000Z</time>
      </trkpt>
      <trkpt lat="45.35111" lon="5.88324">
        <ele>1739</ele>
        <time>2012-01-11T10:30:39.000Z</time>
      </trkpt>
      <trkpt lat="45.35104" lon="5.88317">
        <ele>1737.1999511719</ele>
        <time>2012-01-11T10:30:45.000Z</time>
      </trkpt>
      <trkpt lat="45.35101" lon="5.88313">
        <ele>1737.5999755859</ele>
        <time>2012-01-11T10:30:49.000Z</time>
      </trkpt>
      <trkpt lat="45.35096" lon="5.88306">
        <ele>1738.1999511719</ele>
        <time>2012-01-11T10:30:56.000Z</time>
      </trkpt>
      <trkpt lat="45.35093" lon="5.883">
        <ele>1738.5999755859</ele>
        <time>2012-01-11T10:31:01.000Z</time>
      </trkpt>
      <trkpt lat="45.35092" lon="5.88298">
        <ele>1738.1999511719</ele>
        <time>2012-01-11T10:31:09.000Z</time>
      </trkpt>
      <trkpt lat="45.35091" lon="5.88297">
        <ele>1737.5999755859</ele>
        <time>2012-01-11T10:31:20.000Z</time>
      </trkpt>
      <trkpt lat="45.35086" lon="5.88288">
        <ele>1737.5999755859</ele>
        <time>2012-01-11T10:31:24.000Z</time>
      </trkpt>
      <trkpt lat="45.35084" lon="5.88286">
        <ele>1738.1999511719</ele>
        <time>2012-01-11T10:31:25.000Z</time>
      </trkpt>
      <trkpt lat="45.35078" lon="5.88279">
        <ele>1738.1999511719</ele>
        <time>2012-01-11T10:31:32.000Z</time>
      </trkpt>
      <trkpt lat="45.35072" lon="5.88275">
        <ele>1737.1999511719</ele>
        <time>2012-01-11T10:31:37.000Z</time>
      </trkpt>
      <trkpt lat="45.35066" lon="5.88275">
        <ele>1736.1999511719</ele>
        <time>2012-01-11T10:31:43.000Z</time>
      </trkpt>
      <trkpt lat="45.35057" lon="5.88275">
        <ele>1734.8000488281</ele>
        <time>2012-01-11T10:31:50.000Z</time>
      </trkpt>
      <trkpt lat="45.35049" lon="5.88275">
        <ele>1733.1999511719</ele>
        <time>2012-01-11T10:31:56.000Z</time>
      </trkpt>
      <trkpt lat="45.35039" lon="5.88277">
        <ele>1730.8000488281</ele>
        <time>2012-01-11T10:32:02.000Z</time>
      </trkpt>
      <trkpt lat="45.35034" lon="5.8828">
        <ele>1730</ele>
        <time>2012-01-11T10:32:05.000Z</time>
      </trkpt>
      <trkpt lat="45.35028" lon="5.88279">
        <ele>1729.4000244141</ele>
        <time>2012-01-11T10:32:10.000Z</time>
      </trkpt>
      <trkpt lat="45.3502" lon="5.88274">
        <ele>1730</ele>
        <time>2012-01-11T10:32:17.000Z</time>
      </trkpt>
      <trkpt lat="45.35016" lon="5.88266">
        <ele>1730.4000244141</ele>
        <time>2012-01-11T10:32:22.000Z</time>
      </trkpt>
      <trkpt lat="45.35013" lon="5.88259">
        <ele>1730.8000488281</ele>
        <time>2012-01-11T10:32:27.000Z</time>
      </trkpt>
      <trkpt lat="45.35011" lon="5.88256">
        <ele>1730.4000244141</ele>
        <time>2012-01-11T10:32:29.000Z</time>
      </trkpt>
      <trkpt lat="45.35007" lon="5.88248">
        <ele>1730</ele>
        <time>2012-01-11T10:32:34.000Z</time>
      </trkpt>
      <trkpt lat="45.35007" lon="5.88241">
        <ele>1729.4000244141</ele>
        <time>2012-01-11T10:32:38.000Z</time>
      </trkpt>
      <trkpt lat="45.35002" lon="5.88231">
        <ele>1729</ele>
        <time>2012-01-11T10:32:43.000Z</time>
      </trkpt>
      <trkpt lat="45.34999" lon="5.88226">
        <ele>1727</ele>
        <time>2012-01-11T10:32:46.000Z</time>
      </trkpt>
      <trkpt lat="45.34997" lon="5.88224">
        <ele>1726.5999755859</ele>
        <time>2012-01-11T10:32:48.000Z</time>
      </trkpt>
      <trkpt lat="45.34995" lon="5.88218">
        <ele>1725.1999511719</ele>
        <time>2012-01-11T10:32:52.000Z</time>
      </trkpt>
      <trkpt lat="45.34996" lon="5.88208">
        <ele>1725.5999755859</ele>
        <time>2012-01-11T10:33:00.000Z</time>
      </trkpt>
      <trkpt lat="45.34999" lon="5.88203">
        <ele>1726.5999755859</ele>
        <time>2012-01-11T10:33:07.000Z</time>
      </trkpt>
      <trkpt lat="45.35" lon="5.88202">
        <ele>1727</ele>
        <time>2012-01-11T10:33:14.000Z</time>
      </trkpt>
      <trkpt lat="45.35001" lon="5.88203">
        <ele>1728</ele>
        <time>2012-01-11T10:33:32.000Z</time>
      </trkpt>
      <trkpt lat="45.35001" lon="5.88204">
        <ele>1728</ele>
        <time>2012-01-11T10:33:45.000Z</time>
      </trkpt>
      <trkpt lat="45.35001" lon="5.88204">
        <ele>1727.5999755859</ele>
        <time>2012-01-11T10:33:57.000Z</time>
      </trkpt>
      <trkpt lat="45.35" lon="5.88204">
        <ele>1731.4000244141</ele>
        <time>2012-01-11T10:34:27.000Z</time>
      </trkpt>
      <trkpt lat="45.35" lon="5.88205">
        <ele>1730.8000488281</ele>
        <time>2012-01-11T10:34:53.000Z</time>
      </trkpt>
      <trkpt lat="45.35" lon="5.88205">
        <ele>1730.8000488281</ele>
        <time>2012-01-11T10:35:22.000Z</time>
      </trkpt>
      <trkpt lat="45.35" lon="5.88203">
        <ele>1730.4000244141</ele>
        <time>2012-01-11T10:35:32.000Z</time>
      </trkpt>
      <trkpt lat="45.35" lon="5.882">
        <ele>1730</ele>
        <time>2012-01-11T10:35:36.000Z</time>
      </trkpt>
      <trkpt lat="45.34996" lon="5.88178">
        <ele>1725.1999511719</ele>
        <time>2012-01-11T10:35:43.000Z</time>
      </trkpt>
      <trkpt lat="45.34995" lon="5.88171">
        <ele>1723.5999755859</ele>
        <time>2012-01-11T10:35:45.000Z</time>
      </trkpt>
      <trkpt lat="45.34996" lon="5.88161">
        <ele>1722.1999511719</ele>
        <time>2012-01-11T10:35:50.000Z</time>
      </trkpt>
      <trkpt lat="45.35" lon="5.88149">
        <ele>1719.8000488281</ele>
        <time>2012-01-11T10:35:56.000Z</time>
      </trkpt>
      <trkpt lat="45.35" lon="5.88139">
        <ele>1719.8000488281</ele>
        <time>2012-01-11T10:36:00.000Z</time>
      </trkpt>
      <trkpt lat="45.35001" lon="5.88131">
        <ele>1718.8000488281</ele>
        <time>2012-01-11T10:36:04.000Z</time>
      </trkpt>
      <trkpt lat="45.35" lon="5.88111">
        <ele>1715.5999755859</ele>
        <time>2012-01-11T10:36:08.000Z</time>
      </trkpt>
      <trkpt lat="45.35" lon="5.88104">
        <ele>1715</ele>
        <time>2012-01-11T10:36:11.000Z</time>
      </trkpt>
      <trkpt lat="45.35" lon="5.88099">
        <ele>1713.5999755859</ele>
        <time>2012-01-11T10:36:16.000Z</time>
      </trkpt>
      <trkpt lat="45.35" lon="5.88095">
        <ele>1714</ele>
        <time>2012-01-11T10:36:21.000Z</time>
      </trkpt>
      <trkpt lat="45.35001" lon="5.88091">
        <ele>1715</ele>
        <time>2012-01-11T10:36:26.000Z</time>
      </trkpt>
      <trkpt lat="45.35002" lon="5.8809">
        <ele>1715.5999755859</ele>
        <time>2012-01-11T10:36:34.000Z</time>
      </trkpt>
      <trkpt lat="45.35001" lon="5.88086">
        <ele>1716.4000244141</ele>
        <time>2012-01-11T10:36:38.000Z</time>
      </trkpt>
      <trkpt lat="45.35" lon="5.88081">
        <ele>1717.4000244141</ele>
        <time>2012-01-11T10:36:44.000Z</time>
      </trkpt>
      <trkpt lat="45.34999" lon="5.88074">
        <ele>1718</ele>
        <time>2012-01-11T10:36:49.000Z</time>
      </trkpt>
      <trkpt lat="45.34999" lon="5.88066">
        <ele>1718.4000244141</ele>
        <time>2012-01-11T10:36:55.000Z</time>
      </trkpt>
      <trkpt lat="45.34999" lon="5.88058">
        <ele>1719.8000488281</ele>
        <time>2012-01-11T10:37:01.000Z</time>
      </trkpt>
      <trkpt lat="45.35" lon="5.8805">
        <ele>1720.8000488281</ele>
        <time>2012-01-11T10:37:07.000Z</time>
      </trkpt>
      <trkpt lat="45.35001" lon="5.88043">
        <ele>1721.8000488281</ele>
        <time>2012-01-11T10:37:13.000Z</time>
      </trkpt>
      <trkpt lat="45.35003" lon="5.88036">
        <ele>1722.1999511719</ele>
        <time>2012-01-11T10:37:19.000Z</time>
      </trkpt>
      <trkpt lat="45.35005" lon="5.88029">
        <ele>1725.1999511719</ele>
        <time>2012-01-11T10:37:26.000Z</time>
      </trkpt>
      <trkpt lat="45.35007" lon="5.88025">
        <ele>1726.5999755859</ele>
        <time>2012-01-11T10:37:31.000Z</time>
      </trkpt>
      <trkpt lat="45.35009" lon="5.88019">
        <ele>1728.4000244141</ele>
        <time>2012-01-11T10:37:38.000Z</time>
      </trkpt>
      <trkpt lat="45.3501" lon="5.88013">
        <ele>1730</ele>
        <time>2012-01-11T10:37:44.000Z</time>
      </trkpt>
      <trkpt lat="45.35011" lon="5.88007">
        <ele>1731.4000244141</ele>
        <time>2012-01-11T10:37:49.000Z</time>
      </trkpt>
      <trkpt lat="45.35012" lon="5.88002">
        <ele>1733.1999511719</ele>
        <time>2012-01-11T10:37:54.000Z</time>
      </trkpt>
      <trkpt lat="45.35015" lon="5.87997">
        <ele>1734.8000488281</ele>
        <time>2012-01-11T10:38:00.000Z</time>
      </trkpt>
      <trkpt lat="45.35017" lon="5.87992">
        <ele>1735.1999511719</ele>
        <time>2012-01-11T10:38:06.000Z</time>
      </trkpt>
      <trkpt lat="45.3502" lon="5.87989">
        <ele>1735.1999511719</ele>
        <time>2012-01-11T10:38:11.000Z</time>
      </trkpt>
      <trkpt lat="45.35022" lon="5.87987">
        <ele>1735.5999755859</ele>
        <time>2012-01-11T10:38:16.000Z</time>
      </trkpt>
      <trkpt lat="45.35021" lon="5.87986">
        <ele>1736.1999511719</ele>
        <time>2012-01-11T10:38:20.000Z</time>
      </trkpt>
      <trkpt lat="45.35018" lon="5.87984">
        <ele>1736.5999755859</ele>
        <time>2012-01-11T10:38:26.000Z</time>
      </trkpt>
      <trkpt lat="45.35015" lon="5.87983">
        <ele>1737.5999755859</ele>
        <time>2012-01-11T10:38:31.000Z</time>
      </trkpt>
      <trkpt lat="45.3501" lon="5.87982">
        <ele>1738.1999511719</ele>
        <time>2012-01-11T10:38:37.000Z</time>
      </trkpt>
      <trkpt lat="45.35007" lon="5.87984">
        <ele>1737.5999755859</ele>
        <time>2012-01-11T10:38:40.000Z</time>
      </trkpt>
      <trkpt lat="45.35005" lon="5.87982">
        <ele>1738.5999755859</ele>
        <time>2012-01-11T10:38:44.000Z</time>
      </trkpt>
      <trkpt lat="45.35003" lon="5.87981">
        <ele>1738.5999755859</ele>
        <time>2012-01-11T10:38:48.000Z</time>
      </trkpt>
      <trkpt lat="45.35001" lon="5.87979">
        <ele>1739</ele>
        <time>2012-01-11T10:38:52.000Z</time>
      </trkpt>
      <trkpt lat="45.34999" lon="5.87976">
        <ele>1739</ele>
        <time>2012-01-11T10:38:56.000Z</time>
      </trkpt>
      <trkpt lat="45.34996" lon="5.87972">
        <ele>1741</ele>
        <time>2012-01-11T10:39:02.000Z</time>
      </trkpt>
      <trkpt lat="45.34994" lon="5.87969">
        <ele>1742</ele>
        <time>2012-01-11T10:39:06.000Z</time>
      </trkpt>
      <trkpt lat="45.34991" lon="5.87964">
        <ele>1742</ele>
        <time>2012-01-11T10:39:10.000Z</time>
      </trkpt>
      <trkpt lat="45.34989" lon="5.87961">
        <ele>1743</ele>
        <time>2012-01-11T10:39:14.000Z</time>
      </trkpt>
      <trkpt lat="45.34987" lon="5.87957">
        <ele>1743.4000244141</ele>
        <time>2012-01-11T10:39:19.000Z</time>
      </trkpt>
      <trkpt lat="45.34984" lon="5.87952">
        <ele>1743.8000488281</ele>
        <time>2012-01-11T10:39:24.000Z</time>
      </trkpt>
      <trkpt lat="45.34981" lon="5.87951">
        <ele>1745.4000244141</ele>
        <time>2012-01-11T10:39:29.000Z</time>
      </trkpt>
      <trkpt lat="45.34977" lon="5.87951">
        <ele>1746.1999511719</ele>
        <time>2012-01-11T10:39:37.000Z</time>
      </trkpt>
      <trkpt lat="45.34975" lon="5.87948">
        <ele>1746.1999511719</ele>
        <time>2012-01-11T10:39:41.000Z</time>
      </trkpt>
      <trkpt lat="45.34971" lon="5.87946">
        <ele>1747.1999511719</ele>
        <time>2012-01-11T10:39:47.000Z</time>
      </trkpt>
      <trkpt lat="45.34968" lon="5.87943">
        <ele>1748.1999511719</ele>
        <time>2012-01-11T10:39:52.000Z</time>
      </trkpt>
      <trkpt lat="45.34965" lon="5.87941">
        <ele>1749.1999511719</ele>
        <time>2012-01-11T10:39:56.000Z</time>
      </trkpt>
      <trkpt lat="45.34962" lon="5.87938">
        <ele>1749.5999755859</ele>
        <time>2012-01-11T10:40:01.000Z</time>
      </trkpt>
      <trkpt lat="45.34959" lon="5.87933">
        <ele>1750.5999755859</ele>
        <time>2012-01-11T10:40:07.000Z</time>
      </trkpt>
      <trkpt lat="45.34956" lon="5.8793">
        <ele>1751.5999755859</ele>
        <time>2012-01-11T10:40:12.000Z</time>
      </trkpt>
      <trkpt lat="45.34951" lon="5.87926">
        <ele>1752.5999755859</ele>
        <time>2012-01-11T10:40:19.000Z</time>
      </trkpt>
      <trkpt lat="45.34948" lon="5.87924">
        <ele>1754.4000244141</ele>
        <time>2012-01-11T10:40:25.000Z</time>
      </trkpt>
      <trkpt lat="45.34945" lon="5.87922">
        <ele>1755.4000244141</ele>
        <time>2012-01-11T10:40:30.000Z</time>
      </trkpt>
      <trkpt lat="45.34942" lon="5.87919">
        <ele>1755.8000488281</ele>
        <time>2012-01-11T10:40:35.000Z</time>
      </trkpt>
      <trkpt lat="45.34939" lon="5.87916">
        <ele>1757.4000244141</ele>
        <time>2012-01-11T10:40:40.000Z</time>
      </trkpt>
      <trkpt lat="45.34938" lon="5.87913">
        <ele>1757.4000244141</ele>
        <time>2012-01-11T10:40:46.000Z</time>
      </trkpt>
      <trkpt lat="45.34937" lon="5.87912">
        <ele>1756.8000488281</ele>
        <time>2012-01-11T10:40:54.000Z</time>
      </trkpt>
      <trkpt lat="45.34936" lon="5.87912">
        <ele>1760.5999755859</ele>
        <time>2012-01-11T10:41:25.000Z</time>
      </trkpt>
      <trkpt lat="45.34934" lon="5.87911">
        <ele>1761.5999755859</ele>
        <time>2012-01-11T10:41:34.000Z</time>
      </trkpt>
      <trkpt lat="45.34933" lon="5.87908">
        <ele>1761.5999755859</ele>
        <time>2012-01-11T10:41:38.000Z</time>
      </trkpt>
      <trkpt lat="45.34932" lon="5.87907">
        <ele>1762.1999511719</ele>
        <time>2012-01-11T10:41:49.000Z</time>
      </trkpt>
      <trkpt lat="45.34931" lon="5.87904">
        <ele>1762.1999511719</ele>
        <time>2012-01-11T10:41:56.000Z</time>
      </trkpt>
      <trkpt lat="45.34931" lon="5.87904">
        <ele>1762.1999511719</ele>
        <time>2012-01-11T10:42:06.000Z</time>
      </trkpt>
      <trkpt lat="45.34929" lon="5.879">
        <ele>1762.5999755859</ele>
        <time>2012-01-11T10:42:12.000Z</time>
      </trkpt>
      <trkpt lat="45.34927" lon="5.87896">
        <ele>1764.5999755859</ele>
        <time>2012-01-11T10:42:18.000Z</time>
      </trkpt>
      <trkpt lat="45.34924" lon="5.87894">
        <ele>1765</ele>
        <time>2012-01-11T10:42:23.000Z</time>
      </trkpt>
      <trkpt lat="45.34921" lon="5.87891">
        <ele>1765.4000244141</ele>
        <time>2012-01-11T10:42:29.000Z</time>
      </trkpt>
      <trkpt lat="45.34917" lon="5.87888">
        <ele>1766</ele>
        <time>2012-01-11T10:42:35.000Z</time>
      </trkpt>
      <trkpt lat="45.34915" lon="5.87886">
        <ele>1766</ele>
        <time>2012-01-11T10:42:40.000Z</time>
      </trkpt>
      <trkpt lat="45.34909" lon="5.87882">
        <ele>1767.4000244141</ele>
        <time>2012-01-11T10:42:48.000Z</time>
      </trkpt>
      <trkpt lat="45.34906" lon="5.87881">
        <ele>1768</ele>
        <time>2012-01-11T10:42:53.000Z</time>
      </trkpt>
      <trkpt lat="45.34902" lon="5.87878">
        <ele>1768.8000488281</ele>
        <time>2012-01-11T10:42:58.000Z</time>
      </trkpt>
      <trkpt lat="45.34898" lon="5.87874">
        <ele>1769.8000488281</ele>
        <time>2012-01-11T10:43:04.000Z</time>
      </trkpt>
      <trkpt lat="45.34896" lon="5.87871">
        <ele>1769.8000488281</ele>
        <time>2012-01-11T10:43:09.000Z</time>
      </trkpt>
      <trkpt lat="45.34894" lon="5.8787">
        <ele>1771.8000488281</ele>
        <time>2012-01-11T10:43:20.000Z</time>
      </trkpt>
      <trkpt lat="45.34895" lon="5.87868">
        <ele>1771.1999511719</ele>
        <time>2012-01-11T10:43:25.000Z</time>
      </trkpt>
      <trkpt lat="45.34896" lon="5.87868">
        <ele>1771.8000488281</ele>
        <time>2012-01-11T10:43:30.000Z</time>
      </trkpt>
      <trkpt lat="45.34898" lon="5.87867">
        <ele>1771.8000488281</ele>
        <time>2012-01-11T10:43:39.000Z</time>
      </trkpt>
      <trkpt lat="45.349" lon="5.87864">
        <ele>1772.8000488281</ele>
        <time>2012-01-11T10:43:44.000Z</time>
      </trkpt>
      <trkpt lat="45.34904" lon="5.8786">
        <ele>1773.1999511719</ele>
        <time>2012-01-11T10:43:50.000Z</time>
      </trkpt>
      <trkpt lat="45.34907" lon="5.87858">
        <ele>1773.5999755859</ele>
        <time>2012-01-11T10:43:56.000Z</time>
      </trkpt>
      <trkpt lat="45.34909" lon="5.87857">
        <ele>1774.5999755859</ele>
        <time>2012-01-11T10:44:01.000Z</time>
      </trkpt>
      <trkpt lat="45.3491" lon="5.87856">
        <ele>1774.5999755859</ele>
        <time>2012-01-11T10:44:09.000Z</time>
      </trkpt>
      <trkpt lat="45.3491" lon="5.87855">
        <ele>1774.5999755859</ele>
        <time>2012-01-11T10:44:15.000Z</time>
      </trkpt>
      <trkpt lat="45.34909" lon="5.87856">
        <ele>1776</ele>
        <time>2012-01-11T10:44:40.000Z</time>
      </trkpt>
      <trkpt lat="45.3491" lon="5.87856">
        <ele>1777</ele>
        <time>2012-01-11T10:44:56.000Z</time>
      </trkpt>
      <trkpt lat="45.3491" lon="5.87856">
        <ele>1776.5999755859</ele>
        <time>2012-01-11T10:45:01.000Z</time>
      </trkpt>
      <trkpt lat="45.3491" lon="5.87856">
        <ele>1776</ele>
        <time>2012-01-11T10:45:11.000Z</time>
      </trkpt>
      <trkpt lat="45.34911" lon="5.87856">
        <ele>1778</ele>
        <time>2012-01-11T10:45:24.000Z</time>
      </trkpt>
      <trkpt lat="45.34913" lon="5.87853">
        <ele>1777.5999755859</ele>
        <time>2012-01-11T10:45:28.000Z</time>
      </trkpt>
      <trkpt lat="45.34915" lon="5.8785">
        <ele>1777.5999755859</ele>
        <time>2012-01-11T10:45:33.000Z</time>
      </trkpt>
      <trkpt lat="45.34912" lon="5.87847">
        <ele>1778.4000244141</ele>
        <time>2012-01-11T10:45:39.000Z</time>
      </trkpt>
      <trkpt lat="45.34909" lon="5.87843">
        <ele>1779</ele>
        <time>2012-01-11T10:45:44.000Z</time>
      </trkpt>
      <trkpt lat="45.34906" lon="5.8784">
        <ele>1780.4000244141</ele>
        <time>2012-01-11T10:45:49.000Z</time>
      </trkpt>
      <trkpt lat="45.34902" lon="5.87838">
        <ele>1780.8000488281</ele>
        <time>2012-01-11T10:45:55.000Z</time>
      </trkpt>
      <trkpt lat="45.34899" lon="5.87837">
        <ele>1783.1999511719</ele>
        <time>2012-01-11T10:46:00.000Z</time>
      </trkpt>
      <trkpt lat="45.34895" lon="5.87837">
        <ele>1784.1999511719</ele>
        <time>2012-01-11T10:46:05.000Z</time>
      </trkpt>
      <trkpt lat="45.34891" lon="5.87836">
        <ele>1785.1999511719</ele>
        <time>2012-01-11T10:46:11.000Z</time>
      </trkpt>
      <trkpt lat="45.34885" lon="5.87837">
        <ele>1786.5999755859</ele>
        <time>2012-01-11T10:46:19.000Z</time>
      </trkpt>
      <trkpt lat="45.34882" lon="5.87837">
        <ele>1787.1999511719</ele>
        <time>2012-01-11T10:46:23.000Z</time>
      </trkpt>
      <trkpt lat="45.34879" lon="5.87837">
        <ele>1788.5999755859</ele>
        <time>2012-01-11T10:46:27.000Z</time>
      </trkpt>
      <trkpt lat="45.34875" lon="5.87834">
        <ele>1789</ele>
        <time>2012-01-11T10:46:33.000Z</time>
      </trkpt>
      <trkpt lat="45.34872" lon="5.87833">
        <ele>1789.5999755859</ele>
        <time>2012-01-11T10:46:38.000Z</time>
      </trkpt>
      <trkpt lat="45.34869" lon="5.87832">
        <ele>1789</ele>
        <time>2012-01-11T10:46:44.000Z</time>
      </trkpt>
      <trkpt lat="45.34867" lon="5.87831">
        <ele>1790</ele>
        <time>2012-01-11T10:46:49.000Z</time>
      </trkpt>
      <trkpt lat="45.34864" lon="5.87828">
        <ele>1790.4000244141</ele>
        <time>2012-01-11T10:46:55.000Z</time>
      </trkpt>
      <trkpt lat="45.34861" lon="5.87826">
        <ele>1791.4000244141</ele>
        <time>2012-01-11T10:47:00.000Z</time>
      </trkpt>
      <trkpt lat="45.34857" lon="5.87823">
        <ele>1792.8000488281</ele>
        <time>2012-01-11T10:47:06.000Z</time>
      </trkpt>
      <trkpt lat="45.34855" lon="5.87821">
        <ele>1793.4000244141</ele>
        <time>2012-01-11T10:47:11.000Z</time>
      </trkpt>
      <trkpt lat="45.34851" lon="5.87818">
        <ele>1793.4000244141</ele>
        <time>2012-01-11T10:47:18.000Z</time>
      </trkpt>
      <trkpt lat="45.34847" lon="5.87816">
        <ele>1794.4000244141</ele>
        <time>2012-01-11T10:47:24.000Z</time>
      </trkpt>
      <trkpt lat="45.34844" lon="5.87815">
        <ele>1794.8000488281</ele>
        <time>2012-01-11T10:47:28.000Z</time>
      </trkpt>
      <trkpt lat="45.34841" lon="5.87815">
        <ele>1796.1999511719</ele>
        <time>2012-01-11T10:47:32.000Z</time>
      </trkpt>
      <trkpt lat="45.34839" lon="5.87813">
        <ele>1797.8000488281</ele>
        <time>2012-01-11T10:47:36.000Z</time>
      </trkpt>
      <trkpt lat="45.34836" lon="5.87811">
        <ele>1798.1999511719</ele>
        <time>2012-01-11T10:47:40.000Z</time>
      </trkpt>
      <trkpt lat="45.34833" lon="5.87808">
        <ele>1799.5999755859</ele>
        <time>2012-01-11T10:47:46.000Z</time>
      </trkpt>
      <trkpt lat="45.34832" lon="5.87807">
        <ele>1800.5999755859</ele>
        <time>2012-01-11T10:47:51.000Z</time>
      </trkpt>
      <trkpt lat="45.34834" lon="5.87806">
        <ele>1801</ele>
        <time>2012-01-11T10:48:04.000Z</time>
      </trkpt>
      <trkpt lat="45.34836" lon="5.87805">
        <ele>1800.5999755859</ele>
        <time>2012-01-11T10:48:14.000Z</time>
      </trkpt>
      <trkpt lat="45.34838" lon="5.87803">
        <ele>1801</ele>
        <time>2012-01-11T10:48:18.000Z</time>
      </trkpt>
      <trkpt lat="45.34841" lon="5.878">
        <ele>1801</ele>
        <time>2012-01-11T10:48:23.000Z</time>
      </trkpt>
      <trkpt lat="45.34844" lon="5.87796">
        <ele>1802</ele>
        <time>2012-01-11T10:48:29.000Z</time>
      </trkpt>
      <trkpt lat="45.34847" lon="5.87794">
        <ele>1802</ele>
        <time>2012-01-11T10:48:34.000Z</time>
      </trkpt>
      <trkpt lat="45.34851" lon="5.87791">
        <ele>1801.5999755859</ele>
        <time>2012-01-11T10:48:39.000Z</time>
      </trkpt>
      <trkpt lat="45.34855" lon="5.8779">
        <ele>1802.5999755859</ele>
        <time>2012-01-11T10:48:45.000Z</time>
      </trkpt>
      <trkpt lat="45.34858" lon="5.87789">
        <ele>1805</ele>
        <time>2012-01-11T10:48:50.000Z</time>
      </trkpt>
      <trkpt lat="45.34863" lon="5.87788">
        <ele>1807.4000244141</ele>
        <time>2012-01-11T10:48:56.000Z</time>
      </trkpt>
      <trkpt lat="45.34867" lon="5.87787">
        <ele>1808.8000488281</ele>
        <time>2012-01-11T10:49:02.000Z</time>
      </trkpt>
      <trkpt lat="45.3487" lon="5.87785">
        <ele>1809.1999511719</ele>
        <time>2012-01-11T10:49:08.000Z</time>
      </trkpt>
      <trkpt lat="45.34873" lon="5.87783">
        <ele>1809.8000488281</ele>
        <time>2012-01-11T10:49:13.000Z</time>
      </trkpt>
      <trkpt lat="45.34875" lon="5.8778">
        <ele>1810.1999511719</ele>
        <time>2012-01-11T10:49:18.000Z</time>
      </trkpt>
      <trkpt lat="45.34877" lon="5.87777">
        <ele>1811.1999511719</ele>
        <time>2012-01-11T10:49:23.000Z</time>
      </trkpt>
      <trkpt lat="45.3488" lon="5.87775">
        <ele>1812.1999511719</ele>
        <time>2012-01-11T10:49:29.000Z</time>
      </trkpt>
      <trkpt lat="45.34879" lon="5.87775">
        <ele>1811.5999755859</ele>
        <time>2012-01-11T10:49:34.000Z</time>
      </trkpt>
      <trkpt lat="45.34878" lon="5.87775">
        <ele>1812.5999755859</ele>
        <time>2012-01-11T10:49:43.000Z</time>
      </trkpt>
      <trkpt lat="45.34875" lon="5.87773">
        <ele>1813.5999755859</ele>
        <time>2012-01-11T10:49:48.000Z</time>
      </trkpt>
      <trkpt lat="45.34873" lon="5.87771">
        <ele>1813.5999755859</ele>
        <time>2012-01-11T10:49:52.000Z</time>
      </trkpt>
      <trkpt lat="45.34873" lon="5.87771">
        <ele>1813.5999755859</ele>
        <time>2012-01-11T10:49:58.000Z</time>
      </trkpt>
      <trkpt lat="45.34872" lon="5.87773">
        <ele>1816</ele>
        <time>2012-01-11T10:50:20.000Z</time>
      </trkpt>
      <trkpt lat="45.34872" lon="5.87774">
        <ele>1816.4000244141</ele>
        <time>2012-01-11T10:50:31.000Z</time>
      </trkpt>
      <trkpt lat="45.34867" lon="5.87771">
        <ele>1818.8000488281</ele>
        <time>2012-01-11T10:50:37.000Z</time>
      </trkpt>
      <trkpt lat="45.34866" lon="5.87767">
        <ele>1817</ele>
        <time>2012-01-11T10:50:44.000Z</time>
      </trkpt>
      <trkpt lat="45.34865" lon="5.87766">
        <ele>1817</ele>
        <time>2012-01-11T10:50:50.000Z</time>
      </trkpt>
      <trkpt lat="45.34866" lon="5.87764">
        <ele>1817</ele>
        <time>2012-01-11T10:50:56.000Z</time>
      </trkpt>
      <trkpt lat="45.34869" lon="5.87762">
        <ele>1816.4000244141</ele>
        <time>2012-01-11T10:51:01.000Z</time>
      </trkpt>
      <trkpt lat="45.3487" lon="5.87764">
        <ele>1816</ele>
        <time>2012-01-11T10:51:39.000Z</time>
      </trkpt>
      <trkpt lat="45.34871" lon="5.87764">
        <ele>1816.4000244141</ele>
        <time>2012-01-11T10:51:50.000Z</time>
      </trkpt>
      <trkpt lat="45.34875" lon="5.87763">
        <ele>1818.4000244141</ele>
        <time>2012-01-11T10:51:56.000Z</time>
      </trkpt>
      <trkpt lat="45.34878" lon="5.87761">
        <ele>1819.4000244141</ele>
        <time>2012-01-11T10:52:01.000Z</time>
      </trkpt>
      <trkpt lat="45.3488" lon="5.8776">
        <ele>1819.4000244141</ele>
        <time>2012-01-11T10:52:07.000Z</time>
      </trkpt>
      <trkpt lat="45.34884" lon="5.87759">
        <ele>1820.8000488281</ele>
        <time>2012-01-11T10:52:13.000Z</time>
      </trkpt>
      <trkpt lat="45.34887" lon="5.87758">
        <ele>1821.8000488281</ele>
        <time>2012-01-11T10:52:17.000Z</time>
      </trkpt>
      <trkpt lat="45.34891" lon="5.87756">
        <ele>1822.5999755859</ele>
        <time>2012-01-11T10:52:22.000Z</time>
      </trkpt>
      <trkpt lat="45.34896" lon="5.87754">
        <ele>1823.1999511719</ele>
        <time>2012-01-11T10:52:27.000Z</time>
      </trkpt>
      <trkpt lat="45.349" lon="5.87752">
        <ele>1824.5999755859</ele>
        <time>2012-01-11T10:52:32.000Z</time>
      </trkpt>
      <trkpt lat="45.34902" lon="5.87751">
        <ele>1826</ele>
        <time>2012-01-11T10:52:35.000Z</time>
      </trkpt>
      <trkpt lat="45.34906" lon="5.87749">
        <ele>1829</ele>
        <time>2012-01-11T10:52:42.000Z</time>
      </trkpt>
      <trkpt lat="45.34909" lon="5.87747">
        <ele>1830</ele>
        <time>2012-01-11T10:52:47.000Z</time>
      </trkpt>
      <trkpt lat="45.3491" lon="5.87746">
        <ele>1830.8000488281</ele>
        <time>2012-01-11T10:52:52.000Z</time>
      </trkpt>
      <trkpt lat="45.3491" lon="5.87746">
        <ele>1831.4000244141</ele>
        <time>2012-01-11T10:52:56.000Z</time>
      </trkpt>
      <trkpt lat="45.34906" lon="5.87744">
        <ele>1831.8000488281</ele>
        <time>2012-01-11T10:53:01.000Z</time>
      </trkpt>
      <trkpt lat="45.34903" lon="5.87742">
        <ele>1832.8000488281</ele>
        <time>2012-01-11T10:53:06.000Z</time>
      </trkpt>
      <trkpt lat="45.349" lon="5.87741">
        <ele>1833.1999511719</ele>
        <time>2012-01-11T10:53:10.000Z</time>
      </trkpt>
      <trkpt lat="45.34896" lon="5.87738">
        <ele>1834.8000488281</ele>
        <time>2012-01-11T10:53:16.000Z</time>
      </trkpt>
      <trkpt lat="45.34892" lon="5.87735">
        <ele>1835.5999755859</ele>
        <time>2012-01-11T10:53:21.000Z</time>
      </trkpt>
      <trkpt lat="45.34889" lon="5.87733">
        <ele>1836.1999511719</ele>
        <time>2012-01-11T10:53:26.000Z</time>
      </trkpt>
      <trkpt lat="45.34885" lon="5.87731">
        <ele>1837.1999511719</ele>
        <time>2012-01-11T10:53:31.000Z</time>
      </trkpt>
      <trkpt lat="45.34881" lon="5.87729">
        <ele>1838</ele>
        <time>2012-01-11T10:53:36.000Z</time>
      </trkpt>
      <trkpt lat="45.34879" lon="5.87728">
        <ele>1839</ele>
        <time>2012-01-11T10:53:40.000Z</time>
      </trkpt>
      <trkpt lat="45.34876" lon="5.87726">
        <ele>1840.4000244141</ele>
        <time>2012-01-11T10:53:45.000Z</time>
      </trkpt>
      <trkpt lat="45.34872" lon="5.87723">
        <ele>1841.4000244141</ele>
        <time>2012-01-11T10:53:51.000Z</time>
      </trkpt>
      <trkpt lat="45.34869" lon="5.8772">
        <ele>1842.8000488281</ele>
        <time>2012-01-11T10:53:57.000Z</time>
      </trkpt>
      <trkpt lat="45.34865" lon="5.87718">
        <ele>1843.8000488281</ele>
        <time>2012-01-11T10:54:03.000Z</time>
      </trkpt>
      <trkpt lat="45.34863" lon="5.87717">
        <ele>1844.4000244141</ele>
        <time>2012-01-11T10:54:25.000Z</time>
      </trkpt>
      <trkpt lat="45.3486" lon="5.87714">
        <ele>1845.8000488281</ele>
        <time>2012-01-11T10:54:31.000Z</time>
      </trkpt>
      <trkpt lat="45.34855" lon="5.87711">
        <ele>1846.8000488281</ele>
        <time>2012-01-11T10:54:38.000Z</time>
      </trkpt>
      <trkpt lat="45.34854" lon="5.87711">
        <ele>1847.5999755859</ele>
        <time>2012-01-11T10:54:43.000Z</time>
      </trkpt>
      <trkpt lat="45.34852" lon="5.8771">
        <ele>1848.5999755859</ele>
        <time>2012-01-11T10:54:53.000Z</time>
      </trkpt>
      <trkpt lat="45.3485" lon="5.87708">
        <ele>1849.1999511719</ele>
        <time>2012-01-11T10:54:57.000Z</time>
      </trkpt>
      <trkpt lat="45.34847" lon="5.87706">
        <ele>1850</ele>
        <time>2012-01-11T10:55:01.000Z</time>
      </trkpt>
      <trkpt lat="45.34845" lon="5.87704">
        <ele>1850.5999755859</ele>
        <time>2012-01-11T10:55:05.000Z</time>
      </trkpt>
      <trkpt lat="45.34841" lon="5.87702">
        <ele>1851.5999755859</ele>
        <time>2012-01-11T10:55:11.000Z</time>
      </trkpt>
      <trkpt lat="45.34838" lon="5.877">
        <ele>1852.4000244141</ele>
        <time>2012-01-11T10:55:17.000Z</time>
      </trkpt>
      <trkpt lat="45.34835" lon="5.87698">
        <ele>1853.4000244141</ele>
        <time>2012-01-11T10:55:22.000Z</time>
      </trkpt>
      <trkpt lat="45.34831" lon="5.87696">
        <ele>1854.4000244141</ele>
        <time>2012-01-11T10:55:28.000Z</time>
      </trkpt>
      <trkpt lat="45.34829" lon="5.87694">
        <ele>1854.4000244141</ele>
        <time>2012-01-11T10:55:33.000Z</time>
      </trkpt>
      <trkpt lat="45.3483" lon="5.87692">
        <ele>1854.4000244141</ele>
        <time>2012-01-11T10:55:38.000Z</time>
      </trkpt>
      <trkpt lat="45.34834" lon="5.87692">
        <ele>1855</ele>
        <time>2012-01-11T10:55:47.000Z</time>
      </trkpt>
      <trkpt lat="45.34838" lon="5.87691">
        <ele>1855</ele>
        <time>2012-01-11T10:55:51.000Z</time>
      </trkpt>
      <trkpt lat="45.3484" lon="5.87689">
        <ele>1855.8000488281</ele>
        <time>2012-01-11T10:55:55.000Z</time>
      </trkpt>
      <trkpt lat="45.34842" lon="5.87686">
        <ele>1857.4000244141</ele>
        <time>2012-01-11T10:55:59.000Z</time>
      </trkpt>
      <trkpt lat="45.34845" lon="5.87685">
        <ele>1858.1999511719</ele>
        <time>2012-01-11T10:56:03.000Z</time>
      </trkpt>
      <trkpt lat="45.34847" lon="5.87683">
        <ele>1859.8000488281</ele>
        <time>2012-01-11T10:56:07.000Z</time>
      </trkpt>
      <trkpt lat="45.34851" lon="5.87682">
        <ele>1860.5999755859</ele>
        <time>2012-01-11T10:56:12.000Z</time>
      </trkpt>
      <trkpt lat="45.34855" lon="5.87681">
        <ele>1860.5999755859</ele>
        <time>2012-01-11T10:56:17.000Z</time>
      </trkpt>
      <trkpt lat="45.34857" lon="5.87683">
        <ele>1860.1999511719</ele>
        <time>2012-01-11T10:56:25.000Z</time>
      </trkpt>
      <trkpt lat="45.34857" lon="5.87683">
        <ele>1860.5999755859</ele>
        <time>2012-01-11T10:56:31.000Z</time>
      </trkpt>
      <trkpt lat="45.34861" lon="5.87682">
        <ele>1861.5999755859</ele>
        <time>2012-01-11T10:56:35.000Z</time>
      </trkpt>
      <trkpt lat="45.34864" lon="5.87681">
        <ele>1862.1999511719</ele>
        <time>2012-01-11T10:56:39.000Z</time>
      </trkpt>
      <trkpt lat="45.34868" lon="5.87679">
        <ele>1862.1999511719</ele>
        <time>2012-01-11T10:56:44.000Z</time>
      </trkpt>
      <trkpt lat="45.34872" lon="5.87678">
        <ele>1863</ele>
        <time>2012-01-11T10:56:48.000Z</time>
      </trkpt>
      <trkpt lat="45.34878" lon="5.87676">
        <ele>1862.5999755859</ele>
        <time>2012-01-11T10:56:55.000Z</time>
      </trkpt>
      <trkpt lat="45.34884" lon="5.87674">
        <ele>1863.5999755859</ele>
        <time>2012-01-11T10:57:02.000Z</time>
      </trkpt>
      <trkpt lat="45.34889" lon="5.87673">
        <ele>1864</ele>
        <time>2012-01-11T10:57:08.000Z</time>
      </trkpt>
      <trkpt lat="45.34894" lon="5.87672">
        <ele>1864.5999755859</ele>
        <time>2012-01-11T10:57:13.000Z</time>
      </trkpt>
      <trkpt lat="45.34898" lon="5.87671">
        <ele>1865</ele>
        <time>2012-01-11T10:57:17.000Z</time>
      </trkpt>
      <trkpt lat="45.34902" lon="5.87669">
        <ele>1865.4000244141</ele>
        <time>2012-01-11T10:57:21.000Z</time>
      </trkpt>
      <trkpt lat="45.34909" lon="5.87668">
        <ele>1866.4000244141</ele>
        <time>2012-01-11T10:57:28.000Z</time>
      </trkpt>
      <trkpt lat="45.34915" lon="5.87665">
        <ele>1867</ele>
        <time>2012-01-11T10:57:34.000Z</time>
      </trkpt>
      <trkpt lat="45.3492" lon="5.87664">
        <ele>1867.4000244141</ele>
        <time>2012-01-11T10:57:40.000Z</time>
      </trkpt>
      <trkpt lat="45.34923" lon="5.87662">
        <ele>1867.8000488281</ele>
        <time>2012-01-11T10:57:46.000Z</time>
      </trkpt>
      <trkpt lat="45.34922" lon="5.87662">
        <ele>1868.8000488281</ele>
        <time>2012-01-11T10:57:51.000Z</time>
      </trkpt>
      <trkpt lat="45.34919" lon="5.87662">
        <ele>1872.5999755859</ele>
        <time>2012-01-11T10:58:10.000Z</time>
      </trkpt>
      <trkpt lat="45.34913" lon="5.8766">
        <ele>1874.1999511719</ele>
        <time>2012-01-11T10:58:16.000Z</time>
      </trkpt>
      <trkpt lat="45.34909" lon="5.87659">
        <ele>1875.5999755859</ele>
        <time>2012-01-11T10:58:22.000Z</time>
      </trkpt>
      <trkpt lat="45.34906" lon="5.87658">
        <ele>1876</ele>
        <time>2012-01-11T10:58:27.000Z</time>
      </trkpt>
      <trkpt lat="45.34904" lon="5.87655">
        <ele>1876</ele>
        <time>2012-01-11T10:58:31.000Z</time>
      </trkpt>
      <trkpt lat="45.34902" lon="5.87655">
        <ele>1876.5999755859</ele>
        <time>2012-01-11T10:58:37.000Z</time>
      </trkpt>
      <trkpt lat="45.34898" lon="5.87652">
        <ele>1878</ele>
        <time>2012-01-11T10:58:44.000Z</time>
      </trkpt>
      <trkpt lat="45.34894" lon="5.87651">
        <ele>1879</ele>
        <time>2012-01-11T10:58:50.000Z</time>
      </trkpt>
      <trkpt lat="45.34894" lon="5.8765">
        <ele>1879</ele>
        <time>2012-01-11T10:58:54.000Z</time>
      </trkpt>
      <trkpt lat="45.34891" lon="5.8765">
        <ele>1879.8000488281</ele>
        <time>2012-01-11T10:59:11.000Z</time>
      </trkpt>
      <trkpt lat="45.34888" lon="5.87647">
        <ele>1880.8000488281</ele>
        <time>2012-01-11T10:59:17.000Z</time>
      </trkpt>
      <trkpt lat="45.34885" lon="5.87645">
        <ele>1881.8000488281</ele>
        <time>2012-01-11T10:59:22.000Z</time>
      </trkpt>
      <trkpt lat="45.34882" lon="5.87644">
        <ele>1882.1999511719</ele>
        <time>2012-01-11T10:59:27.000Z</time>
      </trkpt>
      <trkpt lat="45.34878" lon="5.87642">
        <ele>1883.1999511719</ele>
        <time>2012-01-11T10:59:33.000Z</time>
      </trkpt>
      <trkpt lat="45.34875" lon="5.8764">
        <ele>1883.8000488281</ele>
        <time>2012-01-11T10:59:38.000Z</time>
      </trkpt>
      <trkpt lat="45.34873" lon="5.87639">
        <ele>1884.8000488281</ele>
        <time>2012-01-11T10:59:42.000Z</time>
      </trkpt>
      <trkpt lat="45.34871" lon="5.87639">
        <ele>1884.8000488281</ele>
        <time>2012-01-11T10:59:51.000Z</time>
      </trkpt>
      <trkpt lat="45.34868" lon="5.87638">
        <ele>1885.1999511719</ele>
        <time>2012-01-11T10:59:56.000Z</time>
      </trkpt>
      <trkpt lat="45.34865" lon="5.87637">
        <ele>1885.5999755859</ele>
        <time>2012-01-11T11:00:02.000Z</time>
      </trkpt>
      <trkpt lat="45.34862" lon="5.87635">
        <ele>1886.1999511719</ele>
        <time>2012-01-11T11:00:08.000Z</time>
      </trkpt>
      <trkpt lat="45.34859" lon="5.87635">
        <ele>1887.1999511719</ele>
        <time>2012-01-11T11:00:13.000Z</time>
      </trkpt>
      <trkpt lat="45.34855" lon="5.87634">
        <ele>1888</ele>
        <time>2012-01-11T11:00:19.000Z</time>
      </trkpt>
      <trkpt lat="45.34852" lon="5.87634">
        <ele>1889</ele>
        <time>2012-01-11T11:00:25.000Z</time>
      </trkpt>
      <trkpt lat="45.34849" lon="5.87634">
        <ele>1889.5999755859</ele>
        <time>2012-01-11T11:00:31.000Z</time>
      </trkpt>
      <trkpt lat="45.34847" lon="5.87633">
        <ele>1890.4000244141</ele>
        <time>2012-01-11T11:00:37.000Z</time>
      </trkpt>
      <trkpt lat="45.34844" lon="5.87631">
        <ele>1891.4000244141</ele>
        <time>2012-01-11T11:00:42.000Z</time>
      </trkpt>
      <trkpt lat="45.34844" lon="5.87629">
        <ele>1892</ele>
        <time>2012-01-11T11:00:47.000Z</time>
      </trkpt>
      <trkpt lat="45.34849" lon="5.87628">
        <ele>1893.4000244141</ele>
        <time>2012-01-11T11:00:57.000Z</time>
      </trkpt>
      <trkpt lat="45.34851" lon="5.87627">
        <ele>1893.4000244141</ele>
        <time>2012-01-11T11:01:00.000Z</time>
      </trkpt>
      <trkpt lat="45.34854" lon="5.87624">
        <ele>1894.8000488281</ele>
        <time>2012-01-11T11:01:06.000Z</time>
      </trkpt>
      <trkpt lat="45.34856" lon="5.87622">
        <ele>1895.1999511719</ele>
        <time>2012-01-11T11:01:10.000Z</time>
      </trkpt>
      <trkpt lat="45.34858" lon="5.87621">
        <ele>1896.1999511719</ele>
        <time>2012-01-11T11:01:14.000Z</time>
      </trkpt>
      <trkpt lat="45.34858" lon="5.87621">
        <ele>1897.5999755859</ele>
        <time>2012-01-11T11:01:23.000Z</time>
      </trkpt>
      <trkpt lat="45.34861" lon="5.87619">
        <ele>1898.5999755859</ele>
        <time>2012-01-11T11:01:28.000Z</time>
      </trkpt>
      <trkpt lat="45.34864" lon="5.87617">
        <ele>1899.5999755859</ele>
        <time>2012-01-11T11:01:33.000Z</time>
      </trkpt>
      <trkpt lat="45.34867" lon="5.87614">
        <ele>1900</ele>
        <time>2012-01-11T11:01:39.000Z</time>
      </trkpt>
      <trkpt lat="45.3487" lon="5.87611">
        <ele>1900.5999755859</ele>
        <time>2012-01-11T11:01:45.000Z</time>
      </trkpt>
      <trkpt lat="45.34874" lon="5.8761">
        <ele>1902</ele>
        <time>2012-01-11T11:02:07.000Z</time>
      </trkpt>
      <trkpt lat="45.34877" lon="5.87609">
        <ele>1902</ele>
        <time>2012-01-11T11:02:11.000Z</time>
      </trkpt>
      <trkpt lat="45.34881" lon="5.87606">
        <ele>1903</ele>
        <time>2012-01-11T11:02:16.000Z</time>
      </trkpt>
      <trkpt lat="45.34884" lon="5.87603">
        <ele>1904</ele>
        <time>2012-01-11T11:02:21.000Z</time>
      </trkpt>
      <trkpt lat="45.34886" lon="5.87599">
        <ele>1904.8000488281</ele>
        <time>2012-01-11T11:02:27.000Z</time>
      </trkpt>
      <trkpt lat="45.34888" lon="5.87597">
        <ele>1906.4000244141</ele>
        <time>2012-01-11T11:02:34.000Z</time>
      </trkpt>
      <trkpt lat="45.34887" lon="5.87597">
        <ele>1906.4000244141</ele>
        <time>2012-01-11T11:02:40.000Z</time>
      </trkpt>
      <trkpt lat="45.34886" lon="5.87598">
        <ele>1907.1999511719</ele>
        <time>2012-01-11T11:02:45.000Z</time>
      </trkpt>
      <trkpt lat="45.34881" lon="5.87598">
        <ele>1908.8000488281</ele>
        <time>2012-01-11T11:02:52.000Z</time>
      </trkpt>
      <trkpt lat="45.34878" lon="5.87597">
        <ele>1909.1999511719</ele>
        <time>2012-01-11T11:02:57.000Z</time>
      </trkpt>
      <trkpt lat="45.34875" lon="5.87595">
        <ele>1909.5999755859</ele>
        <time>2012-01-11T11:03:02.000Z</time>
      </trkpt>
      <trkpt lat="45.34872" lon="5.87595">
        <ele>1910.5999755859</ele>
        <time>2012-01-11T11:03:07.000Z</time>
      </trkpt>
      <trkpt lat="45.3487" lon="5.87594">
        <ele>1911.1999511719</ele>
        <time>2012-01-11T11:03:11.000Z</time>
      </trkpt>
      <trkpt lat="45.34869" lon="5.87593">
        <ele>1911.5999755859</ele>
        <time>2012-01-11T11:03:16.000Z</time>
      </trkpt>
      <trkpt lat="45.34869" lon="5.87592">
        <ele>1912</ele>
        <time>2012-01-11T11:03:22.000Z</time>
      </trkpt>
      <trkpt lat="45.3487" lon="5.87592">
        <ele>1912</ele>
        <time>2012-01-11T11:03:30.000Z</time>
      </trkpt>
      <trkpt lat="45.34871" lon="5.87591">
        <ele>1911.5999755859</ele>
        <time>2012-01-11T11:03:36.000Z</time>
      </trkpt>
      <trkpt lat="45.34873" lon="5.8759">
        <ele>1912.5999755859</ele>
        <time>2012-01-11T11:03:41.000Z</time>
      </trkpt>
      <trkpt lat="45.34875" lon="5.87588">
        <ele>1914.5999755859</ele>
        <time>2012-01-11T11:03:45.000Z</time>
      </trkpt>
      <trkpt lat="45.34879" lon="5.87586">
        <ele>1915</ele>
        <time>2012-01-11T11:03:53.000Z</time>
      </trkpt>
      <trkpt lat="45.34881" lon="5.87585">
        <ele>1915</ele>
        <time>2012-01-11T11:03:58.000Z</time>
      </trkpt>
      <trkpt lat="45.34882" lon="5.87585">
        <ele>1915.4000244141</ele>
        <time>2012-01-11T11:04:07.000Z</time>
      </trkpt>
      <trkpt lat="45.34883" lon="5.87585">
        <ele>1916.4000244141</ele>
        <time>2012-01-11T11:04:16.000Z</time>
      </trkpt>
      <trkpt lat="45.34884" lon="5.87585">
        <ele>1916.4000244141</ele>
        <time>2012-01-11T11:04:23.000Z</time>
      </trkpt>
      <trkpt lat="45.34886" lon="5.87584">
        <ele>1917</ele>
        <time>2012-01-11T11:04:31.000Z</time>
      </trkpt>
      <trkpt lat="45.34887" lon="5.87585">
        <ele>1917.4000244141</ele>
        <time>2012-01-11T11:04:38.000Z</time>
      </trkpt>
      <trkpt lat="45.34886" lon="5.87585">
        <ele>1917.4000244141</ele>
        <time>2012-01-11T11:04:43.000Z</time>
      </trkpt>
      <trkpt lat="45.34885" lon="5.87585">
        <ele>1917.8000488281</ele>
        <time>2012-01-11T11:04:52.000Z</time>
      </trkpt>
      <trkpt lat="45.34884" lon="5.87584">
        <ele>1917.4000244141</ele>
        <time>2012-01-11T11:04:57.000Z</time>
      </trkpt>
      <trkpt lat="45.34882" lon="5.87583">
        <ele>1917</ele>
        <time>2012-01-11T11:05:01.000Z</time>
      </trkpt>
      <trkpt lat="45.34879" lon="5.87582">
        <ele>1917</ele>
        <time>2012-01-11T11:05:06.000Z</time>
      </trkpt>
      <trkpt lat="45.34878" lon="5.87582">
        <ele>1917.8000488281</ele>
        <time>2012-01-11T11:05:12.000Z</time>
      </trkpt>
      <trkpt lat="45.34879" lon="5.87582">
        <ele>1917.8000488281</ele>
        <time>2012-01-11T11:05:18.000Z</time>
      </trkpt>
      <trkpt lat="45.34879" lon="5.87582">
        <ele>1917.4000244141</ele>
        <time>2012-01-11T11:05:24.000Z</time>
      </trkpt>
      <trkpt lat="45.3488" lon="5.87583">
        <ele>1918.8000488281</ele>
        <time>2012-01-11T11:05:37.000Z</time>
      </trkpt>
      <trkpt lat="45.34882" lon="5.87582">
        <ele>1918.8000488281</ele>
        <time>2012-01-11T11:05:46.000Z</time>
      </trkpt>
      <trkpt lat="45.34883" lon="5.87582">
        <ele>1919.4000244141</ele>
        <time>2012-01-11T11:05:51.000Z</time>
      </trkpt>
      <trkpt lat="45.34882" lon="5.87583">
        <ele>1918.8000488281</ele>
        <time>2012-01-11T11:05:57.000Z</time>
      </trkpt>
      <trkpt lat="45.34882" lon="5.87582">
        <ele>1917.4000244141</ele>
        <time>2012-01-11T11:06:04.000Z</time>
      </trkpt>
      <trkpt lat="45.34881" lon="5.87582">
        <ele>1917</ele>
        <time>2012-01-11T11:06:12.000Z</time>
      </trkpt>
      <trkpt lat="45.34879" lon="5.87581">
        <ele>1917.4000244141</ele>
        <time>2012-01-11T11:06:22.000Z</time>
      </trkpt>
      <trkpt lat="45.34877" lon="5.8758">
        <ele>1917.8000488281</ele>
        <time>2012-01-11T11:06:27.000Z</time>
      </trkpt>
      <trkpt lat="45.34875" lon="5.87578">
        <ele>1918.4000244141</ele>
        <time>2012-01-11T11:06:32.000Z</time>
      </trkpt>
      <trkpt lat="45.34873" lon="5.87577">
        <ele>1919.4000244141</ele>
        <time>2012-01-11T11:06:36.000Z</time>
      </trkpt>
      <trkpt lat="45.34872" lon="5.87577">
        <ele>1919.8000488281</ele>
        <time>2012-01-11T11:06:45.000Z</time>
      </trkpt>
      <trkpt lat="45.3487" lon="5.87575">
        <ele>1920.8000488281</ele>
        <time>2012-01-11T11:06:54.000Z</time>
      </trkpt>
      <trkpt lat="45.34868" lon="5.87574">
        <ele>1921.8000488281</ele>
        <time>2012-01-11T11:06:59.000Z</time>
      </trkpt>
      <trkpt lat="45.34864" lon="5.87574">
        <ele>1923.1999511719</ele>
        <time>2012-01-11T11:07:04.000Z</time>
      </trkpt>
      <trkpt lat="45.34861" lon="5.87573">
        <ele>1924.1999511719</ele>
        <time>2012-01-11T11:07:12.000Z</time>
      </trkpt>
      <trkpt lat="45.34862" lon="5.87571">
        <ele>1924.1999511719</ele>
        <time>2012-01-11T11:07:18.000Z</time>
      </trkpt>
      <trkpt lat="45.34863" lon="5.8757">
        <ele>1923.5999755859</ele>
        <time>2012-01-11T11:07:27.000Z</time>
      </trkpt>
      <trkpt lat="45.34864" lon="5.87569">
        <ele>1926</ele>
        <time>2012-01-11T11:07:44.000Z</time>
      </trkpt>
      <trkpt lat="45.34867" lon="5.87566">
        <ele>1927</ele>
        <time>2012-01-11T11:07:49.000Z</time>
      </trkpt>
      <trkpt lat="45.3487" lon="5.87564">
        <ele>1926.5999755859</ele>
        <time>2012-01-11T11:07:53.000Z</time>
      </trkpt>
      <trkpt lat="45.3487" lon="5.87564">
        <ele>1927</ele>
        <time>2012-01-11T11:07:58.000Z</time>
      </trkpt>
      <trkpt lat="45.34869" lon="5.87563">
        <ele>1927</ele>
        <time>2012-01-11T11:08:04.000Z</time>
      </trkpt>
      <trkpt lat="45.34867" lon="5.87562">
        <ele>1927</ele>
        <time>2012-01-11T11:08:11.000Z</time>
      </trkpt>
      <trkpt lat="45.34864" lon="5.87562">
        <ele>1928</ele>
        <time>2012-01-11T11:08:16.000Z</time>
      </trkpt>
      <trkpt lat="45.3486" lon="5.87562">
        <ele>1929</ele>
        <time>2012-01-11T11:08:22.000Z</time>
      </trkpt>
      <trkpt lat="45.34856" lon="5.87562">
        <ele>1929.8000488281</ele>
        <time>2012-01-11T11:08:28.000Z</time>
      </trkpt>
      <trkpt lat="45.34854" lon="5.87562">
        <ele>1931.4000244141</ele>
        <time>2012-01-11T11:08:33.000Z</time>
      </trkpt>
      <trkpt lat="45.34852" lon="5.87562">
        <ele>1933.8000488281</ele>
        <time>2012-01-11T11:08:40.000Z</time>
      </trkpt>
      <trkpt lat="45.34851" lon="5.87562">
        <ele>1933.8000488281</ele>
        <time>2012-01-11T11:08:46.000Z</time>
      </trkpt>
      <trkpt lat="45.34848" lon="5.8756">
        <ele>1934.1999511719</ele>
        <time>2012-01-11T11:08:51.000Z</time>
      </trkpt>
      <trkpt lat="45.34844" lon="5.8756">
        <ele>1935.5999755859</ele>
        <time>2012-01-11T11:08:58.000Z</time>
      </trkpt>
      <trkpt lat="45.34842" lon="5.87561">
        <ele>1937</ele>
        <time>2012-01-11T11:09:03.000Z</time>
      </trkpt>
      <trkpt lat="45.34841" lon="5.87562">
        <ele>1939.4000244141</ele>
        <time>2012-01-11T11:09:07.000Z</time>
      </trkpt>
      <trkpt lat="45.34839" lon="5.87563">
        <ele>1941</ele>
        <time>2012-01-11T11:09:11.000Z</time>
      </trkpt>
      <trkpt lat="45.34837" lon="5.87563">
        <ele>1942</ele>
        <time>2012-01-11T11:09:16.000Z</time>
      </trkpt>
      <trkpt lat="45.34836" lon="5.87565">
        <ele>1944.8000488281</ele>
        <time>2012-01-11T11:09:45.000Z</time>
      </trkpt>
      <trkpt lat="45.34845" lon="5.87562">
        <ele>1953.4000244141</ele>
        <time>2012-01-11T11:10:38.000Z</time>
      </trkpt>
      <trkpt lat="45.34846" lon="5.87557">
        <ele>1952.4000244141</ele>
        <time>2012-01-11T11:10:43.000Z</time>
      </trkpt>
      <trkpt lat="45.34846" lon="5.87551">
        <ele>1949.5999755859</ele>
        <time>2012-01-11T11:10:48.000Z</time>
      </trkpt>
      <trkpt lat="45.34846" lon="5.87547">
        <ele>1948.1999511719</ele>
        <time>2012-01-11T11:10:53.000Z</time>
      </trkpt>
      <trkpt lat="45.34847" lon="5.87542">
        <ele>1947.1999511719</ele>
        <time>2012-01-11T11:10:59.000Z</time>
      </trkpt>
      <trkpt lat="45.34849" lon="5.87541">
        <ele>1946.8000488281</ele>
        <time>2012-01-11T11:11:03.000Z</time>
      </trkpt>
      <trkpt lat="45.34851" lon="5.87539">
        <ele>1947.1999511719</ele>
        <time>2012-01-11T11:11:09.000Z</time>
      </trkpt>
      <trkpt lat="45.34853" lon="5.87537">
        <ele>1947.5999755859</ele>
        <time>2012-01-11T11:11:14.000Z</time>
      </trkpt>
      <trkpt lat="45.34854" lon="5.87536">
        <ele>1948.5999755859</ele>
        <time>2012-01-11T11:11:19.000Z</time>
      </trkpt>
      <trkpt lat="45.34853" lon="5.87537">
        <ele>1948.1999511719</ele>
        <time>2012-01-11T11:11:32.000Z</time>
      </trkpt>
      <trkpt lat="45.34851" lon="5.87537">
        <ele>1948.5999755859</ele>
        <time>2012-01-11T11:11:38.000Z</time>
      </trkpt>
      <trkpt lat="45.34848" lon="5.87536">
        <ele>1949.1999511719</ele>
        <time>2012-01-11T11:11:44.000Z</time>
      </trkpt>
      <trkpt lat="45.34846" lon="5.87535">
        <ele>1949.5999755859</ele>
        <time>2012-01-11T11:11:48.000Z</time>
      </trkpt>
      <trkpt lat="45.34843" lon="5.87534">
        <ele>1950</ele>
        <time>2012-01-11T11:11:53.000Z</time>
      </trkpt>
      <trkpt lat="45.34841" lon="5.87534">
        <ele>1950.5999755859</ele>
        <time>2012-01-11T11:11:58.000Z</time>
      </trkpt>
      <trkpt lat="45.34838" lon="5.87534">
        <ele>1952</ele>
        <time>2012-01-11T11:12:03.000Z</time>
      </trkpt>
      <trkpt lat="45.34835" lon="5.87535">
        <ele>1953</ele>
        <time>2012-01-11T11:12:08.000Z</time>
      </trkpt>
      <trkpt lat="45.34833" lon="5.87537">
        <ele>1954.8000488281</ele>
        <time>2012-01-11T11:12:13.000Z</time>
      </trkpt>
      <trkpt lat="45.34833" lon="5.87537">
        <ele>1955.4000244141</ele>
        <time>2012-01-11T11:12:22.000Z</time>
      </trkpt>
      <trkpt lat="45.34829" lon="5.8754">
        <ele>1956.4000244141</ele>
        <time>2012-01-11T11:12:29.000Z</time>
      </trkpt>
      <trkpt lat="45.34828" lon="5.8754">
        <ele>1956.4000244141</ele>
        <time>2012-01-11T11:12:33.000Z</time>
      </trkpt>
      <trkpt lat="45.34826" lon="5.87542">
        <ele>1957.1999511719</ele>
        <time>2012-01-11T11:12:37.000Z</time>
      </trkpt>
      <trkpt lat="45.34832" lon="5.87544">
        <ele>1965.4000244141</ele>
        <time>2012-01-11T11:12:47.000Z</time>
      </trkpt>
      <trkpt lat="45.34835" lon="5.87546">
        <ele>1968.4000244141</ele>
        <time>2012-01-11T11:12:50.000Z</time>
      </trkpt>
      <trkpt lat="45.34842" lon="5.87547">
        <ele>1973.1999511719</ele>
        <time>2012-01-11T11:12:55.000Z</time>
      </trkpt>
      <trkpt lat="45.34846" lon="5.87545">
        <ele>1976.5999755859</ele>
        <time>2012-01-11T11:12:57.000Z</time>
      </trkpt>
      <trkpt lat="45.34865" lon="5.87544">
        <ele>1989</ele>
        <time>2012-01-11T11:13:02.000Z</time>
      </trkpt>
      <trkpt lat="45.34865" lon="5.87543">
        <ele>1992.4000244141</ele>
        <time>2012-01-11T11:13:07.000Z</time>
      </trkpt>
      <trkpt lat="45.34848" lon="5.87531">
        <ele>1966.8000488281</ele>
        <time>2012-01-11T11:13:12.000Z</time>
      </trkpt>
      <trkpt lat="45.34841" lon="5.87526">
        <ele>1962.5999755859</ele>
        <time>2012-01-11T11:13:17.000Z</time>
      </trkpt>
      <trkpt lat="45.3484" lon="5.87524">
        <ele>1961.5999755859</ele>
        <time>2012-01-11T11:13:19.000Z</time>
      </trkpt>
      <trkpt lat="45.34838" lon="5.87521">
        <ele>1961.5999755859</ele>
        <time>2012-01-11T11:13:23.000Z</time>
      </trkpt>
      <trkpt lat="45.34836" lon="5.87516">
        <ele>1961.1999511719</ele>
        <time>2012-01-11T11:13:28.000Z</time>
      </trkpt>
      <trkpt lat="45.34836" lon="5.87513">
        <ele>1961.5999755859</ele>
        <time>2012-01-11T11:13:32.000Z</time>
      </trkpt>
      <trkpt lat="45.34837" lon="5.87511">
        <ele>1961.5999755859</ele>
        <time>2012-01-11T11:13:42.000Z</time>
      </trkpt>
      <trkpt lat="45.3484" lon="5.87508">
        <ele>1963.5999755859</ele>
        <time>2012-01-11T11:13:47.000Z</time>
      </trkpt>
      <trkpt lat="45.34842" lon="5.87506">
        <ele>1966</ele>
        <time>2012-01-11T11:13:52.000Z</time>
      </trkpt>
      <trkpt lat="45.34841" lon="5.87506">
        <ele>1966</ele>
        <time>2012-01-11T11:13:59.000Z</time>
      </trkpt>
      <trkpt lat="45.3484" lon="5.87507">
        <ele>1965.4000244141</ele>
        <time>2012-01-11T11:14:04.000Z</time>
      </trkpt>
      <trkpt lat="45.34837" lon="5.87507">
        <ele>1966.4000244141</ele>
        <time>2012-01-11T11:14:09.000Z</time>
      </trkpt>
      <trkpt lat="45.34834" lon="5.87505">
        <ele>1966.8000488281</ele>
        <time>2012-01-11T11:14:14.000Z</time>
      </trkpt>
      <trkpt lat="45.34832" lon="5.87505">
        <ele>1966.8000488281</ele>
        <time>2012-01-11T11:14:19.000Z</time>
      </trkpt>
      <trkpt lat="45.34829" lon="5.87505">
        <ele>1967.8000488281</ele>
        <time>2012-01-11T11:14:23.000Z</time>
      </trkpt>
      <trkpt lat="45.34826" lon="5.87505">
        <ele>1968.8000488281</ele>
        <time>2012-01-11T11:14:29.000Z</time>
      </trkpt>
      <trkpt lat="45.34824" lon="5.87506">
        <ele>1969.8000488281</ele>
        <time>2012-01-11T11:14:35.000Z</time>
      </trkpt>
      <trkpt lat="45.34822" lon="5.87507">
        <ele>1970.1999511719</ele>
        <time>2012-01-11T11:14:43.000Z</time>
      </trkpt>
      <trkpt lat="45.3482" lon="5.87507">
        <ele>1970.8000488281</ele>
        <time>2012-01-11T11:14:49.000Z</time>
      </trkpt>
      <trkpt lat="45.34822" lon="5.87504">
        <ele>1970.1999511719</ele>
        <time>2012-01-11T11:14:58.000Z</time>
      </trkpt>
      <trkpt lat="45.34822" lon="5.87501">
        <ele>1971.1999511719</ele>
        <time>2012-01-11T11:15:04.000Z</time>
      </trkpt>
      <trkpt lat="45.34824" lon="5.87497">
        <ele>1971.8000488281</ele>
        <time>2012-01-11T11:15:10.000Z</time>
      </trkpt>
      <trkpt lat="45.34827" lon="5.87494">
        <ele>1972.1999511719</ele>
        <time>2012-01-11T11:15:14.000Z</time>
      </trkpt>
      <trkpt lat="45.34829" lon="5.87493">
        <ele>1973.1999511719</ele>
        <time>2012-01-11T11:15:18.000Z</time>
      </trkpt>
      <trkpt lat="45.3483" lon="5.87492">
        <ele>1974.1999511719</ele>
        <time>2012-01-11T11:15:25.000Z</time>
      </trkpt>
      <trkpt lat="45.34829" lon="5.87491">
        <ele>1974.5999755859</ele>
        <time>2012-01-11T11:15:30.000Z</time>
      </trkpt>
      <trkpt lat="45.34827" lon="5.8749">
        <ele>1975.5999755859</ele>
        <time>2012-01-11T11:15:37.000Z</time>
      </trkpt>
      <trkpt lat="45.34824" lon="5.87489">
        <ele>1976</ele>
        <time>2012-01-11T11:15:42.000Z</time>
      </trkpt>
      <trkpt lat="45.34821" lon="5.87488">
        <ele>1977</ele>
        <time>2012-01-11T11:15:47.000Z</time>
      </trkpt>
      <trkpt lat="45.34819" lon="5.87487">
        <ele>1977</ele>
        <time>2012-01-11T11:15:52.000Z</time>
      </trkpt>
      <trkpt lat="45.34817" lon="5.87487">
        <ele>1977</ele>
        <time>2012-01-11T11:16:00.000Z</time>
      </trkpt>
      <trkpt lat="45.34815" lon="5.87487">
        <ele>1977.4000244141</ele>
        <time>2012-01-11T11:16:05.000Z</time>
      </trkpt>
      <trkpt lat="45.34815" lon="5.87486">
        <ele>1978</ele>
        <time>2012-01-11T11:16:10.000Z</time>
      </trkpt>
      <trkpt lat="45.34815" lon="5.87484">
        <ele>1979</ele>
        <time>2012-01-11T11:16:17.000Z</time>
      </trkpt>
      <trkpt lat="45.34815" lon="5.87484">
        <ele>1978.4000244141</ele>
        <time>2012-01-11T11:16:26.000Z</time>
      </trkpt>
      <trkpt lat="45.34816" lon="5.87482">
        <ele>1978.4000244141</ele>
        <time>2012-01-11T11:16:32.000Z</time>
      </trkpt>
      <trkpt lat="45.34817" lon="5.87479">
        <ele>1979</ele>
        <time>2012-01-11T11:16:35.000Z</time>
      </trkpt>
      <trkpt lat="45.34817" lon="5.87479">
        <ele>1979</ele>
        <time>2012-01-11T11:16:40.000Z</time>
      </trkpt>
      <trkpt lat="45.34818" lon="5.87476">
        <ele>1979</ele>
        <time>2012-01-11T11:16:55.000Z</time>
      </trkpt>
      <trkpt lat="45.3482" lon="5.87474">
        <ele>1979.8000488281</ele>
        <time>2012-01-11T11:17:00.000Z</time>
      </trkpt>
      <trkpt lat="45.34821" lon="5.87474">
        <ele>1980.8000488281</ele>
        <time>2012-01-11T11:17:08.000Z</time>
      </trkpt>
      <trkpt lat="45.34823" lon="5.87474">
        <ele>1981.4000244141</ele>
        <time>2012-01-11T11:17:13.000Z</time>
      </trkpt>
      <trkpt lat="45.34823" lon="5.87474">
        <ele>1982.1999511719</ele>
        <time>2012-01-11T11:17:18.000Z</time>
      </trkpt>
      <trkpt lat="45.34822" lon="5.87474">
        <ele>1982.8000488281</ele>
        <time>2012-01-11T11:17:23.000Z</time>
      </trkpt>
      <trkpt lat="45.34817" lon="5.87471">
        <ele>1983.8000488281</ele>
        <time>2012-01-11T11:17:30.000Z</time>
      </trkpt>
      <trkpt lat="45.34815" lon="5.8747">
        <ele>1984.1999511719</ele>
        <time>2012-01-11T11:17:34.000Z</time>
      </trkpt>
      <trkpt lat="45.34812" lon="5.87469">
        <ele>1985.1999511719</ele>
        <time>2012-01-11T11:17:40.000Z</time>
      </trkpt>
      <trkpt lat="45.3481" lon="5.8747">
        <ele>1986.5999755859</ele>
        <time>2012-01-11T11:17:45.000Z</time>
      </trkpt>
      <trkpt lat="45.34808" lon="5.87472">
        <ele>1988</ele>
        <time>2012-01-11T11:17:52.000Z</time>
      </trkpt>
      <trkpt lat="45.34805" lon="5.87473">
        <ele>1989</ele>
        <time>2012-01-11T11:18:02.000Z</time>
      </trkpt>
      <trkpt lat="45.348" lon="5.87478">
        <ele>1991</ele>
        <time>2012-01-11T11:18:11.000Z</time>
      </trkpt>
      <trkpt lat="45.34797" lon="5.87479">
        <ele>1991.8000488281</ele>
        <time>2012-01-11T11:18:17.000Z</time>
      </trkpt>
      <trkpt lat="45.34796" lon="5.87479">
        <ele>1992.4000244141</ele>
        <time>2012-01-11T11:18:28.000Z</time>
      </trkpt>
      <trkpt lat="45.34796" lon="5.87479">
        <ele>1993.4000244141</ele>
        <time>2012-01-11T11:18:36.000Z</time>
      </trkpt>
      <trkpt lat="45.34796" lon="5.87479">
        <ele>1993.8000488281</ele>
        <time>2012-01-11T11:18:44.000Z</time>
      </trkpt>
      <trkpt lat="45.34795" lon="5.87477">
        <ele>1993.8000488281</ele>
        <time>2012-01-11T11:18:50.000Z</time>
      </trkpt>
      <trkpt lat="45.34794" lon="5.87473">
        <ele>1994.1999511719</ele>
        <time>2012-01-11T11:18:55.000Z</time>
      </trkpt>
      <trkpt lat="45.34794" lon="5.87472">
        <ele>1995.1999511719</ele>
        <time>2012-01-11T11:19:00.000Z</time>
      </trkpt>
      <trkpt lat="45.34793" lon="5.87469">
        <ele>1996.1999511719</ele>
        <time>2012-01-11T11:19:05.000Z</time>
      </trkpt>
      <trkpt lat="45.34793" lon="5.87468">
        <ele>1996.1999511719</ele>
        <time>2012-01-11T11:19:10.000Z</time>
      </trkpt>
      <trkpt lat="45.34792" lon="5.87467">
        <ele>1996.5999755859</ele>
        <time>2012-01-11T11:19:24.000Z</time>
      </trkpt>
      <trkpt lat="45.3479" lon="5.87465">
        <ele>1997.5999755859</ele>
        <time>2012-01-11T11:19:28.000Z</time>
      </trkpt>
      <trkpt lat="45.34788" lon="5.87462">
        <ele>1998.1999511719</ele>
        <time>2012-01-11T11:19:33.000Z</time>
      </trkpt>
      <trkpt lat="45.34786" lon="5.87458">
        <ele>1998.5999755859</ele>
        <time>2012-01-11T11:19:38.000Z</time>
      </trkpt>
      <trkpt lat="45.34784" lon="5.87456">
        <ele>1999</ele>
        <time>2012-01-11T11:19:42.000Z</time>
      </trkpt>
      <trkpt lat="45.34785" lon="5.87456">
        <ele>1998.1999511719</ele>
        <time>2012-01-11T11:19:55.000Z</time>
      </trkpt>
      <trkpt lat="45.34783" lon="5.87451">
        <ele>1997.5999755859</ele>
        <time>2012-01-11T11:20:05.000Z</time>
      </trkpt>
      <trkpt lat="45.34782" lon="5.87448">
        <ele>1998.1999511719</ele>
        <time>2012-01-11T11:20:10.000Z</time>
      </trkpt>
      <trkpt lat="45.34782" lon="5.87445">
        <ele>1999</ele>
        <time>2012-01-11T11:20:14.000Z</time>
      </trkpt>
      <trkpt lat="45.34784" lon="5.87444">
        <ele>1999.5999755859</ele>
        <time>2012-01-11T11:20:18.000Z</time>
      </trkpt>
      <trkpt lat="45.34787" lon="5.87442">
        <ele>2001</ele>
        <time>2012-01-11T11:20:24.000Z</time>
      </trkpt>
      <trkpt lat="45.34791" lon="5.87441">
        <ele>2002</ele>
        <time>2012-01-11T11:20:31.000Z</time>
      </trkpt>
      <trkpt lat="45.34793" lon="5.87439">
        <ele>2003.4000244141</ele>
        <time>2012-01-11T11:20:37.000Z</time>
      </trkpt>
      <trkpt lat="45.34796" lon="5.87437">
        <ele>2004.4000244141</ele>
        <time>2012-01-11T11:20:43.000Z</time>
      </trkpt>
      <trkpt lat="45.34796" lon="5.87438">
        <ele>2004.8000488281</ele>
        <time>2012-01-11T11:20:53.000Z</time>
      </trkpt>
      <trkpt lat="45.34799" lon="5.87436">
        <ele>2006.8000488281</ele>
        <time>2012-01-11T11:21:17.000Z</time>
      </trkpt>
      <trkpt lat="45.34798" lon="5.87435">
        <ele>2006.4000244141</ele>
        <time>2012-01-11T11:21:22.000Z</time>
      </trkpt>
      <trkpt lat="45.34797" lon="5.87433">
        <ele>2006.8000488281</ele>
        <time>2012-01-11T11:21:28.000Z</time>
      </trkpt>
      <trkpt lat="45.34795" lon="5.8743">
        <ele>2006.8000488281</ele>
        <time>2012-01-11T11:21:33.000Z</time>
      </trkpt>
      <trkpt lat="45.34793" lon="5.87426">
        <ele>2007.1999511719</ele>
        <time>2012-01-11T11:21:38.000Z</time>
      </trkpt>
      <trkpt lat="45.34791" lon="5.87424">
        <ele>2007.8000488281</ele>
        <time>2012-01-11T11:21:43.000Z</time>
      </trkpt>
      <trkpt lat="45.34788" lon="5.87422">
        <ele>2008.1999511719</ele>
        <time>2012-01-11T11:21:47.000Z</time>
      </trkpt>
      <trkpt lat="45.34788" lon="5.8742">
        <ele>2008.8000488281</ele>
        <time>2012-01-11T11:21:53.000Z</time>
      </trkpt>
      <trkpt lat="45.3479" lon="5.87419">
        <ele>2009.1999511719</ele>
        <time>2012-01-11T11:21:59.000Z</time>
      </trkpt>
      <trkpt lat="45.34792" lon="5.87418">
        <ele>2010.1999511719</ele>
        <time>2012-01-11T11:22:04.000Z</time>
      </trkpt>
      <trkpt lat="45.34794" lon="5.87417">
        <ele>2010.5999755859</ele>
        <time>2012-01-11T11:22:08.000Z</time>
      </trkpt>
      <trkpt lat="45.34797" lon="5.87415">
        <ele>2011.5999755859</ele>
        <time>2012-01-11T11:22:14.000Z</time>
      </trkpt>
      <trkpt lat="45.34798" lon="5.87414">
        <ele>2012.5999755859</ele>
        <time>2012-01-11T11:22:19.000Z</time>
      </trkpt>
      <trkpt lat="45.348" lon="5.87413">
        <ele>2013</ele>
        <time>2012-01-11T11:22:24.000Z</time>
      </trkpt>
      <trkpt lat="45.34804" lon="5.8741">
        <ele>2013.5999755859</ele>
        <time>2012-01-11T11:22:29.000Z</time>
      </trkpt>
      <trkpt lat="45.34806" lon="5.87409">
        <ele>2015</ele>
        <time>2012-01-11T11:22:34.000Z</time>
      </trkpt>
      <trkpt lat="45.34806" lon="5.87409">
        <ele>2015.4000244141</ele>
        <time>2012-01-11T11:22:39.000Z</time>
      </trkpt>
      <trkpt lat="45.34803" lon="5.87407">
        <ele>2016.8000488281</ele>
        <time>2012-01-11T11:22:44.000Z</time>
      </trkpt>
      <trkpt lat="45.34799" lon="5.87404">
        <ele>2017.4000244141</ele>
        <time>2012-01-11T11:22:50.000Z</time>
      </trkpt>
      <trkpt lat="45.34797" lon="5.874">
        <ele>2017.8000488281</ele>
        <time>2012-01-11T11:22:55.000Z</time>
      </trkpt>
      <trkpt lat="45.34794" lon="5.87398">
        <ele>2018.8000488281</ele>
        <time>2012-01-11T11:23:01.000Z</time>
      </trkpt>
      <trkpt lat="45.3479" lon="5.87394">
        <ele>2019.1999511719</ele>
        <time>2012-01-11T11:23:07.000Z</time>
      </trkpt>
      <trkpt lat="45.34787" lon="5.87391">
        <ele>2020.1999511719</ele>
        <time>2012-01-11T11:23:12.000Z</time>
      </trkpt>
      <trkpt lat="45.34784" lon="5.87387">
        <ele>2020.1999511719</ele>
        <time>2012-01-11T11:23:18.000Z</time>
      </trkpt>
      <trkpt lat="45.34782" lon="5.87385">
        <ele>2020.8000488281</ele>
        <time>2012-01-11T11:23:22.000Z</time>
      </trkpt>
      <trkpt lat="45.3478" lon="5.87383">
        <ele>2021.1999511719</ele>
        <time>2012-01-11T11:23:26.000Z</time>
      </trkpt>
      <trkpt lat="45.34778" lon="5.87379">
        <ele>2021.5999755859</ele>
        <time>2012-01-11T11:23:30.000Z</time>
      </trkpt>
      <trkpt lat="45.34775" lon="5.87375">
        <ele>2021.5999755859</ele>
        <time>2012-01-11T11:23:37.000Z</time>
      </trkpt>
      <trkpt lat="45.34772" lon="5.87373">
        <ele>2023.1999511719</ele>
        <time>2012-01-11T11:23:43.000Z</time>
      </trkpt>
      <trkpt lat="45.34772" lon="5.87372">
        <ele>2025.5999755859</ele>
        <time>2012-01-11T11:24:01.000Z</time>
      </trkpt>
      <trkpt lat="45.34769" lon="5.8737">
        <ele>2026.4000244141</ele>
        <time>2012-01-11T11:24:05.000Z</time>
      </trkpt>
      <trkpt lat="45.34765" lon="5.87367">
        <ele>2028</ele>
        <time>2012-01-11T11:24:11.000Z</time>
      </trkpt>
      <trkpt lat="45.34762" lon="5.87365">
        <ele>2029.4000244141</ele>
        <time>2012-01-11T11:24:17.000Z</time>
      </trkpt>
      <trkpt lat="45.34759" lon="5.87365">
        <ele>2029.4000244141</ele>
        <time>2012-01-11T11:24:21.000Z</time>
      </trkpt>
      <trkpt lat="45.34757" lon="5.87363">
        <ele>2030.4000244141</ele>
        <time>2012-01-11T11:24:25.000Z</time>
      </trkpt>
      <trkpt lat="45.34754" lon="5.87361">
        <ele>2032.1999511719</ele>
        <time>2012-01-11T11:24:30.000Z</time>
      </trkpt>
      <trkpt lat="45.34752" lon="5.8736">
        <ele>2033.8000488281</ele>
        <time>2012-01-11T11:24:35.000Z</time>
      </trkpt>
      <trkpt lat="45.3475" lon="5.87358">
        <ele>2035.1999511719</ele>
        <time>2012-01-11T11:24:39.000Z</time>
      </trkpt>
      <trkpt lat="45.34746" lon="5.87356">
        <ele>2036.5999755859</ele>
        <time>2012-01-11T11:24:45.000Z</time>
      </trkpt>
      <trkpt lat="45.34742" lon="5.87353">
        <ele>2038</ele>
        <time>2012-01-11T11:24:52.000Z</time>
      </trkpt>
      <trkpt lat="45.34737" lon="5.8735">
        <ele>2039</ele>
        <time>2012-01-11T11:24:59.000Z</time>
      </trkpt>
      <trkpt lat="45.34733" lon="5.87348">
        <ele>2039.4000244141</ele>
        <time>2012-01-11T11:25:04.000Z</time>
      </trkpt>
      <trkpt lat="45.34728" lon="5.87347">
        <ele>2040</ele>
        <time>2012-01-11T11:25:08.000Z</time>
      </trkpt>
      <trkpt lat="45.34724" lon="5.87344">
        <ele>2040</ele>
        <time>2012-01-11T11:25:12.000Z</time>
      </trkpt>
      <trkpt lat="45.34716" lon="5.87343">
        <ele>2038.5999755859</ele>
        <time>2012-01-11T11:25:19.000Z</time>
      </trkpt>
      <trkpt lat="45.34715" lon="5.87343">
        <ele>2038.5999755859</ele>
        <time>2012-01-11T11:25:20.000Z</time>
      </trkpt>
      <trkpt lat="45.34714" lon="5.87343">
        <ele>2038.5999755859</ele>
        <time>2012-01-11T11:25:28.000Z</time>
      </trkpt>
      <trkpt lat="45.3471" lon="5.87343">
        <ele>2039.4000244141</ele>
        <time>2012-01-11T11:25:35.000Z</time>
      </trkpt>
      <trkpt lat="45.34707" lon="5.87341">
        <ele>2040</ele>
        <time>2012-01-11T11:25:40.000Z</time>
      </trkpt>
      <trkpt lat="45.34705" lon="5.8734">
        <ele>2040.4000244141</ele>
        <time>2012-01-11T11:25:44.000Z</time>
      </trkpt>
      <trkpt lat="45.34703" lon="5.87339">
        <ele>2041</ele>
        <time>2012-01-11T11:25:48.000Z</time>
      </trkpt>
      <trkpt lat="45.34702" lon="5.87338">
        <ele>2041.8000488281</ele>
        <time>2012-01-11T11:25:53.000Z</time>
      </trkpt>
      <trkpt lat="45.34702" lon="5.87338">
        <ele>2041.8000488281</ele>
        <time>2012-01-11T11:26:00.000Z</time>
      </trkpt>
      <trkpt lat="45.34703" lon="5.87336">
        <ele>2042.8000488281</ele>
        <time>2012-01-11T11:26:09.000Z</time>
      </trkpt>
      <trkpt lat="45.34705" lon="5.87334">
        <ele>2043.8000488281</ele>
        <time>2012-01-11T11:26:15.000Z</time>
      </trkpt>
      <trkpt lat="45.34707" lon="5.87332">
        <ele>2044.1999511719</ele>
        <time>2012-01-11T11:26:21.000Z</time>
      </trkpt>
      <trkpt lat="45.34708" lon="5.87332">
        <ele>2044.8000488281</ele>
        <time>2012-01-11T11:26:30.000Z</time>
      </trkpt>
      <trkpt lat="45.34709" lon="5.87331">
        <ele>2044.8000488281</ele>
        <time>2012-01-11T11:26:40.000Z</time>
      </trkpt>
      <trkpt lat="45.34709" lon="5.87332">
        <ele>2045.1999511719</ele>
        <time>2012-01-11T11:26:50.000Z</time>
      </trkpt>
      <trkpt lat="45.34708" lon="5.87332">
        <ele>2045.1999511719</ele>
        <time>2012-01-11T11:26:56.000Z</time>
      </trkpt>
      <trkpt lat="45.34708" lon="5.87332">
        <ele>2045.1999511719</ele>
        <time>2012-01-11T11:27:05.000Z</time>
      </trkpt>
      <trkpt lat="45.34707" lon="5.87332">
        <ele>2046.5999755859</ele>
        <time>2012-01-11T11:27:22.000Z</time>
      </trkpt>
      <trkpt lat="45.34705" lon="5.87332">
        <ele>2047.1999511719</ele>
        <time>2012-01-11T11:27:29.000Z</time>
      </trkpt>
      <trkpt lat="45.34705" lon="5.87332">
        <ele>2047.1999511719</ele>
        <time>2012-01-11T11:27:39.000Z</time>
      </trkpt>
      <trkpt lat="45.34704" lon="5.87331">
        <ele>2047.5999755859</ele>
        <time>2012-01-11T11:27:45.000Z</time>
      </trkpt>
      <trkpt lat="45.34705" lon="5.8733">
        <ele>2047.5999755859</ele>
        <time>2012-01-11T11:27:51.000Z</time>
      </trkpt>
      <trkpt lat="45.34705" lon="5.87329">
        <ele>2046.5999755859</ele>
        <time>2012-01-11T11:28:02.000Z</time>
      </trkpt>
      <trkpt lat="45.34705" lon="5.87329">
        <ele>2046.1999511719</ele>
        <time>2012-01-11T11:28:18.000Z</time>
      </trkpt>
      <trkpt lat="45.34705" lon="5.87329">
        <ele>2047.1999511719</ele>
        <time>2012-01-11T11:28:27.000Z</time>
      </trkpt>
      <trkpt lat="45.34706" lon="5.87328">
        <ele>2048.1999511719</ele>
        <time>2012-01-11T11:28:34.000Z</time>
      </trkpt>
      <trkpt lat="45.34706" lon="5.87326">
        <ele>2048.6000976562</ele>
        <time>2012-01-11T11:28:40.000Z</time>
      </trkpt>
      <trkpt lat="45.34706" lon="5.87326">
        <ele>2048.6000976562</ele>
        <time>2012-01-11T11:28:46.000Z</time>
      </trkpt>
      <trkpt lat="45.34703" lon="5.87327">
        <ele>2049.6000976562</ele>
        <time>2012-01-11T11:28:51.000Z</time>
      </trkpt>
      <trkpt lat="45.34701" lon="5.87328">
        <ele>2050</ele>
        <time>2012-01-11T11:28:57.000Z</time>
      </trkpt>
      <trkpt lat="45.347" lon="5.87329">
        <ele>2051.3999023438</ele>
        <time>2012-01-11T11:29:04.000Z</time>
      </trkpt>
      <trkpt lat="45.347" lon="5.87326">
        <ele>2051.3999023438</ele>
        <time>2012-01-11T11:29:11.000Z</time>
      </trkpt>
      <trkpt lat="45.347" lon="5.87325">
        <ele>2052</ele>
        <time>2012-01-11T11:29:21.000Z</time>
      </trkpt>
      <trkpt lat="45.347" lon="5.87322">
        <ele>2052.3999023438</ele>
        <time>2012-01-11T11:29:26.000Z</time>
      </trkpt>
      <trkpt lat="45.34698" lon="5.87324">
        <ele>2052.3999023438</ele>
        <time>2012-01-11T11:29:31.000Z</time>
      </trkpt>
      <trkpt lat="45.34696" lon="5.87325">
        <ele>2053.3999023438</ele>
        <time>2012-01-11T11:29:37.000Z</time>
      </trkpt>
      <trkpt lat="45.34694" lon="5.87325">
        <ele>2054.3999023438</ele>
        <time>2012-01-11T11:29:47.000Z</time>
      </trkpt>
      <trkpt lat="45.34691" lon="5.8732">
        <ele>2055.3999023438</ele>
        <time>2012-01-11T11:29:52.000Z</time>
      </trkpt>
      <trkpt lat="45.34691" lon="5.8732">
        <ele>2055.3999023438</ele>
        <time>2012-01-11T11:30:00.000Z</time>
      </trkpt>
      <trkpt lat="45.34692" lon="5.87321">
        <ele>2055.3999023438</ele>
        <time>2012-01-11T11:30:13.000Z</time>
      </trkpt>
      <trkpt lat="45.34692" lon="5.87321">
        <ele>2055.3999023438</ele>
        <time>2012-01-11T11:30:51.000Z</time>
      </trkpt>
      <trkpt lat="45.34693" lon="5.87322">
        <ele>2054.3999023438</ele>
        <time>2012-01-11T11:31:38.000Z</time>
      </trkpt>
      <trkpt lat="45.34693" lon="5.87322">
        <ele>2054.3999023438</ele>
        <time>2012-01-11T11:31:46.000Z</time>
      </trkpt>
      <trkpt lat="45.34693" lon="5.87322">
        <ele>2054.3999023438</ele>
        <time>2012-01-11T11:31:54.000Z</time>
      </trkpt>
      <trkpt lat="45.34693" lon="5.87322">
        <ele>2053.8000488281</ele>
        <time>2012-01-11T11:32:04.000Z</time>
      </trkpt>
      <trkpt lat="45.34693" lon="5.87322">
        <ele>2053.8000488281</ele>
        <time>2012-01-11T11:32:27.000Z</time>
      </trkpt>
      <trkpt lat="45.34692" lon="5.87322">
        <ele>2054.3999023438</ele>
        <time>2012-01-11T11:32:41.000Z</time>
      </trkpt>
      <trkpt lat="45.34692" lon="5.87322">
        <ele>2055.8000488281</ele>
        <time>2012-01-11T11:32:59.000Z</time>
      </trkpt>
      <trkpt lat="45.34692" lon="5.87321">
        <ele>2056.1999511719</ele>
        <time>2012-01-11T11:33:10.000Z</time>
      </trkpt>
      <trkpt lat="45.34693" lon="5.87321">
        <ele>2056.8000488281</ele>
        <time>2012-01-11T11:33:24.000Z</time>
      </trkpt>
      <trkpt lat="45.34693" lon="5.87321">
        <ele>2055.8000488281</ele>
        <time>2012-01-11T11:33:31.000Z</time>
      </trkpt>
      <trkpt lat="45.34693" lon="5.87321">
        <ele>2055.3999023438</ele>
        <time>2012-01-11T11:33:37.000Z</time>
      </trkpt>
      <trkpt lat="45.34693" lon="5.87321">
        <ele>2055.3999023438</ele>
        <time>2012-01-11T11:33:46.000Z</time>
      </trkpt>
      <trkpt lat="45.34693" lon="5.87321">
        <ele>2054.8000488281</ele>
        <time>2012-01-11T11:33:59.000Z</time>
      </trkpt>
      <trkpt lat="45.34694" lon="5.87321">
        <ele>2053.3999023438</ele>
        <time>2012-01-11T11:34:10.000Z</time>
      </trkpt>
      <trkpt lat="45.34693" lon="5.87322">
        <ele>2055.3999023438</ele>
        <time>2012-01-11T11:34:31.000Z</time>
      </trkpt>
      <trkpt lat="45.34693" lon="5.87322">
        <ele>2056.1999511719</ele>
        <time>2012-01-11T11:34:42.000Z</time>
      </trkpt>
      <trkpt lat="45.34694" lon="5.87322">
        <ele>2056.8000488281</ele>
        <time>2012-01-11T11:34:52.000Z</time>
      </trkpt>
      <trkpt lat="45.34693" lon="5.87322">
        <ele>2056.8000488281</ele>
        <time>2012-01-11T11:35:00.000Z</time>
      </trkpt>
      <trkpt lat="45.34693" lon="5.87321">
        <ele>2056.1999511719</ele>
        <time>2012-01-11T11:35:05.000Z</time>
      </trkpt>
      <trkpt lat="45.34693" lon="5.87321">
        <ele>2055.8000488281</ele>
        <time>2012-01-11T11:35:11.000Z</time>
      </trkpt>
      <trkpt lat="45.34693" lon="5.87321">
        <ele>2055.3999023438</ele>
        <time>2012-01-11T11:35:17.000Z</time>
      </trkpt>
      <trkpt lat="45.34693" lon="5.87321">
        <ele>2054.3999023438</ele>
        <time>2012-01-11T11:35:30.000Z</time>
      </trkpt>
      <trkpt lat="45.34692" lon="5.87321">
        <ele>2054.3999023438</ele>
        <time>2012-01-11T11:35:41.000Z</time>
      </trkpt>
      <trkpt lat="45.34692" lon="5.87321">
        <ele>2053.3999023438</ele>
        <time>2012-01-11T11:36:01.000Z</time>
      </trkpt>
      <trkpt lat="45.34694" lon="5.87321">
        <ele>2053.8000488281</ele>
        <time>2012-01-11T11:37:13.000Z</time>
      </trkpt>
      <trkpt lat="45.34693" lon="5.87321">
        <ele>2053</ele>
        <time>2012-01-11T11:37:27.000Z</time>
      </trkpt>
      <trkpt lat="45.34692" lon="5.87322">
        <ele>2051.3999023438</ele>
        <time>2012-01-11T11:38:39.000Z</time>
      </trkpt>
      <trkpt lat="45.34692" lon="5.87322">
        <ele>2051.3999023438</ele>
        <time>2012-01-11T11:38:56.000Z</time>
      </trkpt>
      <trkpt lat="45.34692" lon="5.87322">
        <ele>2051.3999023438</ele>
        <time>2012-01-11T11:39:17.000Z</time>
      </trkpt>
      <trkpt lat="45.34695" lon="5.87322">
        <ele>2054.8000488281</ele>
        <time>2012-01-11T11:39:48.000Z</time>
      </trkpt>
      <trkpt lat="45.34694" lon="5.87322">
        <ele>2054.3999023438</ele>
        <time>2012-01-11T11:40:05.000Z</time>
      </trkpt>
      <trkpt lat="45.34694" lon="5.87322">
        <ele>2054.3999023438</ele>
        <time>2012-01-11T11:40:12.000Z</time>
      </trkpt>
      <trkpt lat="45.34694" lon="5.87323">
        <ele>2054.8000488281</ele>
        <time>2012-01-11T11:40:18.000Z</time>
      </trkpt>
      <trkpt lat="45.34693" lon="5.87322">
        <ele>2054.8000488281</ele>
        <time>2012-01-11T11:40:30.000Z</time>
      </trkpt>
      <trkpt lat="45.34693" lon="5.87322">
        <ele>2055.3999023438</ele>
        <time>2012-01-11T11:40:40.000Z</time>
      </trkpt>
      <trkpt lat="45.34694" lon="5.87322">
        <ele>2057.1999511719</ele>
        <time>2012-01-11T11:40:58.000Z</time>
      </trkpt>
      <trkpt lat="45.34695" lon="5.87323">
        <ele>2060.1999511719</ele>
        <time>2012-01-11T11:41:43.000Z</time>
      </trkpt>
      <trkpt lat="45.34695" lon="5.87323">
        <ele>2058.8000488281</ele>
        <time>2012-01-11T11:41:52.000Z</time>
      </trkpt>
      <trkpt lat="45.34693" lon="5.87323">
        <ele>2057.8000488281</ele>
        <time>2012-01-11T11:42:09.000Z</time>
      </trkpt>
      <trkpt lat="45.34693" lon="5.87322">
        <ele>2056.8000488281</ele>
        <time>2012-01-11T11:42:25.000Z</time>
      </trkpt>
      <trkpt lat="45.34693" lon="5.87321">
        <ele>2055.8000488281</ele>
        <time>2012-01-11T11:42:41.000Z</time>
      </trkpt>
      <trkpt lat="45.34693" lon="5.87322">
        <ele>2054.8000488281</ele>
        <time>2012-01-11T11:42:53.000Z</time>
      </trkpt>
      <trkpt lat="45.34692" lon="5.87322">
        <ele>2055.8000488281</ele>
        <time>2012-01-11T11:43:06.000Z</time>
      </trkpt>
      <trkpt lat="45.34692" lon="5.87321">
        <ele>2055.8000488281</ele>
        <time>2012-01-11T11:43:20.000Z</time>
      </trkpt>
      <trkpt lat="45.34692" lon="5.87321">
        <ele>2056.1999511719</ele>
        <time>2012-01-11T11:43:27.000Z</time>
      </trkpt>
      <trkpt lat="45.34692" lon="5.87322">
        <ele>2057.1999511719</ele>
        <time>2012-01-11T11:43:35.000Z</time>
      </trkpt>
      <trkpt lat="45.34693" lon="5.87322">
        <ele>2057.1999511719</ele>
        <time>2012-01-11T11:43:45.000Z</time>
      </trkpt>
      <trkpt lat="45.34693" lon="5.87322">
        <ele>2056.1999511719</ele>
        <time>2012-01-11T11:44:00.000Z</time>
      </trkpt>
      <trkpt lat="45.34694" lon="5.87322">
        <ele>2056.8000488281</ele>
        <time>2012-01-11T11:44:07.000Z</time>
      </trkpt>
      <trkpt lat="45.34694" lon="5.87321">
        <ele>2056.1999511719</ele>
        <time>2012-01-11T11:44:17.000Z</time>
      </trkpt>
      <trkpt lat="45.34693" lon="5.87321">
        <ele>2055.3999023438</ele>
        <time>2012-01-11T11:44:31.000Z</time>
      </trkpt>
      <trkpt lat="45.34694" lon="5.87321">
        <ele>2055.3999023438</ele>
        <time>2012-01-11T11:44:46.000Z</time>
      </trkpt>
      <trkpt lat="45.34694" lon="5.87321">
        <ele>2056.1999511719</ele>
        <time>2012-01-11T11:45:00.000Z</time>
      </trkpt>
      <trkpt lat="45.34693" lon="5.87322">
        <ele>2056.8000488281</ele>
        <time>2012-01-11T11:45:14.000Z</time>
      </trkpt>
      <trkpt lat="45.34693" lon="5.87321">
        <ele>2056.8000488281</ele>
        <time>2012-01-11T11:45:28.000Z</time>
      </trkpt>
      <trkpt lat="45.34693" lon="5.87322">
        <ele>2056.8000488281</ele>
        <time>2012-01-11T11:45:36.000Z</time>
      </trkpt>
      <trkpt lat="45.34693" lon="5.87321">
        <ele>2056.8000488281</ele>
        <time>2012-01-11T11:45:44.000Z</time>
      </trkpt>
      <trkpt lat="45.34694" lon="5.87321">
        <ele>2057.8000488281</ele>
        <time>2012-01-11T11:46:01.000Z</time>
      </trkpt>
      <trkpt lat="45.34694" lon="5.87321">
        <ele>2056.8000488281</ele>
        <time>2012-01-11T11:46:18.000Z</time>
      </trkpt>
      <trkpt lat="45.34694" lon="5.87321">
        <ele>2054.8000488281</ele>
        <time>2012-01-11T11:46:34.000Z</time>
      </trkpt>
      <trkpt lat="45.34694" lon="5.8732">
        <ele>2053</ele>
        <time>2012-01-11T11:46:58.000Z</time>
      </trkpt>
      <trkpt lat="45.34694" lon="5.87321">
        <ele>2052.3999023438</ele>
        <time>2012-01-11T11:47:06.000Z</time>
      </trkpt>
      <trkpt lat="45.34694" lon="5.87321">
        <ele>2053.8000488281</ele>
        <time>2012-01-11T11:47:21.000Z</time>
      </trkpt>
      <trkpt lat="45.34693" lon="5.87322">
        <ele>2053</ele>
        <time>2012-01-11T11:47:51.000Z</time>
      </trkpt>
      <trkpt lat="45.34693" lon="5.87321">
        <ele>2054.8000488281</ele>
        <time>2012-01-11T11:47:59.000Z</time>
      </trkpt>
      <trkpt lat="45.34694" lon="5.8732">
        <ele>2055.3999023438</ele>
        <time>2012-01-11T11:48:10.000Z</time>
      </trkpt>
      <trkpt lat="45.34693" lon="5.87321">
        <ele>2055.3999023438</ele>
        <time>2012-01-11T11:48:15.000Z</time>
      </trkpt>
      <trkpt lat="45.34693" lon="5.87321">
        <ele>2055.8000488281</ele>
        <time>2012-01-11T11:48:25.000Z</time>
      </trkpt>
      <trkpt lat="45.34693" lon="5.87321">
        <ele>2055.8000488281</ele>
        <time>2012-01-11T11:48:49.000Z</time>
      </trkpt>
      <trkpt lat="45.34693" lon="5.87321">
        <ele>2055.8000488281</ele>
        <time>2012-01-11T11:49:03.000Z</time>
      </trkpt>
      <trkpt lat="45.34693" lon="5.87322">
        <ele>2055.3999023438</ele>
        <time>2012-01-11T11:49:10.000Z</time>
      </trkpt>
      <trkpt lat="45.34693" lon="5.87322">
        <ele>2055.8000488281</ele>
        <time>2012-01-11T11:49:21.000Z</time>
      </trkpt>
      <trkpt lat="45.34693" lon="5.87322">
        <ele>2055.8000488281</ele>
        <time>2012-01-11T11:49:30.000Z</time>
      </trkpt>
      <trkpt lat="45.34693" lon="5.87322">
        <ele>2055.8000488281</ele>
        <time>2012-01-11T11:49:43.000Z</time>
      </trkpt>
      <trkpt lat="45.34694" lon="5.87321">
        <ele>2056.8000488281</ele>
        <time>2012-01-11T11:49:50.000Z</time>
      </trkpt>
      <trkpt lat="45.34693" lon="5.87322">
        <ele>2056.1999511719</ele>
        <time>2012-01-11T11:49:55.000Z</time>
      </trkpt>
      <trkpt lat="45.34693" lon="5.87321">
        <ele>2056.8000488281</ele>
        <time>2012-01-11T11:50:04.000Z</time>
      </trkpt>
      <trkpt lat="45.34693" lon="5.87321">
        <ele>2056.8000488281</ele>
        <time>2012-01-11T11:50:12.000Z</time>
      </trkpt>
      <trkpt lat="45.34692" lon="5.87322">
        <ele>2055.8000488281</ele>
        <time>2012-01-11T11:50:24.000Z</time>
      </trkpt>
      <trkpt lat="45.34692" lon="5.87322">
        <ele>2055.8000488281</ele>
        <time>2012-01-11T11:50:47.000Z</time>
      </trkpt>
      <trkpt lat="45.34692" lon="5.87322">
        <ele>2055.8000488281</ele>
        <time>2012-01-11T11:50:59.000Z</time>
      </trkpt>
      <trkpt lat="45.34692" lon="5.87321">
        <ele>2056.1999511719</ele>
        <time>2012-01-11T11:51:24.000Z</time>
      </trkpt>
      <trkpt lat="45.34692" lon="5.87321">
        <ele>2055.3999023438</ele>
        <time>2012-01-11T11:51:53.000Z</time>
      </trkpt>
      <trkpt lat="45.34692" lon="5.87321">
        <ele>2054.8000488281</ele>
        <time>2012-01-11T11:52:25.000Z</time>
      </trkpt>
      <trkpt lat="45.34692" lon="5.87323">
        <ele>2054.3999023438</ele>
        <time>2012-01-11T11:53:01.000Z</time>
      </trkpt>
      <trkpt lat="45.34692" lon="5.87323">
        <ele>2054.3999023438</ele>
        <time>2012-01-11T11:53:08.000Z</time>
      </trkpt>
      <trkpt lat="45.34693" lon="5.87323">
        <ele>2055.3999023438</ele>
        <time>2012-01-11T11:53:24.000Z</time>
      </trkpt>
      <trkpt lat="45.34694" lon="5.87324">
        <ele>2055.3999023438</ele>
        <time>2012-01-11T11:53:51.000Z</time>
      </trkpt>
      <trkpt lat="45.34694" lon="5.87324">
        <ele>2055.3999023438</ele>
        <time>2012-01-11T11:54:09.000Z</time>
      </trkpt>
      <trkpt lat="45.34695" lon="5.87323">
        <ele>2055.8000488281</ele>
        <time>2012-01-11T11:54:22.000Z</time>
      </trkpt>
      <trkpt lat="45.34695" lon="5.87323">
        <ele>2055.3999023438</ele>
        <time>2012-01-11T11:54:30.000Z</time>
      </trkpt>
      <trkpt lat="45.34695" lon="5.87324">
        <ele>2055.3999023438</ele>
        <time>2012-01-11T11:54:59.000Z</time>
      </trkpt>
      <trkpt lat="45.34695" lon="5.87324">
        <ele>2054.8000488281</ele>
        <time>2012-01-11T11:55:11.000Z</time>
      </trkpt>
      <trkpt lat="45.34695" lon="5.87324">
        <ele>2054.3999023438</ele>
        <time>2012-01-11T11:55:27.000Z</time>
      </trkpt>
      <trkpt lat="45.34695" lon="5.87324">
        <ele>2055.8000488281</ele>
        <time>2012-01-11T11:55:59.000Z</time>
      </trkpt>
      <trkpt lat="45.34696" lon="5.87324">
        <ele>2056.8000488281</ele>
        <time>2012-01-11T11:56:16.000Z</time>
      </trkpt>
      <trkpt lat="45.34696" lon="5.87325">
        <ele>2057.1999511719</ele>
        <time>2012-01-11T11:56:29.000Z</time>
      </trkpt>
      <trkpt lat="45.34696" lon="5.87325">
        <ele>2057.1999511719</ele>
        <time>2012-01-11T11:56:43.000Z</time>
      </trkpt>
      <trkpt lat="45.34695" lon="5.87324">
        <ele>2057.1999511719</ele>
        <time>2012-01-11T11:57:08.000Z</time>
      </trkpt>
      <trkpt lat="45.34695" lon="5.87323">
        <ele>2057.1999511719</ele>
        <time>2012-01-11T11:57:34.000Z</time>
      </trkpt>
      <trkpt lat="45.34695" lon="5.87324">
        <ele>2057.8000488281</ele>
        <time>2012-01-11T11:58:05.000Z</time>
      </trkpt>
      <trkpt lat="45.34695" lon="5.87323">
        <ele>2057.8000488281</ele>
        <time>2012-01-11T11:58:18.000Z</time>
      </trkpt>
      <trkpt lat="45.34695" lon="5.87323">
        <ele>2058.8000488281</ele>
        <time>2012-01-11T11:58:40.000Z</time>
      </trkpt>
      <trkpt lat="45.34695" lon="5.87323">
        <ele>2058.1999511719</ele>
        <time>2012-01-11T11:59:00.000Z</time>
      </trkpt>
      <trkpt lat="45.34695" lon="5.87323">
        <ele>2058.1999511719</ele>
        <time>2012-01-11T11:59:14.000Z</time>
      </trkpt>
      <trkpt lat="45.34695" lon="5.87323">
        <ele>2058.8000488281</ele>
        <time>2012-01-11T11:59:26.000Z</time>
      </trkpt>
      <trkpt lat="45.34695" lon="5.87323">
        <ele>2058.8000488281</ele>
        <time>2012-01-11T11:59:31.000Z</time>
      </trkpt>
      <trkpt lat="45.34694" lon="5.87323">
        <ele>2058.1999511719</ele>
        <time>2012-01-11T11:59:37.000Z</time>
      </trkpt>
      <trkpt lat="45.34694" lon="5.87322">
        <ele>2057.1999511719</ele>
        <time>2012-01-11T11:59:48.000Z</time>
      </trkpt>
      <trkpt lat="45.34694" lon="5.87321">
        <ele>2056.1999511719</ele>
        <time>2012-01-11T11:59:59.000Z</time>
      </trkpt>
      <trkpt lat="45.34694" lon="5.87321">
        <ele>2054.8000488281</ele>
        <time>2012-01-11T12:00:29.000Z</time>
      </trkpt>
      <trkpt lat="45.34694" lon="5.87322">
        <ele>2053.8000488281</ele>
        <time>2012-01-11T12:00:42.000Z</time>
      </trkpt>
      <trkpt lat="45.34693" lon="5.87322">
        <ele>2053.3999023438</ele>
        <time>2012-01-11T12:00:51.000Z</time>
      </trkpt>
      <trkpt lat="45.34693" lon="5.87322">
        <ele>2053.3999023438</ele>
        <time>2012-01-11T12:01:01.000Z</time>
      </trkpt>
      <trkpt lat="45.34694" lon="5.87323">
        <ele>2053.3999023438</ele>
        <time>2012-01-11T12:01:18.000Z</time>
      </trkpt>
      <trkpt lat="45.34693" lon="5.87324">
        <ele>2054.3999023438</ele>
        <time>2012-01-11T12:01:27.000Z</time>
      </trkpt>
      <trkpt lat="45.34693" lon="5.87324">
        <ele>2055.3999023438</ele>
        <time>2012-01-11T12:01:35.000Z</time>
      </trkpt>
      <trkpt lat="45.34693" lon="5.87324">
        <ele>2056.8000488281</ele>
        <time>2012-01-11T12:01:50.000Z</time>
      </trkpt>
      <trkpt lat="45.34692" lon="5.87324">
        <ele>2057.8000488281</ele>
        <time>2012-01-11T12:02:17.000Z</time>
      </trkpt>
      <trkpt lat="45.34693" lon="5.87324">
        <ele>2056.8000488281</ele>
        <time>2012-01-11T12:02:28.000Z</time>
      </trkpt>
      <trkpt lat="45.34692" lon="5.87324">
        <ele>2057.8000488281</ele>
        <time>2012-01-11T12:02:37.000Z</time>
      </trkpt>
      <trkpt lat="45.34692" lon="5.87324">
        <ele>2057.8000488281</ele>
        <time>2012-01-11T12:02:49.000Z</time>
      </trkpt>
      <trkpt lat="45.34692" lon="5.87323">
        <ele>2058.1999511719</ele>
        <time>2012-01-11T12:03:10.000Z</time>
      </trkpt>
      <trkpt lat="45.34693" lon="5.87322">
        <ele>2056.8000488281</ele>
        <time>2012-01-11T12:03:19.000Z</time>
      </trkpt>
      <trkpt lat="45.34693" lon="5.87322">
        <ele>2055.8000488281</ele>
        <time>2012-01-11T12:03:24.000Z</time>
      </trkpt>
      <trkpt lat="45.34693" lon="5.87322">
        <ele>2055.8000488281</ele>
        <time>2012-01-11T12:03:24.000Z</time>
      </trkpt>
      <trkpt lat="45.34693" lon="5.87322">
        <ele>2055.8000488281</ele>
        <time>2012-01-11T12:03:25.000Z</time>
      </trkpt>
      <trkpt lat="45.34693" lon="5.87322">
        <ele>2055.8000488281</ele>
        <time>2012-01-11T12:03:25.000Z</time>
      </trkpt>
      <trkpt lat="45.34693" lon="5.87322">
        <ele>2054.8000488281</ele>
        <time>2012-01-11T12:03:33.000Z</time>
      </trkpt>
      <trkpt lat="45.34695" lon="5.87323">
        <ele>2053.3999023438</ele>
        <time>2012-01-11T12:04:46.000Z</time>
      </trkpt>
      <trkpt lat="45.34695" lon="5.87323">
        <ele>2053</ele>
        <time>2012-01-11T12:04:47.000Z</time>
      </trkpt>
      <trkpt lat="45.34695" lon="5.87323">
        <ele>2052.3999023438</ele>
        <time>2012-01-11T12:05:06.000Z</time>
      </trkpt>
      <trkpt lat="45.34694" lon="5.87322">
        <ele>2052</ele>
        <time>2012-01-11T12:05:16.000Z</time>
      </trkpt>
      <trkpt lat="45.34694" lon="5.87322">
        <ele>2052</ele>
        <time>2012-01-11T12:05:19.000Z</time>
      </trkpt>
      <trkpt lat="45.34694" lon="5.87322">
        <ele>2052</ele>
        <time>2012-01-11T12:05:24.000Z</time>
      </trkpt>
      <trkpt lat="45.34694" lon="5.87322">
        <ele>2052</ele>
        <time>2012-01-11T12:05:30.000Z</time>
      </trkpt>
      <trkpt lat="45.34694" lon="5.87322">
        <ele>2051</ele>
        <time>2012-01-11T12:05:50.000Z</time>
      </trkpt>
      <trkpt lat="45.34695" lon="5.87322">
        <ele>2050</ele>
        <time>2012-01-11T12:05:56.000Z</time>
      </trkpt>
      <trkpt lat="45.34695" lon="5.87321">
        <ele>2050</ele>
        <time>2012-01-11T12:06:02.000Z</time>
      </trkpt>
      <trkpt lat="45.34694" lon="5.87322">
        <ele>2050.6000976562</ele>
        <time>2012-01-11T12:06:11.000Z</time>
      </trkpt>
      <trkpt lat="45.34693" lon="5.87321">
        <ele>2052.3999023438</ele>
        <time>2012-01-11T12:06:30.000Z</time>
      </trkpt>
      <trkpt lat="45.34693" lon="5.87322">
        <ele>2053.3999023438</ele>
        <time>2012-01-11T12:06:51.000Z</time>
      </trkpt>
      <trkpt lat="45.34693" lon="5.87321">
        <ele>2053.3999023438</ele>
        <time>2012-01-11T12:06:58.000Z</time>
      </trkpt>
      <trkpt lat="45.34692" lon="5.87321">
        <ele>2053.8000488281</ele>
        <time>2012-01-11T12:07:05.000Z</time>
      </trkpt>
      <trkpt lat="45.34692" lon="5.87321">
        <ele>2053.3999023438</ele>
        <time>2012-01-11T12:07:12.000Z</time>
      </trkpt>
      <trkpt lat="45.34693" lon="5.8732">
        <ele>2052.3999023438</ele>
        <time>2012-01-11T12:07:28.000Z</time>
      </trkpt>
      <trkpt lat="45.34693" lon="5.8732">
        <ele>2052</ele>
        <time>2012-01-11T12:07:41.000Z</time>
      </trkpt>
      <trkpt lat="45.34693" lon="5.87322">
        <ele>2052.3999023438</ele>
        <time>2012-01-11T12:08:41.000Z</time>
      </trkpt>
      <trkpt lat="45.34677" lon="5.87324">
        <ele>2049</ele>
        <time>2012-01-11T12:08:47.000Z</time>
      </trkpt>
      <trkpt lat="45.34675" lon="5.87324">
        <ele>2048.6000976562</ele>
        <time>2012-01-11T12:08:48.000Z</time>
      </trkpt>
      <trkpt lat="45.34674" lon="5.87324">
        <ele>2047.5999755859</ele>
        <time>2012-01-11T12:08:54.000Z</time>
      </trkpt>
      <trkpt lat="45.34673" lon="5.87326">
        <ele>2047.5999755859</ele>
        <time>2012-01-11T12:09:00.000Z</time>
      </trkpt>
      <trkpt lat="45.34669" lon="5.87338">
        <ele>2044.8000488281</ele>
        <time>2012-01-11T12:09:03.000Z</time>
      </trkpt>
      <trkpt lat="45.34663" lon="5.87349">
        <ele>2041</ele>
        <time>2012-01-11T12:09:05.000Z</time>
      </trkpt>
      <trkpt lat="45.34652" lon="5.87368">
        <ele>2028.4000244141</ele>
        <time>2012-01-11T12:09:10.000Z</time>
      </trkpt>
      <trkpt lat="45.34642" lon="5.87374">
        <ele>2019.8000488281</ele>
        <time>2012-01-11T12:09:13.000Z</time>
      </trkpt>
      <trkpt lat="45.34631" lon="5.87376">
        <ele>2016</ele>
        <time>2012-01-11T12:09:15.000Z</time>
      </trkpt>
      <trkpt lat="45.34626" lon="5.87376">
        <ele>2012.5999755859</ele>
        <time>2012-01-11T12:09:18.000Z</time>
      </trkpt>
      <trkpt lat="45.34628" lon="5.87374">
        <ele>2010.1999511719</ele>
        <time>2012-01-11T12:09:27.000Z</time>
      </trkpt>
      <trkpt lat="45.3463" lon="5.87372">
        <ele>2009.5999755859</ele>
        <time>2012-01-11T12:09:37.000Z</time>
      </trkpt>
      <trkpt lat="45.34629" lon="5.87373">
        <ele>2009.1999511719</ele>
        <time>2012-01-11T12:09:43.000Z</time>
      </trkpt>
      <trkpt lat="45.34619" lon="5.8737">
        <ele>2011.5999755859</ele>
        <time>2012-01-11T12:10:25.000Z</time>
      </trkpt>
      <trkpt lat="45.346" lon="5.87382">
        <ele>2007.1999511719</ele>
        <time>2012-01-11T12:10:29.000Z</time>
      </trkpt>
      <trkpt lat="45.34591" lon="5.8739">
        <ele>2007.1999511719</ele>
        <time>2012-01-11T12:10:32.000Z</time>
      </trkpt>
      <trkpt lat="45.34592" lon="5.87391">
        <ele>2006.8000488281</ele>
        <time>2012-01-11T12:10:39.000Z</time>
      </trkpt>
      <trkpt lat="45.34595" lon="5.87391">
        <ele>2004.4000244141</ele>
        <time>2012-01-11T12:11:03.000Z</time>
      </trkpt>
      <trkpt lat="45.34595" lon="5.87392">
        <ele>2004.4000244141</ele>
        <time>2012-01-11T12:11:10.000Z</time>
      </trkpt>
      <trkpt lat="45.34595" lon="5.87393">
        <ele>2004.8000488281</ele>
        <time>2012-01-11T12:11:14.000Z</time>
      </trkpt>
      <trkpt lat="45.34594" lon="5.87417">
        <ele>2002.4000244141</ele>
        <time>2012-01-11T12:11:18.000Z</time>
      </trkpt>
      <trkpt lat="45.34589" lon="5.87422">
        <ele>1997.1999511719</ele>
        <time>2012-01-11T12:11:21.000Z</time>
      </trkpt>
      <trkpt lat="45.34586" lon="5.87417">
        <ele>1995.8000488281</ele>
        <time>2012-01-11T12:11:23.000Z</time>
      </trkpt>
      <trkpt lat="45.34584" lon="5.87416">
        <ele>1993.4000244141</ele>
        <time>2012-01-11T12:11:37.000Z</time>
      </trkpt>
      <trkpt lat="45.34582" lon="5.8744">
        <ele>1989</ele>
        <time>2012-01-11T12:11:41.000Z</time>
      </trkpt>
      <trkpt lat="45.34572" lon="5.87441">
        <ele>1986.1999511719</ele>
        <time>2012-01-11T12:11:43.000Z</time>
      </trkpt>
      <trkpt lat="45.3457" lon="5.87452">
        <ele>1980.8000488281</ele>
        <time>2012-01-11T12:11:45.000Z</time>
      </trkpt>
      <trkpt lat="45.34562" lon="5.87452">
        <ele>1976</ele>
        <time>2012-01-11T12:11:47.000Z</time>
      </trkpt>
      <trkpt lat="45.34555" lon="5.87461">
        <ele>1970.1999511719</ele>
        <time>2012-01-11T12:11:50.000Z</time>
      </trkpt>
      <trkpt lat="45.34559" lon="5.8747">
        <ele>1967.8000488281</ele>
        <time>2012-01-11T12:11:53.000Z</time>
      </trkpt>
      <trkpt lat="45.34561" lon="5.87466">
        <ele>1966</ele>
        <time>2012-01-11T12:11:59.000Z</time>
      </trkpt>
      <trkpt lat="45.34562" lon="5.87467">
        <ele>1965.4000244141</ele>
        <time>2012-01-11T12:12:11.000Z</time>
      </trkpt>
      <trkpt lat="45.34562" lon="5.87467">
        <ele>1965.4000244141</ele>
        <time>2012-01-11T12:12:21.000Z</time>
      </trkpt>
      <trkpt lat="45.3456" lon="5.87468">
        <ele>1968.8000488281</ele>
        <time>2012-01-11T12:12:39.000Z</time>
      </trkpt>
      <trkpt lat="45.3456" lon="5.8747">
        <ele>1968.4000244141</ele>
        <time>2012-01-11T12:12:42.000Z</time>
      </trkpt>
      <trkpt lat="45.34565" lon="5.87483">
        <ele>1963</ele>
        <time>2012-01-11T12:12:46.000Z</time>
      </trkpt>
      <trkpt lat="45.34561" lon="5.87509">
        <ele>1950.5999755859</ele>
        <time>2012-01-11T12:12:50.000Z</time>
      </trkpt>
      <trkpt lat="45.3456" lon="5.87522">
        <ele>1943.4000244141</ele>
        <time>2012-01-11T12:12:52.000Z</time>
      </trkpt>
      <trkpt lat="45.34571" lon="5.8753">
        <ele>1936.1999511719</ele>
        <time>2012-01-11T12:12:54.000Z</time>
      </trkpt>
      <trkpt lat="45.34567" lon="5.87539">
        <ele>1929.8000488281</ele>
        <time>2012-01-11T12:12:56.000Z</time>
      </trkpt>
      <trkpt lat="45.34571" lon="5.87548">
        <ele>1923.5999755859</ele>
        <time>2012-01-11T12:12:58.000Z</time>
      </trkpt>
      <trkpt lat="45.34571" lon="5.87555">
        <ele>1917.4000244141</ele>
        <time>2012-01-11T12:13:00.000Z</time>
      </trkpt>
      <trkpt lat="45.34576" lon="5.87565">
        <ele>1907.8000488281</ele>
        <time>2012-01-11T12:13:03.000Z</time>
      </trkpt>
      <trkpt lat="45.34569" lon="5.87572">
        <ele>1902.4000244141</ele>
        <time>2012-01-11T12:13:06.000Z</time>
      </trkpt>
      <trkpt lat="45.34571" lon="5.87568">
        <ele>1899.5999755859</ele>
        <time>2012-01-11T12:13:09.000Z</time>
      </trkpt>
      <trkpt lat="45.34572" lon="5.87566">
        <ele>1897.1999511719</ele>
        <time>2012-01-11T12:13:17.000Z</time>
      </trkpt>
      <trkpt lat="45.34582" lon="5.87579">
        <ele>1895.1999511719</ele>
        <time>2012-01-11T12:13:20.000Z</time>
      </trkpt>
      <trkpt lat="45.34592" lon="5.87585">
        <ele>1893.8000488281</ele>
        <time>2012-01-11T12:13:22.000Z</time>
      </trkpt>
      <trkpt lat="45.34602" lon="5.87591">
        <ele>1891</ele>
        <time>2012-01-11T12:13:24.000Z</time>
      </trkpt>
      <trkpt lat="45.34606" lon="5.87617">
        <ele>1883.8000488281</ele>
        <time>2012-01-11T12:13:27.000Z</time>
      </trkpt>
      <trkpt lat="45.34611" lon="5.87635">
        <ele>1877.4000244141</ele>
        <time>2012-01-11T12:13:29.000Z</time>
      </trkpt>
      <trkpt lat="45.34601" lon="5.87657">
        <ele>1860.5999755859</ele>
        <time>2012-01-11T12:13:32.000Z</time>
      </trkpt>
      <trkpt lat="45.3461" lon="5.87672">
        <ele>1851.5999755859</ele>
        <time>2012-01-11T12:13:34.000Z</time>
      </trkpt>
      <trkpt lat="45.34602" lon="5.87683">
        <ele>1842</ele>
        <time>2012-01-11T12:13:36.000Z</time>
      </trkpt>
      <trkpt lat="45.34594" lon="5.87693">
        <ele>1830.4000244141</ele>
        <time>2012-01-11T12:13:39.000Z</time>
      </trkpt>
      <trkpt lat="45.34596" lon="5.8769">
        <ele>1825.1999511719</ele>
        <time>2012-01-11T12:13:41.000Z</time>
      </trkpt>
      <trkpt lat="45.34596" lon="5.87693">
        <ele>1827.5999755859</ele>
        <time>2012-01-11T12:13:47.000Z</time>
      </trkpt>
      <trkpt lat="45.34596" lon="5.87697">
        <ele>1829</ele>
        <time>2012-01-11T12:15:19.000Z</time>
      </trkpt>
      <trkpt lat="45.34585" lon="5.87717">
        <ele>1821.8000488281</ele>
        <time>2012-01-11T12:15:22.000Z</time>
      </trkpt>
      <trkpt lat="45.34571" lon="5.87736">
        <ele>1813.5999755859</ele>
        <time>2012-01-11T12:15:24.000Z</time>
      </trkpt>
      <trkpt lat="45.34566" lon="5.87766">
        <ele>1805.8000488281</ele>
        <time>2012-01-11T12:15:26.000Z</time>
      </trkpt>
      <trkpt lat="45.34566" lon="5.87792">
        <ele>1799.1999511719</ele>
        <time>2012-01-11T12:15:28.000Z</time>
      </trkpt>
      <trkpt lat="45.34561" lon="5.87819">
        <ele>1792</ele>
        <time>2012-01-11T12:15:31.000Z</time>
      </trkpt>
      <trkpt lat="45.34548" lon="5.87851">
        <ele>1783.1999511719</ele>
        <time>2012-01-11T12:15:34.000Z</time>
      </trkpt>
      <trkpt lat="45.34539" lon="5.87883">
        <ele>1777</ele>
        <time>2012-01-11T12:15:37.000Z</time>
      </trkpt>
      <trkpt lat="45.3454" lon="5.8789">
        <ele>1775.5999755859</ele>
        <time>2012-01-11T12:15:39.000Z</time>
      </trkpt>
      <trkpt lat="45.34539" lon="5.87887">
        <ele>1776</ele>
        <time>2012-01-11T12:15:41.000Z</time>
      </trkpt>
      <trkpt lat="45.34538" lon="5.87884">
        <ele>1780</ele>
        <time>2012-01-11T12:15:53.000Z</time>
      </trkpt>
      <trkpt lat="45.34537" lon="5.87887">
        <ele>1780</ele>
        <time>2012-01-11T12:15:59.000Z</time>
      </trkpt>
      <trkpt lat="45.34537" lon="5.87889">
        <ele>1780.4000244141</ele>
        <time>2012-01-11T12:16:06.000Z</time>
      </trkpt>
      <trkpt lat="45.34537" lon="5.87891">
        <ele>1780.8000488281</ele>
        <time>2012-01-11T12:16:11.000Z</time>
      </trkpt>
      <trkpt lat="45.34535" lon="5.87893">
        <ele>1781.4000244141</ele>
        <time>2012-01-11T12:16:16.000Z</time>
      </trkpt>
      <trkpt lat="45.34535" lon="5.87895">
        <ele>1782.4000244141</ele>
        <time>2012-01-11T12:16:21.000Z</time>
      </trkpt>
      <trkpt lat="45.34537" lon="5.87897">
        <ele>1783.8000488281</ele>
        <time>2012-01-11T12:16:25.000Z</time>
      </trkpt>
      <trkpt lat="45.34537" lon="5.87897">
        <ele>1783.8000488281</ele>
        <time>2012-01-11T12:16:36.000Z</time>
      </trkpt>
      <trkpt lat="45.34538" lon="5.87899">
        <ele>1784.1999511719</ele>
        <time>2012-01-11T12:16:41.000Z</time>
      </trkpt>
      <trkpt lat="45.34539" lon="5.87901">
        <ele>1784.1999511719</ele>
        <time>2012-01-11T12:16:46.000Z</time>
      </trkpt>
      <trkpt lat="45.34542" lon="5.87903">
        <ele>1784.8000488281</ele>
        <time>2012-01-11T12:16:55.000Z</time>
      </trkpt>
      <trkpt lat="45.34544" lon="5.87908">
        <ele>1784.1999511719</ele>
        <time>2012-01-11T12:16:59.000Z</time>
      </trkpt>
      <trkpt lat="45.34545" lon="5.8791">
        <ele>1783.8000488281</ele>
        <time>2012-01-11T12:17:00.000Z</time>
      </trkpt>
      <trkpt lat="45.34546" lon="5.87913">
        <ele>1784.1999511719</ele>
        <time>2012-01-11T12:17:02.000Z</time>
      </trkpt>
      <trkpt lat="45.35621" lon="5.89959">
        <ele>1582.8000488281</ele>
        <time>2012-01-11T14:24:24.000Z</time>
      </trkpt>
      <trkpt lat="45.35622" lon="5.89959">
        <ele>1581.8000488281</ele>
        <time>2012-01-11T14:24:44.000Z</time>
      </trkpt>
      <trkpt lat="45.3562" lon="5.89963">
        <ele>1585.8000488281</ele>
        <time>2012-01-11T14:24:52.000Z</time>
      </trkpt>
      <trkpt lat="45.35621" lon="5.89961">
        <ele>1584.8000488281</ele>
        <time>2012-01-11T14:24:57.000Z</time>
      </trkpt>
      <trkpt lat="45.35621" lon="5.8996">
        <ele>1583.4000244141</ele>
        <time>2012-01-11T14:25:04.000Z</time>
      </trkpt>
      <trkpt lat="45.3562" lon="5.8996">
        <ele>1582.4000244141</ele>
        <time>2012-01-11T14:25:15.000Z</time>
      </trkpt>
      <trkpt lat="45.35621" lon="5.89959">
        <ele>1580.4000244141</ele>
        <time>2012-01-11T14:25:24.000Z</time>
      </trkpt>
      <trkpt lat="45.3562" lon="5.89961">
        <ele>1581</ele>
        <time>2012-01-11T14:25:31.000Z</time>
      </trkpt>
      <trkpt lat="45.3562" lon="5.89961">
        <ele>1581</ele>
        <time>2012-01-11T14:25:37.000Z</time>
      </trkpt>
      <trkpt lat="45.35618" lon="5.89962">
        <ele>1584.1999511719</ele>
        <time>2012-01-11T14:25:54.000Z</time>
      </trkpt>
      <trkpt lat="45.35619" lon="5.8996">
        <ele>1582.8000488281</ele>
        <time>2012-01-11T14:26:03.000Z</time>
      </trkpt>
      <trkpt lat="45.3562" lon="5.8996">
        <ele>1581.4000244141</ele>
        <time>2012-01-11T14:26:13.000Z</time>
      </trkpt>
      <trkpt lat="45.35619" lon="5.8996">
        <ele>1581.4000244141</ele>
        <time>2012-01-11T14:26:20.000Z</time>
      </trkpt>
      <trkpt lat="45.3562" lon="5.8996">
        <ele>1580</ele>
        <time>2012-01-11T14:26:28.000Z</time>
      </trkpt>
      <trkpt lat="45.35621" lon="5.89961">
        <ele>1580</ele>
        <time>2012-01-11T14:26:35.000Z</time>
      </trkpt>
      <trkpt lat="45.3562" lon="5.8996">
        <ele>1581.4000244141</ele>
        <time>2012-01-11T14:26:42.000Z</time>
      </trkpt>
      <trkpt lat="45.35616" lon="5.89961">
        <ele>1587.5999755859</ele>
        <time>2012-01-11T14:26:53.000Z</time>
      </trkpt>
      <trkpt lat="45.35615" lon="5.89959">
        <ele>1590</ele>
        <time>2012-01-11T14:27:09.000Z</time>
      </trkpt>
      <trkpt lat="45.35616" lon="5.89958">
        <ele>1590.5999755859</ele>
        <time>2012-01-11T14:27:18.000Z</time>
      </trkpt>
      <trkpt lat="45.35616" lon="5.89959">
        <ele>1589</ele>
        <time>2012-01-11T14:27:27.000Z</time>
      </trkpt>
      <trkpt lat="45.35615" lon="5.89959">
        <ele>1583.8000488281</ele>
        <time>2012-01-11T14:27:45.000Z</time>
      </trkpt>
      <trkpt lat="45.35617" lon="5.89957">
        <ele>1583.4000244141</ele>
        <time>2012-01-11T14:27:58.000Z</time>
      </trkpt>
      <trkpt lat="45.35617" lon="5.89957">
        <ele>1583.4000244141</ele>
        <time>2012-01-11T14:28:05.000Z</time>
      </trkpt>
      <trkpt lat="45.35617" lon="5.89957">
        <ele>1581.4000244141</ele>
        <time>2012-01-11T14:28:22.000Z</time>
      </trkpt>
      <trkpt lat="45.35616" lon="5.89962">
        <ele>1584.8000488281</ele>
        <time>2012-01-11T14:28:40.000Z</time>
      </trkpt>
      <trkpt lat="45.35611" lon="5.89976">
        <ele>1582.8000488281</ele>
        <time>2012-01-11T14:28:44.000Z</time>
      </trkpt>
      <trkpt lat="45.3561" lon="5.89994">
        <ele>1579.4000244141</ele>
        <time>2012-01-11T14:28:48.000Z</time>
      </trkpt>
      <trkpt lat="45.35609" lon="5.90006">
        <ele>1579</ele>
        <time>2012-01-11T14:28:50.000Z</time>
      </trkpt>
      <trkpt lat="45.35618" lon="5.90036">
        <ele>1573.1999511719</ele>
        <time>2012-01-11T14:28:55.000Z</time>
      </trkpt>
      <trkpt lat="45.35623" lon="5.90054">
        <ele>1569.4000244141</ele>
        <time>2012-01-11T14:28:58.000Z</time>
      </trkpt>
      <trkpt lat="45.35643" lon="5.9008">
        <ele>1560.8000488281</ele>
        <time>2012-01-11T14:29:03.000Z</time>
      </trkpt>
      <trkpt lat="45.35651" lon="5.90091">
        <ele>1556.8000488281</ele>
        <time>2012-01-11T14:29:05.000Z</time>
      </trkpt>
      <trkpt lat="45.35661" lon="5.90112">
        <ele>1549.5999755859</ele>
        <time>2012-01-11T14:29:09.000Z</time>
      </trkpt>
      <trkpt lat="45.35662" lon="5.9011">
        <ele>1548.8000488281</ele>
        <time>2012-01-11T14:29:12.000Z</time>
      </trkpt>
      <trkpt lat="45.35667" lon="5.90128">
        <ele>1542</ele>
        <time>2012-01-11T14:29:17.000Z</time>
      </trkpt>
      <trkpt lat="45.35667" lon="5.90133">
        <ele>1539.1999511719</ele>
        <time>2012-01-11T14:29:20.000Z</time>
      </trkpt>
      <trkpt lat="45.35667" lon="5.90132">
        <ele>1538.5999755859</ele>
        <time>2012-01-11T14:29:21.000Z</time>
      </trkpt>
      <trkpt lat="45.35682" lon="5.9014">
        <ele>1532.8000488281</ele>
        <time>2012-01-11T14:29:27.000Z</time>
      </trkpt>
      <trkpt lat="45.35679" lon="5.90146">
        <ele>1532.8000488281</ele>
        <time>2012-01-11T14:29:30.000Z</time>
      </trkpt>
      <trkpt lat="45.35668" lon="5.90147">
        <ele>1528</ele>
        <time>2012-01-11T14:29:35.000Z</time>
      </trkpt>
      <trkpt lat="45.35664" lon="5.90147">
        <ele>1526.5999755859</ele>
        <time>2012-01-11T14:29:36.000Z</time>
      </trkpt>
      <trkpt lat="45.35652" lon="5.90148">
        <ele>1521.4000244141</ele>
        <time>2012-01-11T14:29:40.000Z</time>
      </trkpt>
      <trkpt lat="45.35648" lon="5.90151">
        <ele>1519.8000488281</ele>
        <time>2012-01-11T14:29:41.000Z</time>
      </trkpt>
      <trkpt lat="45.35625" lon="5.90156">
        <ele>1514.1999511719</ele>
        <time>2012-01-11T14:29:46.000Z</time>
      </trkpt>
      <trkpt lat="45.35623" lon="5.90164">
        <ele>1508.4000244141</ele>
        <time>2012-01-11T14:29:50.000Z</time>
      </trkpt>
      <trkpt lat="45.35625" lon="5.90163">
        <ele>1508.8000488281</ele>
        <time>2012-01-11T14:29:51.000Z</time>
      </trkpt>
      <trkpt lat="45.35626" lon="5.90162">
        <ele>1508.8000488281</ele>
        <time>2012-01-11T14:29:53.000Z</time>
      </trkpt>
      <trkpt lat="45.35625" lon="5.90166">
        <ele>1506.4000244141</ele>
        <time>2012-01-11T14:29:59.000Z</time>
      </trkpt>
      <trkpt lat="45.35624" lon="5.90167">
        <ele>1506</ele>
        <time>2012-01-11T14:30:00.000Z</time>
      </trkpt>
      <trkpt lat="45.35638" lon="5.90194">
        <ele>1499.5999755859</ele>
        <time>2012-01-11T14:30:04.000Z</time>
      </trkpt>
      <trkpt lat="45.3564" lon="5.90199">
        <ele>1498.8000488281</ele>
        <time>2012-01-11T14:30:05.000Z</time>
      </trkpt>
      <trkpt lat="45.3564" lon="5.90216">
        <ele>1490</ele>
        <time>2012-01-11T14:30:09.000Z</time>
      </trkpt>
      <trkpt lat="45.35632" lon="5.90229">
        <ele>1481.4000244141</ele>
        <time>2012-01-11T14:30:13.000Z</time>
      </trkpt>
      <trkpt lat="45.35633" lon="5.90232">
        <ele>1480</ele>
        <time>2012-01-11T14:30:14.000Z</time>
      </trkpt>
      <trkpt lat="45.35634" lon="5.9024">
        <ele>1475.5999755859</ele>
        <time>2012-01-11T14:30:16.000Z</time>
      </trkpt>
      <trkpt lat="45.35628" lon="5.90244">
        <ele>1470.8000488281</ele>
        <time>2012-01-11T14:30:18.000Z</time>
      </trkpt>
      <trkpt lat="45.35619" lon="5.90244">
        <ele>1467.4000244141</ele>
        <time>2012-01-11T14:30:22.000Z</time>
      </trkpt>
      <trkpt lat="45.35613" lon="5.90256">
        <ele>1475.5999755859</ele>
        <time>2012-01-11T14:30:30.000Z</time>
      </trkpt>
      <trkpt lat="45.35599" lon="5.90262">
        <ele>1472.1999511719</ele>
        <time>2012-01-11T14:30:35.000Z</time>
      </trkpt>
      <trkpt lat="45.35593" lon="5.90267">
        <ele>1464.5999755859</ele>
        <time>2012-01-11T14:30:38.000Z</time>
      </trkpt>
      <trkpt lat="45.35593" lon="5.90277">
        <ele>1457</ele>
        <time>2012-01-11T14:30:43.000Z</time>
      </trkpt>
      <trkpt lat="45.35591" lon="5.9029">
        <ele>1450.1999511719</ele>
        <time>2012-01-11T14:30:47.000Z</time>
      </trkpt>
      <trkpt lat="45.35582" lon="5.90293">
        <ele>1446.8000488281</ele>
        <time>2012-01-11T14:30:49.000Z</time>
      </trkpt>
      <trkpt lat="45.35565" lon="5.90306">
        <ele>1438.1999511719</ele>
        <time>2012-01-11T14:30:54.000Z</time>
      </trkpt>
      <trkpt lat="45.35566" lon="5.90315">
        <ele>1437.1999511719</ele>
        <time>2012-01-11T14:30:58.000Z</time>
      </trkpt>
      <trkpt lat="45.35565" lon="5.90319">
        <ele>1437.5999755859</ele>
        <time>2012-01-11T14:31:00.000Z</time>
      </trkpt>
      <trkpt lat="45.35567" lon="5.90316">
        <ele>1438.1999511719</ele>
        <time>2012-01-11T14:31:10.000Z</time>
      </trkpt>
      <trkpt lat="45.35573" lon="5.90318">
        <ele>1437.1999511719</ele>
        <time>2012-01-11T14:31:24.000Z</time>
      </trkpt>
      <trkpt lat="45.35584" lon="5.90329">
        <ele>1437.1999511719</ele>
        <time>2012-01-11T14:31:28.000Z</time>
      </trkpt>
      <trkpt lat="45.35597" lon="5.90334">
        <ele>1435.1999511719</ele>
        <time>2012-01-11T14:31:33.000Z</time>
      </trkpt>
      <trkpt lat="45.356" lon="5.90337">
        <ele>1432.8000488281</ele>
        <time>2012-01-11T14:31:35.000Z</time>
      </trkpt>
      <trkpt lat="45.35597" lon="5.90354">
        <ele>1425.1999511719</ele>
        <time>2012-01-11T14:31:40.000Z</time>
      </trkpt>
      <trkpt lat="45.35597" lon="5.90355">
        <ele>1420.8000488281</ele>
        <time>2012-01-11T14:31:43.000Z</time>
      </trkpt>
      <trkpt lat="45.35591" lon="5.90361">
        <ele>1415.5999755859</ele>
        <time>2012-01-11T14:31:47.000Z</time>
      </trkpt>
      <trkpt lat="45.35592" lon="5.90362">
        <ele>1414.5999755859</ele>
        <time>2012-01-11T14:31:48.000Z</time>
      </trkpt>
      <trkpt lat="45.35596" lon="5.90364">
        <ele>1411.8000488281</ele>
        <time>2012-01-11T14:31:50.000Z</time>
      </trkpt>
      <trkpt lat="45.35609" lon="5.90376">
        <ele>1404.5999755859</ele>
        <time>2012-01-11T14:31:55.000Z</time>
      </trkpt>
      <trkpt lat="45.35632" lon="5.90401">
        <ele>1395.4000244141</ele>
        <time>2012-01-11T14:32:01.000Z</time>
      </trkpt>
      <trkpt lat="45.35638" lon="5.90405">
        <ele>1395</ele>
        <time>2012-01-11T14:32:02.000Z</time>
      </trkpt>
      <trkpt lat="45.35655" lon="5.90426">
        <ele>1385.1999511719</ele>
        <time>2012-01-11T14:32:07.000Z</time>
      </trkpt>
      <trkpt lat="45.3566" lon="5.9047">
        <ele>1373.1999511719</ele>
        <time>2012-01-11T14:32:12.000Z</time>
      </trkpt>
      <trkpt lat="45.35667" lon="5.90494">
        <ele>1367</ele>
        <time>2012-01-11T14:32:16.000Z</time>
      </trkpt>
      <trkpt lat="45.35667" lon="5.90517">
        <ele>1370</ele>
        <time>2012-01-11T14:32:19.000Z</time>
      </trkpt>
      <trkpt lat="45.35671" lon="5.90534">
        <ele>1366.5999755859</ele>
        <time>2012-01-11T14:32:22.000Z</time>
      </trkpt>
      <trkpt lat="45.3567" lon="5.9055">
        <ele>1369.4000244141</ele>
        <time>2012-01-11T14:32:26.000Z</time>
      </trkpt>
      <trkpt lat="45.35678" lon="5.90561">
        <ele>1367.5999755859</ele>
        <time>2012-01-11T14:32:30.000Z</time>
      </trkpt>
      <trkpt lat="45.35681" lon="5.90564">
        <ele>1366</ele>
        <time>2012-01-11T14:32:31.000Z</time>
      </trkpt>
      <trkpt lat="45.35696" lon="5.90572">
        <ele>1364.5999755859</ele>
        <time>2012-01-11T14:32:35.000Z</time>
      </trkpt>
      <trkpt lat="45.35695" lon="5.90576">
        <ele>1367.5999755859</ele>
        <time>2012-01-11T14:32:37.000Z</time>
      </trkpt>
      <trkpt lat="45.35697" lon="5.9058">
        <ele>1368</ele>
        <time>2012-01-11T14:32:48.000Z</time>
      </trkpt>
      <trkpt lat="45.35711" lon="5.90596">
        <ele>1367.5999755859</ele>
        <time>2012-01-11T14:32:52.000Z</time>
      </trkpt>
      <trkpt lat="45.35715" lon="5.90602">
        <ele>1366.5999755859</ele>
        <time>2012-01-11T14:32:53.000Z</time>
      </trkpt>
      <trkpt lat="45.35725" lon="5.90648">
        <ele>1360.8000488281</ele>
        <time>2012-01-11T14:32:57.000Z</time>
      </trkpt>
      <trkpt lat="45.3573" lon="5.90663">
        <ele>1357</ele>
        <time>2012-01-11T14:33:00.000Z</time>
      </trkpt>
      <trkpt lat="45.35733" lon="5.9067">
        <ele>1353.5999755859</ele>
        <time>2012-01-11T14:33:02.000Z</time>
      </trkpt>
      <trkpt lat="45.3574" lon="5.90679">
        <ele>1349.1999511719</ele>
        <time>2012-01-11T14:33:06.000Z</time>
      </trkpt>
      <trkpt lat="45.35745" lon="5.9068">
        <ele>1346.8000488281</ele>
        <time>2012-01-11T14:33:08.000Z</time>
      </trkpt>
      <trkpt lat="45.35749" lon="5.9069">
        <ele>1346.4000244141</ele>
        <time>2012-01-11T14:33:11.000Z</time>
      </trkpt>
      <trkpt lat="45.35754" lon="5.90715">
        <ele>1343</ele>
        <time>2012-01-11T14:33:16.000Z</time>
      </trkpt>
      <trkpt lat="45.35766" lon="5.90731">
        <ele>1337.1999511719</ele>
        <time>2012-01-11T14:33:20.000Z</time>
      </trkpt>
      <trkpt lat="45.35773" lon="5.90736">
        <ele>1334.8000488281</ele>
        <time>2012-01-11T14:33:21.000Z</time>
      </trkpt>
      <trkpt lat="45.35786" lon="5.90748">
        <ele>1332.4000244141</ele>
        <time>2012-01-11T14:33:23.000Z</time>
      </trkpt>
      <trkpt lat="45.35808" lon="5.9077">
        <ele>1328</ele>
        <time>2012-01-11T14:33:27.000Z</time>
      </trkpt>
      <trkpt lat="45.35822" lon="5.90778">
        <ele>1326.5999755859</ele>
        <time>2012-01-11T14:33:31.000Z</time>
      </trkpt>
      <trkpt lat="45.35821" lon="5.90779">
        <ele>1327.5999755859</ele>
        <time>2012-01-11T14:33:35.000Z</time>
      </trkpt>
      <trkpt lat="45.35819" lon="5.90782">
        <ele>1326.1999511719</ele>
        <time>2012-01-11T14:33:42.000Z</time>
      </trkpt>
      <trkpt lat="45.3582" lon="5.90783">
        <ele>1325.1999511719</ele>
        <time>2012-01-11T14:33:48.000Z</time>
      </trkpt>
      <trkpt lat="45.3582" lon="5.90784">
        <ele>1324.8000488281</ele>
        <time>2012-01-11T14:33:51.000Z</time>
      </trkpt>
      <trkpt lat="45.35812" lon="5.9079">
        <ele>1323.1999511719</ele>
        <time>2012-01-11T14:33:54.000Z</time>
      </trkpt>
      <trkpt lat="45.35801" lon="5.90786">
        <ele>1322.4000244141</ele>
        <time>2012-01-11T14:33:57.000Z</time>
      </trkpt>
      <trkpt lat="45.35802" lon="5.90796">
        <ele>1319.4000244141</ele>
        <time>2012-01-11T14:34:00.000Z</time>
      </trkpt>
      <trkpt lat="45.35809" lon="5.90809">
        <ele>1317.5999755859</ele>
        <time>2012-01-11T14:34:02.000Z</time>
      </trkpt>
      <trkpt lat="45.35808" lon="5.90827">
        <ele>1310.4000244141</ele>
        <time>2012-01-11T14:34:08.000Z</time>
      </trkpt>
      <trkpt lat="45.35805" lon="5.90846">
        <ele>1306.4000244141</ele>
        <time>2012-01-11T14:34:14.000Z</time>
      </trkpt>
      <trkpt lat="45.35803" lon="5.90851">
        <ele>1308</ele>
        <time>2012-01-11T14:34:18.000Z</time>
      </trkpt>
      <trkpt lat="45.35803" lon="5.90851">
        <ele>1307.4000244141</ele>
        <time>2012-01-11T14:34:23.000Z</time>
      </trkpt>
      <trkpt lat="45.35801" lon="5.90871">
        <ele>1304.5999755859</ele>
        <time>2012-01-11T14:34:28.000Z</time>
      </trkpt>
      <trkpt lat="45.35798" lon="5.90886">
        <ele>1303.1999511719</ele>
        <time>2012-01-11T14:34:31.000Z</time>
      </trkpt>
      <trkpt lat="45.35802" lon="5.90889">
        <ele>1300.8000488281</ele>
        <time>2012-01-11T14:34:35.000Z</time>
      </trkpt>
      <trkpt lat="45.35803" lon="5.90898">
        <ele>1297.4000244141</ele>
        <time>2012-01-11T14:34:38.000Z</time>
      </trkpt>
      <trkpt lat="45.35797" lon="5.90896">
        <ele>1295</ele>
        <time>2012-01-11T14:34:40.000Z</time>
      </trkpt>
      <trkpt lat="45.35792" lon="5.90891">
        <ele>1294</ele>
        <time>2012-01-11T14:34:42.000Z</time>
      </trkpt>
      <trkpt lat="45.35767" lon="5.90881">
        <ele>1288.5999755859</ele>
        <time>2012-01-11T14:34:48.000Z</time>
      </trkpt>
      <trkpt lat="45.35762" lon="5.90878">
        <ele>1287.8000488281</ele>
        <time>2012-01-11T14:34:49.000Z</time>
      </trkpt>
      <trkpt lat="45.35742" lon="5.90868">
        <ele>1282.4000244141</ele>
        <time>2012-01-11T14:34:53.000Z</time>
      </trkpt>
      <trkpt lat="45.35706" lon="5.90869">
        <ele>1273.4000244141</ele>
        <time>2012-01-11T14:34:58.000Z</time>
      </trkpt>
      <trkpt lat="45.35687" lon="5.90874">
        <ele>1268</ele>
        <time>2012-01-11T14:35:00.000Z</time>
      </trkpt>
      <trkpt lat="45.35687" lon="5.90889">
        <ele>1262.8000488281</ele>
        <time>2012-01-11T14:35:03.000Z</time>
      </trkpt>
      <trkpt lat="45.35689" lon="5.90888">
        <ele>1263.1999511719</ele>
        <time>2012-01-11T14:35:06.000Z</time>
      </trkpt>
      <trkpt lat="45.35689" lon="5.90887">
        <ele>1261.8000488281</ele>
        <time>2012-01-11T14:35:11.000Z</time>
      </trkpt>
    </trkseg>
  </trk>
</gpx>